<?xml version="1.0" encoding="UTF-8" standalone="no" ?>
<gpx xmlns="http://www.topografix.com/GPX/1/1" xmlns:xsi="http://www.w3.org/2001/XMLSchema-instance" xsi:schemaLocation="http://www.topografix.com/GPX/1/1 http://www.topografix.com/GPX/1/1/gpx.xsd" version="1.1" creator="VisuGPX - https://www.visugpx.com">
  <metadata>
    <name>Voie Pagès - St Guilhem -Bis</name>
    <desc><![CDATA[A tester rapidement]]></desc>
  </metadata>
  <trk>
    <name><![CDATA[10-AVR-14 21:45:10]]></name>
    <trkseg>
      <trkpt lat="43.74712" lon="3.56131">
        <ele>66.95</ele>
        <time>2014-04-10T08:00:06Z</time>
      </trkpt>
      <trkpt lat="43.74712" lon="3.56131">
        <ele>68.39</ele>
        <time>2014-04-10T08:00:08Z</time>
      </trkpt>
      <trkpt lat="43.74713" lon="3.56131">
        <ele>70.31</ele>
        <time>2014-04-10T08:00:12Z</time>
      </trkpt>
      <trkpt lat="43.74713" lon="3.5613">
        <ele>73.68</ele>
        <time>2014-04-10T08:00:16Z</time>
      </trkpt>
      <trkpt lat="43.74714" lon="3.56129">
        <ele>76.08</ele>
        <time>2014-04-10T08:00:19Z</time>
      </trkpt>
      <trkpt lat="43.74714" lon="3.5613">
        <ele>78</ele>
        <time>2014-04-10T08:00:22Z</time>
      </trkpt>
      <trkpt lat="43.74714" lon="3.56127">
        <ele>81.37</ele>
        <time>2014-04-10T08:00:32Z</time>
      </trkpt>
      <trkpt lat="43.74714" lon="3.56127">
        <ele>80.41</ele>
        <time>2014-04-10T08:00:33Z</time>
      </trkpt>
      <trkpt lat="43.74714" lon="3.56123">
        <ele>83.29</ele>
        <time>2014-04-10T08:00:43Z</time>
      </trkpt>
      <trkpt lat="43.74714" lon="3.56123">
        <ele>86.66</ele>
        <time>2014-04-10T08:00:57Z</time>
      </trkpt>
      <trkpt lat="43.74714" lon="3.56122">
        <ele>88.1</ele>
        <time>2014-04-10T08:01:27Z</time>
      </trkpt>
      <trkpt lat="43.74715" lon="3.5612">
        <ele>87.62</ele>
        <time>2014-04-10T08:01:43Z</time>
      </trkpt>
      <trkpt lat="43.74718" lon="3.56119">
        <ele>87.62</ele>
        <time>2014-04-10T08:01:56Z</time>
      </trkpt>
      <trkpt lat="43.7472" lon="3.56118">
        <ele>88.1</ele>
        <time>2014-04-10T08:02:17Z</time>
      </trkpt>
      <trkpt lat="43.74718" lon="3.56117">
        <ele>87.62</ele>
        <time>2014-04-10T08:02:30Z</time>
      </trkpt>
      <trkpt lat="43.74719" lon="3.56117">
        <ele>87.62</ele>
        <time>2014-04-10T08:02:46Z</time>
      </trkpt>
      <trkpt lat="43.74718" lon="3.56116">
        <ele>87.62</ele>
        <time>2014-04-10T08:03:02Z</time>
      </trkpt>
      <trkpt lat="43.74718" lon="3.56118">
        <ele>87.14</ele>
        <time>2014-04-10T08:03:16Z</time>
      </trkpt>
      <trkpt lat="43.74718" lon="3.56118">
        <ele>88.1</ele>
        <time>2014-04-10T08:03:46Z</time>
      </trkpt>
      <trkpt lat="43.7472" lon="3.56117">
        <ele>88.1</ele>
        <time>2014-04-10T08:03:58Z</time>
      </trkpt>
      <trkpt lat="43.74717" lon="3.56115">
        <ele>88.1</ele>
        <time>2014-04-10T08:04:20Z</time>
      </trkpt>
      <trkpt lat="43.74718" lon="3.56119">
        <ele>88.1</ele>
        <time>2014-04-10T08:04:33Z</time>
      </trkpt>
      <trkpt lat="43.7472" lon="3.56118">
        <ele>88.58</ele>
        <time>2014-04-10T08:04:50Z</time>
      </trkpt>
      <trkpt lat="43.7472" lon="3.56119">
        <ele>87.62</ele>
        <time>2014-04-10T08:05:09Z</time>
      </trkpt>
      <trkpt lat="43.7472" lon="3.56118">
        <ele>87.62</ele>
        <time>2014-04-10T08:05:21Z</time>
      </trkpt>
      <trkpt lat="43.74719" lon="3.56115">
        <ele>88.1</ele>
        <time>2014-04-10T08:05:30Z</time>
      </trkpt>
      <trkpt lat="43.74717" lon="3.56117">
        <ele>88.1</ele>
        <time>2014-04-10T08:05:40Z</time>
      </trkpt>
      <trkpt lat="43.74718" lon="3.56116">
        <ele>88.1</ele>
        <time>2014-04-10T08:05:54Z</time>
      </trkpt>
      <trkpt lat="43.74719" lon="3.56118">
        <ele>88.58</ele>
        <time>2014-04-10T08:06:11Z</time>
      </trkpt>
      <trkpt lat="43.74719" lon="3.56119">
        <ele>88.58</ele>
        <time>2014-04-10T08:06:26Z</time>
      </trkpt>
      <trkpt lat="43.7472" lon="3.56118">
        <ele>88.58</ele>
        <time>2014-04-10T08:06:43Z</time>
      </trkpt>
      <trkpt lat="43.7472" lon="3.56118">
        <ele>88.58</ele>
        <time>2014-04-10T08:07:04Z</time>
      </trkpt>
      <trkpt lat="43.74717" lon="3.56119">
        <ele>88.58</ele>
        <time>2014-04-10T08:07:24Z</time>
      </trkpt>
      <trkpt lat="43.74718" lon="3.5612">
        <ele>89.06</ele>
        <time>2014-04-10T08:07:47Z</time>
      </trkpt>
      <trkpt lat="43.74718" lon="3.5612">
        <ele>89.06</ele>
        <time>2014-04-10T08:07:49Z</time>
      </trkpt>
      <trkpt lat="43.74718" lon="3.56118">
        <ele>89.06</ele>
        <time>2014-04-10T08:08:16Z</time>
      </trkpt>
      <trkpt lat="43.74718" lon="3.56117">
        <ele>88.58</ele>
        <time>2014-04-10T08:08:32Z</time>
      </trkpt>
      <trkpt lat="43.74718" lon="3.56115">
        <ele>88.58</ele>
        <time>2014-04-10T08:08:44Z</time>
      </trkpt>
      <trkpt lat="43.74719" lon="3.56117">
        <ele>89.06</ele>
        <time>2014-04-10T08:09:02Z</time>
      </trkpt>
      <trkpt lat="43.7472" lon="3.56113">
        <ele>89.06</ele>
        <time>2014-04-10T08:09:10Z</time>
      </trkpt>
      <trkpt lat="43.74731" lon="3.56105">
        <ele>89.54</ele>
        <time>2014-04-10T08:09:23Z</time>
      </trkpt>
      <trkpt lat="43.74747" lon="3.56094">
        <ele>89.06</ele>
        <time>2014-04-10T08:09:40Z</time>
      </trkpt>
      <trkpt lat="43.74762" lon="3.56086">
        <ele>89.06</ele>
        <time>2014-04-10T08:09:56Z</time>
      </trkpt>
      <trkpt lat="43.74769" lon="3.5608">
        <ele>89.06</ele>
        <time>2014-04-10T08:10:08Z</time>
      </trkpt>
      <trkpt lat="43.7477" lon="3.5607">
        <ele>88.1</ele>
        <time>2014-04-10T08:10:19Z</time>
      </trkpt>
      <trkpt lat="43.74775" lon="3.56058">
        <ele>90.5</ele>
        <time>2014-04-10T08:10:34Z</time>
      </trkpt>
      <trkpt lat="43.74776" lon="3.56055">
        <ele>90.5</ele>
        <time>2014-04-10T08:10:39Z</time>
      </trkpt>
      <trkpt lat="43.74773" lon="3.56046">
        <ele>90.02</ele>
        <time>2014-04-10T08:10:47Z</time>
      </trkpt>
      <trkpt lat="43.74769" lon="3.56037">
        <ele>89.54</ele>
        <time>2014-04-10T08:10:57Z</time>
      </trkpt>
      <trkpt lat="43.74766" lon="3.56025">
        <ele>89.54</ele>
        <time>2014-04-10T08:11:12Z</time>
      </trkpt>
      <trkpt lat="43.74768" lon="3.56011">
        <ele>90.02</ele>
        <time>2014-04-10T08:11:26Z</time>
      </trkpt>
      <trkpt lat="43.7477" lon="3.55997">
        <ele>90.5</ele>
        <time>2014-04-10T08:11:42Z</time>
      </trkpt>
      <trkpt lat="43.74775" lon="3.55985">
        <ele>90.5</ele>
        <time>2014-04-10T08:11:53Z</time>
      </trkpt>
      <trkpt lat="43.74782" lon="3.55978">
        <ele>91.94</ele>
        <time>2014-04-10T08:12:07Z</time>
      </trkpt>
      <trkpt lat="43.74791" lon="3.5597">
        <ele>94.35</ele>
        <time>2014-04-10T08:12:21Z</time>
      </trkpt>
      <trkpt lat="43.74794" lon="3.55963">
        <ele>94.35</ele>
        <time>2014-04-10T08:12:27Z</time>
      </trkpt>
      <trkpt lat="43.74803" lon="3.5595">
        <ele>94.35</ele>
        <time>2014-04-10T08:12:39Z</time>
      </trkpt>
      <trkpt lat="43.74811" lon="3.55931">
        <ele>95.31</ele>
        <time>2014-04-10T08:12:53Z</time>
      </trkpt>
      <trkpt lat="43.74817" lon="3.55922">
        <ele>94.35</ele>
        <time>2014-04-10T08:13:02Z</time>
      </trkpt>
      <trkpt lat="43.74818" lon="3.55918">
        <ele>94.35</ele>
        <time>2014-04-10T08:13:05Z</time>
      </trkpt>
      <trkpt lat="43.74827" lon="3.55901">
        <ele>94.35</ele>
        <time>2014-04-10T08:13:18Z</time>
      </trkpt>
      <trkpt lat="43.74831" lon="3.55898">
        <ele>94.83</ele>
        <time>2014-04-10T08:13:22Z</time>
      </trkpt>
      <trkpt lat="43.74842" lon="3.55883">
        <ele>95.31</ele>
        <time>2014-04-10T08:13:36Z</time>
      </trkpt>
      <trkpt lat="43.74845" lon="3.55877">
        <ele>95.79</ele>
        <time>2014-04-10T08:13:44Z</time>
      </trkpt>
      <trkpt lat="43.74853" lon="3.55867">
        <ele>96.27</ele>
        <time>2014-04-10T08:13:59Z</time>
      </trkpt>
      <trkpt lat="43.74862" lon="3.55865">
        <ele>97.23</ele>
        <time>2014-04-10T08:14:12Z</time>
      </trkpt>
      <trkpt lat="43.74865" lon="3.55864">
        <ele>97.23</ele>
        <time>2014-04-10T08:14:15Z</time>
      </trkpt>
      <trkpt lat="43.74872" lon="3.5586">
        <ele>97.23</ele>
        <time>2014-04-10T08:14:20Z</time>
      </trkpt>
      <trkpt lat="43.74884" lon="3.55851">
        <ele>98.67</ele>
        <time>2014-04-10T08:14:35Z</time>
      </trkpt>
      <trkpt lat="43.74899" lon="3.55842">
        <ele>99.15</ele>
        <time>2014-04-10T08:14:50Z</time>
      </trkpt>
      <trkpt lat="43.74902" lon="3.55839">
        <ele>99.63</ele>
        <time>2014-04-10T08:14:54Z</time>
      </trkpt>
      <trkpt lat="43.74911" lon="3.55835">
        <ele>100.6</ele>
        <time>2014-04-10T08:15:03Z</time>
      </trkpt>
      <trkpt lat="43.74919" lon="3.55825">
        <ele>100.6</ele>
        <time>2014-04-10T08:15:13Z</time>
      </trkpt>
      <trkpt lat="43.74926" lon="3.55825">
        <ele>101.08</ele>
        <time>2014-04-10T08:15:23Z</time>
      </trkpt>
      <trkpt lat="43.74931" lon="3.55826">
        <ele>102.52</ele>
        <time>2014-04-10T08:15:28Z</time>
      </trkpt>
      <trkpt lat="43.74936" lon="3.55826">
        <ele>102.52</ele>
        <time>2014-04-10T08:15:33Z</time>
      </trkpt>
      <trkpt lat="43.74946" lon="3.55823">
        <ele>102.04</ele>
        <time>2014-04-10T08:15:45Z</time>
      </trkpt>
      <trkpt lat="43.74956" lon="3.55826">
        <ele>103.48</ele>
        <time>2014-04-10T08:15:59Z</time>
      </trkpt>
      <trkpt lat="43.74959" lon="3.5583">
        <ele>103.96</ele>
        <time>2014-04-10T08:16:20Z</time>
      </trkpt>
      <trkpt lat="43.74964" lon="3.55835">
        <ele>105.4</ele>
        <time>2014-04-10T08:16:32Z</time>
      </trkpt>
      <trkpt lat="43.7497" lon="3.55838">
        <ele>104.92</ele>
        <time>2014-04-10T08:16:45Z</time>
      </trkpt>
      <trkpt lat="43.74977" lon="3.55848">
        <ele>105.4</ele>
        <time>2014-04-10T08:16:59Z</time>
      </trkpt>
      <trkpt lat="43.74986" lon="3.55852">
        <ele>105.88</ele>
        <time>2014-04-10T08:17:13Z</time>
      </trkpt>
      <trkpt lat="43.74992" lon="3.55854">
        <ele>107.81</ele>
        <time>2014-04-10T08:17:27Z</time>
      </trkpt>
      <trkpt lat="43.75003" lon="3.55855">
        <ele>109.73</ele>
        <time>2014-04-10T08:17:42Z</time>
      </trkpt>
      <trkpt lat="43.75009" lon="3.55859">
        <ele>111.17</ele>
        <time>2014-04-10T08:17:55Z</time>
      </trkpt>
      <trkpt lat="43.75007" lon="3.55863">
        <ele>112.13</ele>
        <time>2014-04-10T08:18:10Z</time>
      </trkpt>
      <trkpt lat="43.75005" lon="3.55868">
        <ele>113.09</ele>
        <time>2014-04-10T08:18:23Z</time>
      </trkpt>
      <trkpt lat="43.75004" lon="3.55876">
        <ele>115.5</ele>
        <time>2014-04-10T08:18:36Z</time>
      </trkpt>
      <trkpt lat="43.74999" lon="3.55881">
        <ele>118.38</ele>
        <time>2014-04-10T08:18:51Z</time>
      </trkpt>
      <trkpt lat="43.74994" lon="3.55887">
        <ele>121.26</ele>
        <time>2014-04-10T08:19:07Z</time>
      </trkpt>
      <trkpt lat="43.74986" lon="3.55884">
        <ele>122.71</ele>
        <time>2014-04-10T08:19:33Z</time>
      </trkpt>
      <trkpt lat="43.74981" lon="3.55888">
        <ele>125.59</ele>
        <time>2014-04-10T08:19:47Z</time>
      </trkpt>
      <trkpt lat="43.74978" lon="3.55892">
        <ele>127.99</ele>
        <time>2014-04-10T08:20:01Z</time>
      </trkpt>
      <trkpt lat="43.74973" lon="3.55898">
        <ele>130.88</ele>
        <time>2014-04-10T08:20:18Z</time>
      </trkpt>
      <trkpt lat="43.74969" lon="3.55903">
        <ele>134.24</ele>
        <time>2014-04-10T08:20:35Z</time>
      </trkpt>
      <trkpt lat="43.74966" lon="3.55912">
        <ele>136.64</ele>
        <time>2014-04-10T08:20:55Z</time>
      </trkpt>
      <trkpt lat="43.74965" lon="3.5592">
        <ele>139.53</ele>
        <time>2014-04-10T08:21:08Z</time>
      </trkpt>
      <trkpt lat="43.74967" lon="3.55925">
        <ele>141.93</ele>
        <time>2014-04-10T08:21:24Z</time>
      </trkpt>
      <trkpt lat="43.74964" lon="3.55929">
        <ele>143.37</ele>
        <time>2014-04-10T08:21:41Z</time>
      </trkpt>
      <trkpt lat="43.74964" lon="3.55934">
        <ele>144.34</ele>
        <time>2014-04-10T08:21:59Z</time>
      </trkpt>
      <trkpt lat="43.74966" lon="3.55935">
        <ele>146.74</ele>
        <time>2014-04-10T08:22:15Z</time>
      </trkpt>
      <trkpt lat="43.74968" lon="3.55938">
        <ele>147.7</ele>
        <time>2014-04-10T08:22:31Z</time>
      </trkpt>
      <trkpt lat="43.74967" lon="3.55942">
        <ele>149.62</ele>
        <time>2014-04-10T08:22:47Z</time>
      </trkpt>
      <trkpt lat="43.74967" lon="3.55942">
        <ele>149.14</ele>
        <time>2014-04-10T08:22:50Z</time>
      </trkpt>
      <trkpt lat="43.74966" lon="3.55945">
        <ele>152.03</ele>
        <time>2014-04-10T08:23:01Z</time>
      </trkpt>
      <trkpt lat="43.74968" lon="3.5595">
        <ele>152.51</ele>
        <time>2014-04-10T08:23:11Z</time>
      </trkpt>
      <trkpt lat="43.74969" lon="3.55955">
        <ele>152.03</ele>
        <time>2014-04-10T08:23:24Z</time>
      </trkpt>
      <trkpt lat="43.74963" lon="3.55959">
        <ele>149.62</ele>
        <time>2014-04-10T08:23:39Z</time>
      </trkpt>
      <trkpt lat="43.7496" lon="3.55959">
        <ele>148.18</ele>
        <time>2014-04-10T08:23:45Z</time>
      </trkpt>
      <trkpt lat="43.74949" lon="3.5596">
        <ele>146.26</ele>
        <time>2014-04-10T08:24:00Z</time>
      </trkpt>
      <trkpt lat="43.74939" lon="3.55958">
        <ele>144.82</ele>
        <time>2014-04-10T08:24:13Z</time>
      </trkpt>
      <trkpt lat="43.74932" lon="3.55958">
        <ele>145.3</ele>
        <time>2014-04-10T08:24:28Z</time>
      </trkpt>
      <trkpt lat="43.74932" lon="3.55957">
        <ele>144.82</ele>
        <time>2014-04-10T08:24:34Z</time>
      </trkpt>
      <trkpt lat="43.7493" lon="3.55956">
        <ele>145.3</ele>
        <time>2014-04-10T08:24:49Z</time>
      </trkpt>
      <trkpt lat="43.74929" lon="3.55954">
        <ele>144.82</ele>
        <time>2014-04-10T08:25:06Z</time>
      </trkpt>
      <trkpt lat="43.74928" lon="3.55949">
        <ele>144.82</ele>
        <time>2014-04-10T08:25:21Z</time>
      </trkpt>
      <trkpt lat="43.74928" lon="3.55948">
        <ele>144.82</ele>
        <time>2014-04-10T08:25:32Z</time>
      </trkpt>
      <trkpt lat="43.74928" lon="3.55948">
        <ele>144.82</ele>
        <time>2014-04-10T08:25:44Z</time>
      </trkpt>
      <trkpt lat="43.74927" lon="3.55957">
        <ele>146.26</ele>
        <time>2014-04-10T08:25:59Z</time>
      </trkpt>
      <trkpt lat="43.74927" lon="3.55966">
        <ele>147.22</ele>
        <time>2014-04-10T08:26:14Z</time>
      </trkpt>
      <trkpt lat="43.74928" lon="3.5597">
        <ele>149.14</ele>
        <time>2014-04-10T08:26:20Z</time>
      </trkpt>
      <trkpt lat="43.74931" lon="3.55974">
        <ele>152.03</ele>
        <time>2014-04-10T08:26:29Z</time>
      </trkpt>
      <trkpt lat="43.74934" lon="3.55977">
        <ele>154.43</ele>
        <time>2014-04-10T08:26:43Z</time>
      </trkpt>
      <trkpt lat="43.74936" lon="3.55981">
        <ele>155.87</ele>
        <time>2014-04-10T08:26:55Z</time>
      </trkpt>
      <trkpt lat="43.74937" lon="3.55981">
        <ele>157.79</ele>
        <time>2014-04-10T08:27:07Z</time>
      </trkpt>
      <trkpt lat="43.74938" lon="3.55981">
        <ele>158.75</ele>
        <time>2014-04-10T08:27:14Z</time>
      </trkpt>
      <trkpt lat="43.74941" lon="3.55982">
        <ele>160.2</ele>
        <time>2014-04-10T08:27:21Z</time>
      </trkpt>
      <trkpt lat="43.74944" lon="3.55984">
        <ele>160.68</ele>
        <time>2014-04-10T08:27:32Z</time>
      </trkpt>
      <trkpt lat="43.74947" lon="3.55986">
        <ele>161.16</ele>
        <time>2014-04-10T08:27:45Z</time>
      </trkpt>
      <trkpt lat="43.74948" lon="3.55987">
        <ele>161.64</ele>
        <time>2014-04-10T08:27:58Z</time>
      </trkpt>
      <trkpt lat="43.74949" lon="3.55988">
        <ele>161.16</ele>
        <time>2014-04-10T08:28:15Z</time>
      </trkpt>
      <trkpt lat="43.7495" lon="3.55986">
        <ele>162.12</ele>
        <time>2014-04-10T08:28:28Z</time>
      </trkpt>
      <trkpt lat="43.74953" lon="3.55988">
        <ele>163.08</ele>
        <time>2014-04-10T08:28:42Z</time>
      </trkpt>
      <trkpt lat="43.74953" lon="3.55989">
        <ele>163.08</ele>
        <time>2014-04-10T08:28:43Z</time>
      </trkpt>
      <trkpt lat="43.74954" lon="3.5599">
        <ele>164.04</ele>
        <time>2014-04-10T08:28:45Z</time>
      </trkpt>
      <trkpt lat="43.74959" lon="3.55994">
        <ele>165.96</ele>
        <time>2014-04-10T08:28:57Z</time>
      </trkpt>
      <trkpt lat="43.7496" lon="3.55998">
        <ele>166.93</ele>
        <time>2014-04-10T08:29:14Z</time>
      </trkpt>
      <trkpt lat="43.74962" lon="3.55999">
        <ele>168.37</ele>
        <time>2014-04-10T08:29:25Z</time>
      </trkpt>
      <trkpt lat="43.74963" lon="3.56001">
        <ele>168.37</ele>
        <time>2014-04-10T08:29:40Z</time>
      </trkpt>
      <trkpt lat="43.74963" lon="3.56001">
        <ele>169.33</ele>
        <time>2014-04-10T08:30:00Z</time>
      </trkpt>
      <trkpt lat="43.74963" lon="3.56003">
        <ele>169.33</ele>
        <time>2014-04-10T08:30:23Z</time>
      </trkpt>
      <trkpt lat="43.74962" lon="3.56">
        <ele>168.85</ele>
        <time>2014-04-10T08:30:37Z</time>
      </trkpt>
      <trkpt lat="43.74962" lon="3.56002">
        <ele>169.33</ele>
        <time>2014-04-10T08:30:55Z</time>
      </trkpt>
      <trkpt lat="43.74964" lon="3.56003">
        <ele>169.81</ele>
        <time>2014-04-10T08:31:16Z</time>
      </trkpt>
      <trkpt lat="43.74963" lon="3.56004">
        <ele>169.81</ele>
        <time>2014-04-10T08:31:36Z</time>
      </trkpt>
      <trkpt lat="43.74968" lon="3.56006">
        <ele>170.29</ele>
        <time>2014-04-10T08:31:52Z</time>
      </trkpt>
      <trkpt lat="43.7497" lon="3.56008">
        <ele>171.73</ele>
        <time>2014-04-10T08:32:04Z</time>
      </trkpt>
      <trkpt lat="43.74971" lon="3.56009">
        <ele>172.21</ele>
        <time>2014-04-10T08:32:18Z</time>
      </trkpt>
      <trkpt lat="43.74975" lon="3.56008">
        <ele>171.73</ele>
        <time>2014-04-10T08:32:30Z</time>
      </trkpt>
      <trkpt lat="43.74977" lon="3.56004">
        <ele>171.73</ele>
        <time>2014-04-10T08:32:39Z</time>
      </trkpt>
      <trkpt lat="43.7498" lon="3.55998">
        <ele>172.69</ele>
        <time>2014-04-10T08:32:50Z</time>
      </trkpt>
      <trkpt lat="43.74984" lon="3.56">
        <ele>174.14</ele>
        <time>2014-04-10T08:33:00Z</time>
      </trkpt>
      <trkpt lat="43.74986" lon="3.55999">
        <ele>175.1</ele>
        <time>2014-04-10T08:33:06Z</time>
      </trkpt>
      <trkpt lat="43.7499" lon="3.55994">
        <ele>176.06</ele>
        <time>2014-04-10T08:33:18Z</time>
      </trkpt>
      <trkpt lat="43.74989" lon="3.55993">
        <ele>175.58</ele>
        <time>2014-04-10T08:33:33Z</time>
      </trkpt>
      <trkpt lat="43.74989" lon="3.55991">
        <ele>174.14</ele>
        <time>2014-04-10T08:33:48Z</time>
      </trkpt>
      <trkpt lat="43.7499" lon="3.55992">
        <ele>173.66</ele>
        <time>2014-04-10T08:34:01Z</time>
      </trkpt>
      <trkpt lat="43.74994" lon="3.55988">
        <ele>172.21</ele>
        <time>2014-04-10T08:34:13Z</time>
      </trkpt>
      <trkpt lat="43.75003" lon="3.5599">
        <ele>172.21</ele>
        <time>2014-04-10T08:34:27Z</time>
      </trkpt>
      <trkpt lat="43.75007" lon="3.55989">
        <ele>172.21</ele>
        <time>2014-04-10T08:34:40Z</time>
      </trkpt>
      <trkpt lat="43.75009" lon="3.55989">
        <ele>171.25</ele>
        <time>2014-04-10T08:34:47Z</time>
      </trkpt>
      <trkpt lat="43.75011" lon="3.55984">
        <ele>172.69</ele>
        <time>2014-04-10T08:34:56Z</time>
      </trkpt>
      <trkpt lat="43.75013" lon="3.55981">
        <ele>174.14</ele>
        <time>2014-04-10T08:35:06Z</time>
      </trkpt>
      <trkpt lat="43.75013" lon="3.55981">
        <ele>174.14</ele>
        <time>2014-04-10T08:35:10Z</time>
      </trkpt>
      <trkpt lat="43.75019" lon="3.55976">
        <ele>175.58</ele>
        <time>2014-04-10T08:35:23Z</time>
      </trkpt>
      <trkpt lat="43.75023" lon="3.55977">
        <ele>177.02</ele>
        <time>2014-04-10T08:35:35Z</time>
      </trkpt>
      <trkpt lat="43.75023" lon="3.55977">
        <ele>177.02</ele>
        <time>2014-04-10T08:35:37Z</time>
      </trkpt>
      <trkpt lat="43.75027" lon="3.55976">
        <ele>179.42</ele>
        <time>2014-04-10T08:35:48Z</time>
      </trkpt>
      <trkpt lat="43.75028" lon="3.55975">
        <ele>179.9</ele>
        <time>2014-04-10T08:36:07Z</time>
      </trkpt>
      <trkpt lat="43.7503" lon="3.55974">
        <ele>180.38</ele>
        <time>2014-04-10T08:36:18Z</time>
      </trkpt>
      <trkpt lat="43.75033" lon="3.55975">
        <ele>180.38</ele>
        <time>2014-04-10T08:36:41Z</time>
      </trkpt>
      <trkpt lat="43.75033" lon="3.55975">
        <ele>180.38</ele>
        <time>2014-04-10T08:36:45Z</time>
      </trkpt>
      <trkpt lat="43.75034" lon="3.55974">
        <ele>180.87</ele>
        <time>2014-04-10T08:36:58Z</time>
      </trkpt>
      <trkpt lat="43.75036" lon="3.55974">
        <ele>180.87</ele>
        <time>2014-04-10T08:37:11Z</time>
      </trkpt>
      <trkpt lat="43.75036" lon="3.55976">
        <ele>181.35</ele>
        <time>2014-04-10T08:37:26Z</time>
      </trkpt>
      <trkpt lat="43.75038" lon="3.55977">
        <ele>181.35</ele>
        <time>2014-04-10T08:37:34Z</time>
      </trkpt>
      <trkpt lat="43.75041" lon="3.55975">
        <ele>179.42</ele>
        <time>2014-04-10T08:37:45Z</time>
      </trkpt>
      <trkpt lat="43.75047" lon="3.55973">
        <ele>178.94</ele>
        <time>2014-04-10T08:37:56Z</time>
      </trkpt>
      <trkpt lat="43.75054" lon="3.55976">
        <ele>179.42</ele>
        <time>2014-04-10T08:38:08Z</time>
      </trkpt>
      <trkpt lat="43.75058" lon="3.55976">
        <ele>181.35</ele>
        <time>2014-04-10T08:38:21Z</time>
      </trkpt>
      <trkpt lat="43.75065" lon="3.55974">
        <ele>183.75</ele>
        <time>2014-04-10T08:38:34Z</time>
      </trkpt>
      <trkpt lat="43.75071" lon="3.55972">
        <ele>185.67</ele>
        <time>2014-04-10T08:38:49Z</time>
      </trkpt>
      <trkpt lat="43.75077" lon="3.55969">
        <ele>187.11</ele>
        <time>2014-04-10T08:39:02Z</time>
      </trkpt>
      <trkpt lat="43.7508" lon="3.55971">
        <ele>187.59</ele>
        <time>2014-04-10T08:39:13Z</time>
      </trkpt>
      <trkpt lat="43.75081" lon="3.5597">
        <ele>189.04</ele>
        <time>2014-04-10T08:39:24Z</time>
      </trkpt>
      <trkpt lat="43.75081" lon="3.5597">
        <ele>189.04</ele>
        <time>2014-04-10T08:39:35Z</time>
      </trkpt>
      <trkpt lat="43.75083" lon="3.55972">
        <ele>189.52</ele>
        <time>2014-04-10T08:39:44Z</time>
      </trkpt>
      <trkpt lat="43.75084" lon="3.55972">
        <ele>191.44</ele>
        <time>2014-04-10T08:39:58Z</time>
      </trkpt>
      <trkpt lat="43.75086" lon="3.5597">
        <ele>190.96</ele>
        <time>2014-04-10T08:40:20Z</time>
      </trkpt>
      <trkpt lat="43.75087" lon="3.55971">
        <ele>190.48</ele>
        <time>2014-04-10T08:40:34Z</time>
      </trkpt>
      <trkpt lat="43.75089" lon="3.55969">
        <ele>188.08</ele>
        <time>2014-04-10T08:40:44Z</time>
      </trkpt>
      <trkpt lat="43.75092" lon="3.55968">
        <ele>188.08</ele>
        <time>2014-04-10T08:41:00Z</time>
      </trkpt>
      <trkpt lat="43.75096" lon="3.55968">
        <ele>190.96</ele>
        <time>2014-04-10T08:41:10Z</time>
      </trkpt>
      <trkpt lat="43.75101" lon="3.55965">
        <ele>190.48</ele>
        <time>2014-04-10T08:41:21Z</time>
      </trkpt>
      <trkpt lat="43.75104" lon="3.55962">
        <ele>190.96</ele>
        <time>2014-04-10T08:41:33Z</time>
      </trkpt>
      <trkpt lat="43.7511" lon="3.55967">
        <ele>191.92</ele>
        <time>2014-04-10T08:41:46Z</time>
      </trkpt>
      <trkpt lat="43.75115" lon="3.55966">
        <ele>192.4</ele>
        <time>2014-04-10T08:41:58Z</time>
      </trkpt>
      <trkpt lat="43.75121" lon="3.55967">
        <ele>190.48</ele>
        <time>2014-04-10T08:42:11Z</time>
      </trkpt>
      <trkpt lat="43.75126" lon="3.55969">
        <ele>190.96</ele>
        <time>2014-04-10T08:42:25Z</time>
      </trkpt>
      <trkpt lat="43.75131" lon="3.55969">
        <ele>190</ele>
        <time>2014-04-10T08:42:38Z</time>
      </trkpt>
      <trkpt lat="43.75131" lon="3.55969">
        <ele>189.52</ele>
        <time>2014-04-10T08:42:55Z</time>
      </trkpt>
      <trkpt lat="43.75139" lon="3.5597">
        <ele>191.92</ele>
        <time>2014-04-10T08:43:11Z</time>
      </trkpt>
      <trkpt lat="43.75146" lon="3.55974">
        <ele>191.44</ele>
        <time>2014-04-10T08:43:31Z</time>
      </trkpt>
      <trkpt lat="43.75147" lon="3.55976">
        <ele>191.44</ele>
        <time>2014-04-10T08:43:45Z</time>
      </trkpt>
      <trkpt lat="43.75149" lon="3.55981">
        <ele>191.92</ele>
        <time>2014-04-10T08:44:04Z</time>
      </trkpt>
      <trkpt lat="43.75153" lon="3.55983">
        <ele>193.84</ele>
        <time>2014-04-10T08:44:18Z</time>
      </trkpt>
      <trkpt lat="43.75152" lon="3.55984">
        <ele>193.36</ele>
        <time>2014-04-10T08:44:30Z</time>
      </trkpt>
      <trkpt lat="43.75151" lon="3.55981">
        <ele>191.92</ele>
        <time>2014-04-10T08:44:46Z</time>
      </trkpt>
      <trkpt lat="43.75149" lon="3.55979">
        <ele>191.92</ele>
        <time>2014-04-10T08:45:03Z</time>
      </trkpt>
      <trkpt lat="43.75148" lon="3.5598">
        <ele>192.4</ele>
        <time>2014-04-10T08:45:25Z</time>
      </trkpt>
      <trkpt lat="43.75147" lon="3.5598">
        <ele>194.32</ele>
        <time>2014-04-10T08:45:42Z</time>
      </trkpt>
      <trkpt lat="43.7515" lon="3.55978">
        <ele>195.77</ele>
        <time>2014-04-10T08:45:59Z</time>
      </trkpt>
      <trkpt lat="43.75153" lon="3.55976">
        <ele>198.17</ele>
        <time>2014-04-10T08:46:12Z</time>
      </trkpt>
      <trkpt lat="43.75154" lon="3.55981">
        <ele>199.61</ele>
        <time>2014-04-10T08:46:33Z</time>
      </trkpt>
      <trkpt lat="43.75156" lon="3.55983">
        <ele>201.05</ele>
        <time>2014-04-10T08:46:49Z</time>
      </trkpt>
      <trkpt lat="43.75159" lon="3.55982">
        <ele>200.09</ele>
        <time>2014-04-10T08:47:08Z</time>
      </trkpt>
      <trkpt lat="43.75162" lon="3.55982">
        <ele>201.53</ele>
        <time>2014-04-10T08:47:21Z</time>
      </trkpt>
      <trkpt lat="43.75163" lon="3.55981">
        <ele>201.53</ele>
        <time>2014-04-10T08:47:41Z</time>
      </trkpt>
      <trkpt lat="43.75163" lon="3.5598">
        <ele>201.05</ele>
        <time>2014-04-10T08:48:00Z</time>
      </trkpt>
      <trkpt lat="43.75162" lon="3.55979">
        <ele>201.05</ele>
        <time>2014-04-10T08:48:15Z</time>
      </trkpt>
      <trkpt lat="43.75161" lon="3.55982">
        <ele>201.05</ele>
        <time>2014-04-10T08:48:32Z</time>
      </trkpt>
      <trkpt lat="43.75163" lon="3.55978">
        <ele>201.53</ele>
        <time>2014-04-10T08:48:47Z</time>
      </trkpt>
      <trkpt lat="43.75163" lon="3.55979">
        <ele>201.53</ele>
        <time>2014-04-10T08:49:06Z</time>
      </trkpt>
      <trkpt lat="43.75163" lon="3.55978">
        <ele>201.53</ele>
        <time>2014-04-10T08:49:32Z</time>
      </trkpt>
      <trkpt lat="43.75163" lon="3.55978">
        <ele>201.05</ele>
        <time>2014-04-10T08:49:48Z</time>
      </trkpt>
      <trkpt lat="43.75164" lon="3.55979">
        <ele>201.53</ele>
        <time>2014-04-10T08:50:05Z</time>
      </trkpt>
      <trkpt lat="43.75168" lon="3.55977">
        <ele>203.46</ele>
        <time>2014-04-10T08:50:17Z</time>
      </trkpt>
      <trkpt lat="43.7517" lon="3.55977">
        <ele>205.38</ele>
        <time>2014-04-10T08:50:24Z</time>
      </trkpt>
      <trkpt lat="43.75175" lon="3.55979">
        <ele>206.34</ele>
        <time>2014-04-10T08:50:35Z</time>
      </trkpt>
      <trkpt lat="43.75179" lon="3.55979">
        <ele>207.78</ele>
        <time>2014-04-10T08:50:48Z</time>
      </trkpt>
      <trkpt lat="43.75181" lon="3.55978">
        <ele>209.22</ele>
        <time>2014-04-10T08:50:58Z</time>
      </trkpt>
      <trkpt lat="43.75181" lon="3.55979">
        <ele>208.74</ele>
        <time>2014-04-10T08:51:09Z</time>
      </trkpt>
      <trkpt lat="43.75182" lon="3.55977">
        <ele>209.7</ele>
        <time>2014-04-10T08:51:19Z</time>
      </trkpt>
      <trkpt lat="43.75184" lon="3.55977">
        <ele>212.11</ele>
        <time>2014-04-10T08:51:32Z</time>
      </trkpt>
      <trkpt lat="43.75187" lon="3.55978">
        <ele>211.15</ele>
        <time>2014-04-10T08:51:46Z</time>
      </trkpt>
      <trkpt lat="43.75192" lon="3.55976">
        <ele>210.67</ele>
        <time>2014-04-10T08:51:58Z</time>
      </trkpt>
      <trkpt lat="43.75198" lon="3.55983">
        <ele>211.63</ele>
        <time>2014-04-10T08:52:13Z</time>
      </trkpt>
      <trkpt lat="43.75196" lon="3.55984">
        <ele>213.55</ele>
        <time>2014-04-10T08:52:29Z</time>
      </trkpt>
      <trkpt lat="43.75198" lon="3.5599">
        <ele>214.51</ele>
        <time>2014-04-10T08:52:50Z</time>
      </trkpt>
      <trkpt lat="43.75198" lon="3.55989">
        <ele>215.95</ele>
        <time>2014-04-10T08:53:10Z</time>
      </trkpt>
      <trkpt lat="43.75197" lon="3.5598">
        <ele>216.43</ele>
        <time>2014-04-10T08:53:23Z</time>
      </trkpt>
      <trkpt lat="43.752" lon="3.55982">
        <ele>216.43</ele>
        <time>2014-04-10T08:53:35Z</time>
      </trkpt>
      <trkpt lat="43.75203" lon="3.55979">
        <ele>217.4</ele>
        <time>2014-04-10T08:53:48Z</time>
      </trkpt>
      <trkpt lat="43.75202" lon="3.5598">
        <ele>217.88</ele>
        <time>2014-04-10T08:54:02Z</time>
      </trkpt>
      <trkpt lat="43.75206" lon="3.55982">
        <ele>217.4</ele>
        <time>2014-04-10T08:54:18Z</time>
      </trkpt>
      <trkpt lat="43.75209" lon="3.55984">
        <ele>217.4</ele>
        <time>2014-04-10T08:54:30Z</time>
      </trkpt>
      <trkpt lat="43.7521" lon="3.55985">
        <ele>216.43</ele>
        <time>2014-04-10T08:54:44Z</time>
      </trkpt>
      <trkpt lat="43.75212" lon="3.55984">
        <ele>216.43</ele>
        <time>2014-04-10T08:54:55Z</time>
      </trkpt>
      <trkpt lat="43.75211" lon="3.55984">
        <ele>215.95</ele>
        <time>2014-04-10T08:55:10Z</time>
      </trkpt>
      <trkpt lat="43.75212" lon="3.55984">
        <ele>215.95</ele>
        <time>2014-04-10T08:55:26Z</time>
      </trkpt>
      <trkpt lat="43.75216" lon="3.55982">
        <ele>216.91</ele>
        <time>2014-04-10T08:55:39Z</time>
      </trkpt>
      <trkpt lat="43.75213" lon="3.55984">
        <ele>215.47</ele>
        <time>2014-04-10T08:55:53Z</time>
      </trkpt>
      <trkpt lat="43.75216" lon="3.55985">
        <ele>213.07</ele>
        <time>2014-04-10T08:56:05Z</time>
      </trkpt>
      <trkpt lat="43.75222" lon="3.55984">
        <ele>216.43</ele>
        <time>2014-04-10T08:56:19Z</time>
      </trkpt>
      <trkpt lat="43.75224" lon="3.55987">
        <ele>218.36</ele>
        <time>2014-04-10T08:56:33Z</time>
      </trkpt>
      <trkpt lat="43.75226" lon="3.5599">
        <ele>220.28</ele>
        <time>2014-04-10T08:56:50Z</time>
      </trkpt>
      <trkpt lat="43.75228" lon="3.55994">
        <ele>222.68</ele>
        <time>2014-04-10T08:57:06Z</time>
      </trkpt>
      <trkpt lat="43.75231" lon="3.55991">
        <ele>223.16</ele>
        <time>2014-04-10T08:57:19Z</time>
      </trkpt>
      <trkpt lat="43.75233" lon="3.55987">
        <ele>226.05</ele>
        <time>2014-04-10T08:57:36Z</time>
      </trkpt>
      <trkpt lat="43.75235" lon="3.55988">
        <ele>227.01</ele>
        <time>2014-04-10T08:57:50Z</time>
      </trkpt>
      <trkpt lat="43.75237" lon="3.55986">
        <ele>229.41</ele>
        <time>2014-04-10T08:58:04Z</time>
      </trkpt>
      <trkpt lat="43.75239" lon="3.55986">
        <ele>230.85</ele>
        <time>2014-04-10T08:58:20Z</time>
      </trkpt>
      <trkpt lat="43.75239" lon="3.55986">
        <ele>230.37</ele>
        <time>2014-04-10T08:58:38Z</time>
      </trkpt>
      <trkpt lat="43.75241" lon="3.55984">
        <ele>231.81</ele>
        <time>2014-04-10T08:58:57Z</time>
      </trkpt>
      <trkpt lat="43.75246" lon="3.55981">
        <ele>233.74</ele>
        <time>2014-04-10T08:59:13Z</time>
      </trkpt>
      <trkpt lat="43.75248" lon="3.55977">
        <ele>235.18</ele>
        <time>2014-04-10T08:59:30Z</time>
      </trkpt>
      <trkpt lat="43.75252" lon="3.55979">
        <ele>235.18</ele>
        <time>2014-04-10T08:59:43Z</time>
      </trkpt>
      <trkpt lat="43.75257" lon="3.5598">
        <ele>237.1</ele>
        <time>2014-04-10T08:59:57Z</time>
      </trkpt>
      <trkpt lat="43.75259" lon="3.55977">
        <ele>238.54</ele>
        <time>2014-04-10T09:00:15Z</time>
      </trkpt>
      <trkpt lat="43.75259" lon="3.55978">
        <ele>239.51</ele>
        <time>2014-04-10T09:00:32Z</time>
      </trkpt>
      <trkpt lat="43.75261" lon="3.55976">
        <ele>240.47</ele>
        <time>2014-04-10T09:00:51Z</time>
      </trkpt>
      <trkpt lat="43.75262" lon="3.55978">
        <ele>241.43</ele>
        <time>2014-04-10T09:01:09Z</time>
      </trkpt>
      <trkpt lat="43.75264" lon="3.55979">
        <ele>240.95</ele>
        <time>2014-04-10T09:01:32Z</time>
      </trkpt>
      <trkpt lat="43.75264" lon="3.5598">
        <ele>240.47</ele>
        <time>2014-04-10T09:01:50Z</time>
      </trkpt>
      <trkpt lat="43.75265" lon="3.5598">
        <ele>240.47</ele>
        <time>2014-04-10T09:02:05Z</time>
      </trkpt>
      <trkpt lat="43.75267" lon="3.55978">
        <ele>239.99</ele>
        <time>2014-04-10T09:02:23Z</time>
      </trkpt>
      <trkpt lat="43.75269" lon="3.55978">
        <ele>241.43</ele>
        <time>2014-04-10T09:02:37Z</time>
      </trkpt>
      <trkpt lat="43.75273" lon="3.55975">
        <ele>241.43</ele>
        <time>2014-04-10T09:02:54Z</time>
      </trkpt>
      <trkpt lat="43.75274" lon="3.55973">
        <ele>241.43</ele>
        <time>2014-04-10T09:03:15Z</time>
      </trkpt>
      <trkpt lat="43.75274" lon="3.55972">
        <ele>242.39</ele>
        <time>2014-04-10T09:03:31Z</time>
      </trkpt>
      <trkpt lat="43.75277" lon="3.55969">
        <ele>242.87</ele>
        <time>2014-04-10T09:03:42Z</time>
      </trkpt>
      <trkpt lat="43.75279" lon="3.55967">
        <ele>242.87</ele>
        <time>2014-04-10T09:03:59Z</time>
      </trkpt>
      <trkpt lat="43.75279" lon="3.55966">
        <ele>242.87</ele>
        <time>2014-04-10T09:04:21Z</time>
      </trkpt>
      <trkpt lat="43.7528" lon="3.55968">
        <ele>242.87</ele>
        <time>2014-04-10T09:04:47Z</time>
      </trkpt>
      <trkpt lat="43.75279" lon="3.55968">
        <ele>242.87</ele>
        <time>2014-04-10T09:05:05Z</time>
      </trkpt>
      <trkpt lat="43.75279" lon="3.55967">
        <ele>242.87</ele>
        <time>2014-04-10T09:05:34Z</time>
      </trkpt>
      <trkpt lat="43.75282" lon="3.55965">
        <ele>242.87</ele>
        <time>2014-04-10T09:05:59Z</time>
      </trkpt>
      <trkpt lat="43.75285" lon="3.55965">
        <ele>243.83</ele>
        <time>2014-04-10T09:06:12Z</time>
      </trkpt>
      <trkpt lat="43.75287" lon="3.55961">
        <ele>245.27</ele>
        <time>2014-04-10T09:06:27Z</time>
      </trkpt>
      <trkpt lat="43.7529" lon="3.55963">
        <ele>246.72</ele>
        <time>2014-04-10T09:06:42Z</time>
      </trkpt>
      <trkpt lat="43.75294" lon="3.5596">
        <ele>248.64</ele>
        <time>2014-04-10T09:06:54Z</time>
      </trkpt>
      <trkpt lat="43.75297" lon="3.55959">
        <ele>249.6</ele>
        <time>2014-04-10T09:07:14Z</time>
      </trkpt>
      <trkpt lat="43.753" lon="3.5596">
        <ele>251.52</ele>
        <time>2014-04-10T09:07:27Z</time>
      </trkpt>
      <trkpt lat="43.75305" lon="3.55957">
        <ele>252.48</ele>
        <time>2014-04-10T09:07:41Z</time>
      </trkpt>
      <trkpt lat="43.75308" lon="3.55958">
        <ele>254.89</ele>
        <time>2014-04-10T09:07:53Z</time>
      </trkpt>
      <trkpt lat="43.7531" lon="3.55952">
        <ele>256.33</ele>
        <time>2014-04-10T09:08:07Z</time>
      </trkpt>
      <trkpt lat="43.75309" lon="3.55944">
        <ele>256.81</ele>
        <time>2014-04-10T09:08:20Z</time>
      </trkpt>
      <trkpt lat="43.7531" lon="3.55939">
        <ele>258.25</ele>
        <time>2014-04-10T09:08:33Z</time>
      </trkpt>
      <trkpt lat="43.75313" lon="3.55935">
        <ele>259.69</ele>
        <time>2014-04-10T09:08:47Z</time>
      </trkpt>
      <trkpt lat="43.75314" lon="3.55933">
        <ele>261.14</ele>
        <time>2014-04-10T09:09:00Z</time>
      </trkpt>
      <trkpt lat="43.75315" lon="3.55928">
        <ele>262.1</ele>
        <time>2014-04-10T09:09:13Z</time>
      </trkpt>
      <trkpt lat="43.75319" lon="3.5592">
        <ele>263.54</ele>
        <time>2014-04-10T09:09:27Z</time>
      </trkpt>
      <trkpt lat="43.7532" lon="3.55913">
        <ele>264.5</ele>
        <time>2014-04-10T09:09:38Z</time>
      </trkpt>
      <trkpt lat="43.75324" lon="3.55909">
        <ele>264.98</ele>
        <time>2014-04-10T09:09:50Z</time>
      </trkpt>
      <trkpt lat="43.75327" lon="3.55905">
        <ele>264.5</ele>
        <time>2014-04-10T09:10:01Z</time>
      </trkpt>
      <trkpt lat="43.7533" lon="3.559">
        <ele>265.94</ele>
        <time>2014-04-10T09:10:14Z</time>
      </trkpt>
      <trkpt lat="43.75332" lon="3.559">
        <ele>268.35</ele>
        <time>2014-04-10T09:10:27Z</time>
      </trkpt>
      <trkpt lat="43.75336" lon="3.55897">
        <ele>270.27</ele>
        <time>2014-04-10T09:10:43Z</time>
      </trkpt>
      <trkpt lat="43.75337" lon="3.55896">
        <ele>271.23</ele>
        <time>2014-04-10T09:10:47Z</time>
      </trkpt>
      <trkpt lat="43.75339" lon="3.55894">
        <ele>271.71</ele>
        <time>2014-04-10T09:11:00Z</time>
      </trkpt>
      <trkpt lat="43.75339" lon="3.55891">
        <ele>272.19</ele>
        <time>2014-04-10T09:11:19Z</time>
      </trkpt>
      <trkpt lat="43.75338" lon="3.55888">
        <ele>274.11</ele>
        <time>2014-04-10T09:11:34Z</time>
      </trkpt>
      <trkpt lat="43.75341" lon="3.55884">
        <ele>274.11</ele>
        <time>2014-04-10T09:11:46Z</time>
      </trkpt>
      <trkpt lat="43.75343" lon="3.55876">
        <ele>275.07</ele>
        <time>2014-04-10T09:11:58Z</time>
      </trkpt>
      <trkpt lat="43.75346" lon="3.55875">
        <ele>273.63</ele>
        <time>2014-04-10T09:12:09Z</time>
      </trkpt>
      <trkpt lat="43.75345" lon="3.55876">
        <ele>273.63</ele>
        <time>2014-04-10T09:12:20Z</time>
      </trkpt>
      <trkpt lat="43.75345" lon="3.55877">
        <ele>274.11</ele>
        <time>2014-04-10T09:12:45Z</time>
      </trkpt>
      <trkpt lat="43.75345" lon="3.5588">
        <ele>274.11</ele>
        <time>2014-04-10T09:13:13Z</time>
      </trkpt>
      <trkpt lat="43.75354" lon="3.55875">
        <ele>275.56</ele>
        <time>2014-04-10T09:13:28Z</time>
      </trkpt>
      <trkpt lat="43.75361" lon="3.55877">
        <ele>277.96</ele>
        <time>2014-04-10T09:13:43Z</time>
      </trkpt>
      <trkpt lat="43.75362" lon="3.55878">
        <ele>278.44</ele>
        <time>2014-04-10T09:14:04Z</time>
      </trkpt>
      <trkpt lat="43.75367" lon="3.55873">
        <ele>279.88</ele>
        <time>2014-04-10T09:14:19Z</time>
      </trkpt>
      <trkpt lat="43.75373" lon="3.5586">
        <ele>282.28</ele>
        <time>2014-04-10T09:14:35Z</time>
      </trkpt>
      <trkpt lat="43.7538" lon="3.55855">
        <ele>284.21</ele>
        <time>2014-04-10T09:14:50Z</time>
      </trkpt>
      <trkpt lat="43.75388" lon="3.55848">
        <ele>285.65</ele>
        <time>2014-04-10T09:15:04Z</time>
      </trkpt>
      <trkpt lat="43.75388" lon="3.55844">
        <ele>285.65</ele>
        <time>2014-04-10T09:15:36Z</time>
      </trkpt>
      <trkpt lat="43.75388" lon="3.55843">
        <ele>285.65</ele>
        <time>2014-04-10T09:16:14Z</time>
      </trkpt>
      <trkpt lat="43.75388" lon="3.55844">
        <ele>286.13</ele>
        <time>2014-04-10T09:16:57Z</time>
      </trkpt>
      <trkpt lat="43.75399" lon="3.55852">
        <ele>288.05</ele>
        <time>2014-04-10T09:17:10Z</time>
      </trkpt>
      <trkpt lat="43.75407" lon="3.55852">
        <ele>289.49</ele>
        <time>2014-04-10T09:17:24Z</time>
      </trkpt>
      <trkpt lat="43.75408" lon="3.55855">
        <ele>289.97</ele>
        <time>2014-04-10T09:17:48Z</time>
      </trkpt>
      <trkpt lat="43.75416" lon="3.55849">
        <ele>291.9</ele>
        <time>2014-04-10T09:18:03Z</time>
      </trkpt>
      <trkpt lat="43.75426" lon="3.55851">
        <ele>294.3</ele>
        <time>2014-04-10T09:18:19Z</time>
      </trkpt>
      <trkpt lat="43.75434" lon="3.5585">
        <ele>296.7</ele>
        <time>2014-04-10T09:18:31Z</time>
      </trkpt>
      <trkpt lat="43.75438" lon="3.55844">
        <ele>298.15</ele>
        <time>2014-04-10T09:18:43Z</time>
      </trkpt>
      <trkpt lat="43.75443" lon="3.55843">
        <ele>300.07</ele>
        <time>2014-04-10T09:18:58Z</time>
      </trkpt>
      <trkpt lat="43.75448" lon="3.55841">
        <ele>302.47</ele>
        <time>2014-04-10T09:19:11Z</time>
      </trkpt>
      <trkpt lat="43.75454" lon="3.55842">
        <ele>304.39</ele>
        <time>2014-04-10T09:19:23Z</time>
      </trkpt>
      <trkpt lat="43.75458" lon="3.55844">
        <ele>305.36</ele>
        <time>2014-04-10T09:19:35Z</time>
      </trkpt>
      <trkpt lat="43.75465" lon="3.55845">
        <ele>307.28</ele>
        <time>2014-04-10T09:19:50Z</time>
      </trkpt>
      <trkpt lat="43.75467" lon="3.55836">
        <ele>307.76</ele>
        <time>2014-04-10T09:20:03Z</time>
      </trkpt>
      <trkpt lat="43.75474" lon="3.55825">
        <ele>308.72</ele>
        <time>2014-04-10T09:20:17Z</time>
      </trkpt>
      <trkpt lat="43.75479" lon="3.55817">
        <ele>310.64</ele>
        <time>2014-04-10T09:20:29Z</time>
      </trkpt>
      <trkpt lat="43.75483" lon="3.55814">
        <ele>311.12</ele>
        <time>2014-04-10T09:20:35Z</time>
      </trkpt>
      <trkpt lat="43.75489" lon="3.55805">
        <ele>312.09</ele>
        <time>2014-04-10T09:20:48Z</time>
      </trkpt>
      <trkpt lat="43.75495" lon="3.558">
        <ele>312.57</ele>
        <time>2014-04-10T09:20:59Z</time>
      </trkpt>
      <trkpt lat="43.75501" lon="3.55798">
        <ele>314.01</ele>
        <time>2014-04-10T09:21:16Z</time>
      </trkpt>
      <trkpt lat="43.75509" lon="3.55795">
        <ele>315.93</ele>
        <time>2014-04-10T09:21:27Z</time>
      </trkpt>
      <trkpt lat="43.75513" lon="3.55786">
        <ele>316.89</ele>
        <time>2014-04-10T09:21:39Z</time>
      </trkpt>
      <trkpt lat="43.75517" lon="3.55784">
        <ele>318.33</ele>
        <time>2014-04-10T09:21:50Z</time>
      </trkpt>
      <trkpt lat="43.7552" lon="3.55785">
        <ele>319.3</ele>
        <time>2014-04-10T09:21:53Z</time>
      </trkpt>
      <trkpt lat="43.75524" lon="3.5578">
        <ele>320.74</ele>
        <time>2014-04-10T09:22:05Z</time>
      </trkpt>
      <trkpt lat="43.7553" lon="3.55775">
        <ele>321.22</ele>
        <time>2014-04-10T09:22:14Z</time>
      </trkpt>
      <trkpt lat="43.75535" lon="3.55769">
        <ele>320.74</ele>
        <time>2014-04-10T09:22:24Z</time>
      </trkpt>
      <trkpt lat="43.75539" lon="3.55758">
        <ele>321.22</ele>
        <time>2014-04-10T09:22:39Z</time>
      </trkpt>
      <trkpt lat="43.75543" lon="3.55752">
        <ele>321.22</ele>
        <time>2014-04-10T09:22:47Z</time>
      </trkpt>
      <trkpt lat="43.75543" lon="3.55748">
        <ele>320.74</ele>
        <time>2014-04-10T09:22:50Z</time>
      </trkpt>
      <trkpt lat="43.75547" lon="3.55734">
        <ele>321.22</ele>
        <time>2014-04-10T09:23:05Z</time>
      </trkpt>
      <trkpt lat="43.75557" lon="3.55729">
        <ele>321.7</ele>
        <time>2014-04-10T09:23:19Z</time>
      </trkpt>
      <trkpt lat="43.75566" lon="3.55734">
        <ele>322.18</ele>
        <time>2014-04-10T09:23:30Z</time>
      </trkpt>
      <trkpt lat="43.7557" lon="3.55735">
        <ele>322.18</ele>
        <time>2014-04-10T09:23:35Z</time>
      </trkpt>
      <trkpt lat="43.75579" lon="3.55734">
        <ele>322.66</ele>
        <time>2014-04-10T09:23:49Z</time>
      </trkpt>
      <trkpt lat="43.75588" lon="3.55732">
        <ele>323.62</ele>
        <time>2014-04-10T09:24:04Z</time>
      </trkpt>
      <trkpt lat="43.75593" lon="3.55728">
        <ele>324.58</ele>
        <time>2014-04-10T09:24:15Z</time>
      </trkpt>
      <trkpt lat="43.75596" lon="3.55718">
        <ele>324.58</ele>
        <time>2014-04-10T09:24:27Z</time>
      </trkpt>
      <trkpt lat="43.75601" lon="3.55713">
        <ele>326.5</ele>
        <time>2014-04-10T09:24:40Z</time>
      </trkpt>
      <trkpt lat="43.75608" lon="3.55709">
        <ele>328.43</ele>
        <time>2014-04-10T09:24:54Z</time>
      </trkpt>
      <trkpt lat="43.75612" lon="3.55704">
        <ele>331.31</ele>
        <time>2014-04-10T09:25:09Z</time>
      </trkpt>
      <trkpt lat="43.75618" lon="3.55698">
        <ele>333.23</ele>
        <time>2014-04-10T09:25:23Z</time>
      </trkpt>
      <trkpt lat="43.75626" lon="3.55691">
        <ele>334.68</ele>
        <time>2014-04-10T09:25:35Z</time>
      </trkpt>
      <trkpt lat="43.75627" lon="3.55691">
        <ele>334.68</ele>
        <time>2014-04-10T09:25:36Z</time>
      </trkpt>
      <trkpt lat="43.75636" lon="3.55689">
        <ele>336.12</ele>
        <time>2014-04-10T09:25:49Z</time>
      </trkpt>
      <trkpt lat="43.75642" lon="3.55691">
        <ele>338.04</ele>
        <time>2014-04-10T09:26:03Z</time>
      </trkpt>
      <trkpt lat="43.75649" lon="3.55691">
        <ele>337.56</ele>
        <time>2014-04-10T09:26:13Z</time>
      </trkpt>
      <trkpt lat="43.75652" lon="3.55681">
        <ele>339</ele>
        <time>2014-04-10T09:26:25Z</time>
      </trkpt>
      <trkpt lat="43.75659" lon="3.55672">
        <ele>340.44</ele>
        <time>2014-04-10T09:26:38Z</time>
      </trkpt>
      <trkpt lat="43.75667" lon="3.55667">
        <ele>341.89</ele>
        <time>2014-04-10T09:26:51Z</time>
      </trkpt>
      <trkpt lat="43.75674" lon="3.55661">
        <ele>343.81</ele>
        <time>2014-04-10T09:27:05Z</time>
      </trkpt>
      <trkpt lat="43.7568" lon="3.55659">
        <ele>344.29</ele>
        <time>2014-04-10T09:27:17Z</time>
      </trkpt>
      <trkpt lat="43.75685" lon="3.55658">
        <ele>345.73</ele>
        <time>2014-04-10T09:27:29Z</time>
      </trkpt>
      <trkpt lat="43.75683" lon="3.55657">
        <ele>345.73</ele>
        <time>2014-04-10T09:27:41Z</time>
      </trkpt>
      <trkpt lat="43.75683" lon="3.55657">
        <ele>345.73</ele>
        <time>2014-04-10T09:28:09Z</time>
      </trkpt>
      <trkpt lat="43.75683" lon="3.55657">
        <ele>346.69</ele>
        <time>2014-04-10T09:28:20Z</time>
      </trkpt>
      <trkpt lat="43.75685" lon="3.55658">
        <ele>346.21</ele>
        <time>2014-04-10T09:28:47Z</time>
      </trkpt>
      <trkpt lat="43.75683" lon="3.55655">
        <ele>345.73</ele>
        <time>2014-04-10T09:29:11Z</time>
      </trkpt>
      <trkpt lat="43.75686" lon="3.55641">
        <ele>344.29</ele>
        <time>2014-04-10T09:29:23Z</time>
      </trkpt>
      <trkpt lat="43.75688" lon="3.55626">
        <ele>343.33</ele>
        <time>2014-04-10T09:29:34Z</time>
      </trkpt>
      <trkpt lat="43.7569" lon="3.55617">
        <ele>343.33</ele>
        <time>2014-04-10T09:29:47Z</time>
      </trkpt>
      <trkpt lat="43.7569" lon="3.55614">
        <ele>342.85</ele>
        <time>2014-04-10T09:29:56Z</time>
      </trkpt>
      <trkpt lat="43.75689" lon="3.55597">
        <ele>341.41</ele>
        <time>2014-04-10T09:30:09Z</time>
      </trkpt>
      <trkpt lat="43.75689" lon="3.55595">
        <ele>341.41</ele>
        <time>2014-04-10T09:30:11Z</time>
      </trkpt>
      <trkpt lat="43.75689" lon="3.55591">
        <ele>341.41</ele>
        <time>2014-04-10T09:30:14Z</time>
      </trkpt>
      <trkpt lat="43.75689" lon="3.55584">
        <ele>341.41</ele>
        <time>2014-04-10T09:30:18Z</time>
      </trkpt>
      <trkpt lat="43.75689" lon="3.55575">
        <ele>340.44</ele>
        <time>2014-04-10T09:30:25Z</time>
      </trkpt>
      <trkpt lat="43.75687" lon="3.55568">
        <ele>339.96</ele>
        <time>2014-04-10T09:30:32Z</time>
      </trkpt>
      <trkpt lat="43.75689" lon="3.55553">
        <ele>337.08</ele>
        <time>2014-04-10T09:30:45Z</time>
      </trkpt>
      <trkpt lat="43.75689" lon="3.55539">
        <ele>335.64</ele>
        <time>2014-04-10T09:30:57Z</time>
      </trkpt>
      <trkpt lat="43.75688" lon="3.55536">
        <ele>335.16</ele>
        <time>2014-04-10T09:31:01Z</time>
      </trkpt>
      <trkpt lat="43.75685" lon="3.55517">
        <ele>334.68</ele>
        <time>2014-04-10T09:31:15Z</time>
      </trkpt>
      <trkpt lat="43.75681" lon="3.55514">
        <ele>334.68</ele>
        <time>2014-04-10T09:31:20Z</time>
      </trkpt>
      <trkpt lat="43.75672" lon="3.55504">
        <ele>335.16</ele>
        <time>2014-04-10T09:31:34Z</time>
      </trkpt>
      <trkpt lat="43.75672" lon="3.55499">
        <ele>334.68</ele>
        <time>2014-04-10T09:31:38Z</time>
      </trkpt>
      <trkpt lat="43.75677" lon="3.55485">
        <ele>333.23</ele>
        <time>2014-04-10T09:31:49Z</time>
      </trkpt>
      <trkpt lat="43.75679" lon="3.55475">
        <ele>332.75</ele>
        <time>2014-04-10T09:32:02Z</time>
      </trkpt>
      <trkpt lat="43.75679" lon="3.55474">
        <ele>332.75</ele>
        <time>2014-04-10T09:32:03Z</time>
      </trkpt>
      <trkpt lat="43.7568" lon="3.55466">
        <ele>331.79</ele>
        <time>2014-04-10T09:32:08Z</time>
      </trkpt>
      <trkpt lat="43.7568" lon="3.55452">
        <ele>328.91</ele>
        <time>2014-04-10T09:32:20Z</time>
      </trkpt>
      <trkpt lat="43.7568" lon="3.55451">
        <ele>328.91</ele>
        <time>2014-04-10T09:32:21Z</time>
      </trkpt>
      <trkpt lat="43.75683" lon="3.55438">
        <ele>326.99</ele>
        <time>2014-04-10T09:32:33Z</time>
      </trkpt>
      <trkpt lat="43.75683" lon="3.55429">
        <ele>325.06</ele>
        <time>2014-04-10T09:32:41Z</time>
      </trkpt>
      <trkpt lat="43.75682" lon="3.55411">
        <ele>324.58</ele>
        <time>2014-04-10T09:32:53Z</time>
      </trkpt>
      <trkpt lat="43.75681" lon="3.55408">
        <ele>324.1</ele>
        <time>2014-04-10T09:32:57Z</time>
      </trkpt>
      <trkpt lat="43.75679" lon="3.55403">
        <ele>323.62</ele>
        <time>2014-04-10T09:33:12Z</time>
      </trkpt>
      <trkpt lat="43.75678" lon="3.55395">
        <ele>323.62</ele>
        <time>2014-04-10T09:33:31Z</time>
      </trkpt>
      <trkpt lat="43.75678" lon="3.55381">
        <ele>322.18</ele>
        <time>2014-04-10T09:33:41Z</time>
      </trkpt>
      <trkpt lat="43.75675" lon="3.55366">
        <ele>321.22</ele>
        <time>2014-04-10T09:33:55Z</time>
      </trkpt>
      <trkpt lat="43.75668" lon="3.55356">
        <ele>321.22</ele>
        <time>2014-04-10T09:34:10Z</time>
      </trkpt>
      <trkpt lat="43.75651" lon="3.55352">
        <ele>323.62</ele>
        <time>2014-04-10T09:34:26Z</time>
      </trkpt>
      <trkpt lat="43.75638" lon="3.55354">
        <ele>324.1</ele>
        <time>2014-04-10T09:34:42Z</time>
      </trkpt>
      <trkpt lat="43.75623" lon="3.55355">
        <ele>324.1</ele>
        <time>2014-04-10T09:35:01Z</time>
      </trkpt>
      <trkpt lat="43.75619" lon="3.55356">
        <ele>323.14</ele>
        <time>2014-04-10T09:35:05Z</time>
      </trkpt>
      <trkpt lat="43.75601" lon="3.5535">
        <ele>322.66</ele>
        <time>2014-04-10T09:35:19Z</time>
      </trkpt>
      <trkpt lat="43.75587" lon="3.5535">
        <ele>324.58</ele>
        <time>2014-04-10T09:35:33Z</time>
      </trkpt>
      <trkpt lat="43.75578" lon="3.55352">
        <ele>326.5</ele>
        <time>2014-04-10T09:35:51Z</time>
      </trkpt>
      <trkpt lat="43.75564" lon="3.5536">
        <ele>328.43</ele>
        <time>2014-04-10T09:36:09Z</time>
      </trkpt>
      <trkpt lat="43.75555" lon="3.55374">
        <ele>329.39</ele>
        <time>2014-04-10T09:36:25Z</time>
      </trkpt>
      <trkpt lat="43.75549" lon="3.55377">
        <ele>329.87</ele>
        <time>2014-04-10T09:36:30Z</time>
      </trkpt>
      <trkpt lat="43.75538" lon="3.55382">
        <ele>330.35</ele>
        <time>2014-04-10T09:36:45Z</time>
      </trkpt>
      <trkpt lat="43.75528" lon="3.55382">
        <ele>332.75</ele>
        <time>2014-04-10T09:37:00Z</time>
      </trkpt>
      <trkpt lat="43.75521" lon="3.55382">
        <ele>332.27</ele>
        <time>2014-04-10T09:37:12Z</time>
      </trkpt>
      <trkpt lat="43.75507" lon="3.55383">
        <ele>332.27</ele>
        <time>2014-04-10T09:37:27Z</time>
      </trkpt>
      <trkpt lat="43.75506" lon="3.55383">
        <ele>332.27</ele>
        <time>2014-04-10T09:37:28Z</time>
      </trkpt>
      <trkpt lat="43.75497" lon="3.5539">
        <ele>332.75</ele>
        <time>2014-04-10T09:37:43Z</time>
      </trkpt>
      <trkpt lat="43.75485" lon="3.55399">
        <ele>331.79</ele>
        <time>2014-04-10T09:37:58Z</time>
      </trkpt>
      <trkpt lat="43.75472" lon="3.554">
        <ele>332.75</ele>
        <time>2014-04-10T09:38:11Z</time>
      </trkpt>
      <trkpt lat="43.75468" lon="3.55399">
        <ele>333.71</ele>
        <time>2014-04-10T09:38:16Z</time>
      </trkpt>
      <trkpt lat="43.75456" lon="3.55394">
        <ele>331.79</ele>
        <time>2014-04-10T09:38:29Z</time>
      </trkpt>
      <trkpt lat="43.75446" lon="3.55387">
        <ele>331.31</ele>
        <time>2014-04-10T09:38:40Z</time>
      </trkpt>
      <trkpt lat="43.75442" lon="3.55383">
        <ele>331.31</ele>
        <time>2014-04-10T09:38:45Z</time>
      </trkpt>
      <trkpt lat="43.75435" lon="3.55377">
        <ele>330.35</ele>
        <time>2014-04-10T09:38:56Z</time>
      </trkpt>
      <trkpt lat="43.75422" lon="3.55371">
        <ele>328.43</ele>
        <time>2014-04-10T09:39:10Z</time>
      </trkpt>
      <trkpt lat="43.75406" lon="3.55365">
        <ele>328.91</ele>
        <time>2014-04-10T09:39:23Z</time>
      </trkpt>
      <trkpt lat="43.75388" lon="3.55364">
        <ele>326.99</ele>
        <time>2014-04-10T09:39:39Z</time>
      </trkpt>
      <trkpt lat="43.7538" lon="3.55359">
        <ele>326.5</ele>
        <time>2014-04-10T09:39:49Z</time>
      </trkpt>
      <trkpt lat="43.75368" lon="3.55344">
        <ele>325.54</ele>
        <time>2014-04-10T09:40:03Z</time>
      </trkpt>
      <trkpt lat="43.75364" lon="3.5533">
        <ele>323.62</ele>
        <time>2014-04-10T09:40:17Z</time>
      </trkpt>
      <trkpt lat="43.75363" lon="3.55324">
        <ele>322.18</ele>
        <time>2014-04-10T09:40:32Z</time>
      </trkpt>
      <trkpt lat="43.75361" lon="3.55317">
        <ele>320.74</ele>
        <time>2014-04-10T09:40:46Z</time>
      </trkpt>
      <trkpt lat="43.75356" lon="3.55315">
        <ele>319.3</ele>
        <time>2014-04-10T09:41:00Z</time>
      </trkpt>
      <trkpt lat="43.75354" lon="3.55308">
        <ele>317.37</ele>
        <time>2014-04-10T09:41:13Z</time>
      </trkpt>
      <trkpt lat="43.7535" lon="3.55301">
        <ele>314.97</ele>
        <time>2014-04-10T09:41:25Z</time>
      </trkpt>
      <trkpt lat="43.75348" lon="3.55291">
        <ele>312.57</ele>
        <time>2014-04-10T09:41:37Z</time>
      </trkpt>
      <trkpt lat="43.75345" lon="3.55282">
        <ele>311.12</ele>
        <time>2014-04-10T09:41:47Z</time>
      </trkpt>
      <trkpt lat="43.75339" lon="3.55258">
        <ele>308.72</ele>
        <time>2014-04-10T09:42:02Z</time>
      </trkpt>
      <trkpt lat="43.75339" lon="3.55256">
        <ele>308.72</ele>
        <time>2014-04-10T09:42:03Z</time>
      </trkpt>
      <trkpt lat="43.75329" lon="3.55243">
        <ele>306.32</ele>
        <time>2014-04-10T09:42:16Z</time>
      </trkpt>
      <trkpt lat="43.7533" lon="3.55234">
        <ele>306.32</ele>
        <time>2014-04-10T09:42:22Z</time>
      </trkpt>
      <trkpt lat="43.75325" lon="3.55228">
        <ele>304.88</ele>
        <time>2014-04-10T09:42:30Z</time>
      </trkpt>
      <trkpt lat="43.75313" lon="3.55218">
        <ele>304.88</ele>
        <time>2014-04-10T09:42:42Z</time>
      </trkpt>
      <trkpt lat="43.75308" lon="3.55217">
        <ele>304.39</ele>
        <time>2014-04-10T09:42:47Z</time>
      </trkpt>
      <trkpt lat="43.75303" lon="3.55214">
        <ele>304.39</ele>
        <time>2014-04-10T09:42:53Z</time>
      </trkpt>
      <trkpt lat="43.75292" lon="3.55211">
        <ele>306.32</ele>
        <time>2014-04-10T09:43:06Z</time>
      </trkpt>
      <trkpt lat="43.75282" lon="3.55207">
        <ele>308.24</ele>
        <time>2014-04-10T09:43:19Z</time>
      </trkpt>
      <trkpt lat="43.75274" lon="3.55212">
        <ele>309.68</ele>
        <time>2014-04-10T09:43:32Z</time>
      </trkpt>
      <trkpt lat="43.75267" lon="3.55219">
        <ele>310.64</ele>
        <time>2014-04-10T09:43:46Z</time>
      </trkpt>
      <trkpt lat="43.75265" lon="3.55227">
        <ele>310.16</ele>
        <time>2014-04-10T09:43:57Z</time>
      </trkpt>
      <trkpt lat="43.75261" lon="3.55233">
        <ele>310.16</ele>
        <time>2014-04-10T09:44:06Z</time>
      </trkpt>
      <trkpt lat="43.75256" lon="3.55239">
        <ele>310.16</ele>
        <time>2014-04-10T09:44:12Z</time>
      </trkpt>
      <trkpt lat="43.75251" lon="3.55245">
        <ele>310.16</ele>
        <time>2014-04-10T09:44:19Z</time>
      </trkpt>
      <trkpt lat="43.75235" lon="3.5525">
        <ele>310.16</ele>
        <time>2014-04-10T09:44:33Z</time>
      </trkpt>
      <trkpt lat="43.75231" lon="3.5525">
        <ele>310.16</ele>
        <time>2014-04-10T09:44:49Z</time>
      </trkpt>
      <trkpt lat="43.7523" lon="3.5525">
        <ele>310.16</ele>
        <time>2014-04-10T09:44:50Z</time>
      </trkpt>
      <trkpt lat="43.75229" lon="3.55252">
        <ele>309.68</ele>
        <time>2014-04-10T09:44:53Z</time>
      </trkpt>
      <trkpt lat="43.75216" lon="3.55249">
        <ele>310.16</ele>
        <time>2014-04-10T09:45:05Z</time>
      </trkpt>
      <trkpt lat="43.75207" lon="3.55251">
        <ele>310.16</ele>
        <time>2014-04-10T09:45:13Z</time>
      </trkpt>
      <trkpt lat="43.75198" lon="3.55262">
        <ele>307.28</ele>
        <time>2014-04-10T09:45:25Z</time>
      </trkpt>
      <trkpt lat="43.7519" lon="3.55267">
        <ele>308.24</ele>
        <time>2014-04-10T09:45:32Z</time>
      </trkpt>
      <trkpt lat="43.75181" lon="3.55269">
        <ele>309.68</ele>
        <time>2014-04-10T09:45:47Z</time>
      </trkpt>
      <trkpt lat="43.75181" lon="3.55269">
        <ele>309.68</ele>
        <time>2014-04-10T09:46:00Z</time>
      </trkpt>
      <trkpt lat="43.75182" lon="3.55271">
        <ele>309.68</ele>
        <time>2014-04-10T09:46:25Z</time>
      </trkpt>
      <trkpt lat="43.75176" lon="3.55269">
        <ele>309.68</ele>
        <time>2014-04-10T09:46:46Z</time>
      </trkpt>
      <trkpt lat="43.75169" lon="3.5527">
        <ele>310.64</ele>
        <time>2014-04-10T09:46:59Z</time>
      </trkpt>
      <trkpt lat="43.75165" lon="3.55269">
        <ele>311.12</ele>
        <time>2014-04-10T09:47:04Z</time>
      </trkpt>
      <trkpt lat="43.75161" lon="3.55267">
        <ele>310.16</ele>
        <time>2014-04-10T09:47:09Z</time>
      </trkpt>
      <trkpt lat="43.75153" lon="3.55266">
        <ele>309.2</ele>
        <time>2014-04-10T09:47:20Z</time>
      </trkpt>
      <trkpt lat="43.75149" lon="3.55264">
        <ele>310.16</ele>
        <time>2014-04-10T09:47:32Z</time>
      </trkpt>
      <trkpt lat="43.75147" lon="3.5526">
        <ele>309.68</ele>
        <time>2014-04-10T09:47:46Z</time>
      </trkpt>
      <trkpt lat="43.75145" lon="3.55257">
        <ele>309.68</ele>
        <time>2014-04-10T09:47:49Z</time>
      </trkpt>
      <trkpt lat="43.75138" lon="3.55254">
        <ele>309.2</ele>
        <time>2014-04-10T09:47:55Z</time>
      </trkpt>
      <trkpt lat="43.75126" lon="3.55244">
        <ele>308.24</ele>
        <time>2014-04-10T09:48:07Z</time>
      </trkpt>
      <trkpt lat="43.75125" lon="3.55243">
        <ele>308.72</ele>
        <time>2014-04-10T09:48:08Z</time>
      </trkpt>
      <trkpt lat="43.7512" lon="3.55242">
        <ele>308.72</ele>
        <time>2014-04-10T09:48:13Z</time>
      </trkpt>
      <trkpt lat="43.75115" lon="3.55241">
        <ele>308.72</ele>
        <time>2014-04-10T09:48:18Z</time>
      </trkpt>
      <trkpt lat="43.7511" lon="3.55243">
        <ele>308.72</ele>
        <time>2014-04-10T09:48:22Z</time>
      </trkpt>
      <trkpt lat="43.75101" lon="3.55237">
        <ele>309.2</ele>
        <time>2014-04-10T09:48:33Z</time>
      </trkpt>
      <trkpt lat="43.75095" lon="3.55224">
        <ele>307.76</ele>
        <time>2014-04-10T09:48:46Z</time>
      </trkpt>
      <trkpt lat="43.75095" lon="3.55221">
        <ele>307.28</ele>
        <time>2014-04-10T09:48:48Z</time>
      </trkpt>
      <trkpt lat="43.75094" lon="3.55207">
        <ele>305.84</ele>
        <time>2014-04-10T09:49:04Z</time>
      </trkpt>
      <trkpt lat="43.75097" lon="3.55207">
        <ele>305.36</ele>
        <time>2014-04-10T09:49:23Z</time>
      </trkpt>
      <trkpt lat="43.75097" lon="3.552">
        <ele>304.39</ele>
        <time>2014-04-10T09:49:43Z</time>
      </trkpt>
      <trkpt lat="43.75098" lon="3.55198">
        <ele>303.91</ele>
        <time>2014-04-10T09:49:45Z</time>
      </trkpt>
      <trkpt lat="43.75099" lon="3.55191">
        <ele>302.95</ele>
        <time>2014-04-10T09:49:49Z</time>
      </trkpt>
      <trkpt lat="43.75099" lon="3.55184">
        <ele>301.99</ele>
        <time>2014-04-10T09:49:54Z</time>
      </trkpt>
      <trkpt lat="43.751" lon="3.55176">
        <ele>301.51</ele>
        <time>2014-04-10T09:49:59Z</time>
      </trkpt>
      <trkpt lat="43.75099" lon="3.55171">
        <ele>301.03</ele>
        <time>2014-04-10T09:50:04Z</time>
      </trkpt>
      <trkpt lat="43.75084" lon="3.55159">
        <ele>299.59</ele>
        <time>2014-04-10T09:50:19Z</time>
      </trkpt>
      <trkpt lat="43.7508" lon="3.55153">
        <ele>299.11</ele>
        <time>2014-04-10T09:50:30Z</time>
      </trkpt>
      <trkpt lat="43.75071" lon="3.55139">
        <ele>298.15</ele>
        <time>2014-04-10T09:50:45Z</time>
      </trkpt>
      <trkpt lat="43.7507" lon="3.55136">
        <ele>298.15</ele>
        <time>2014-04-10T09:50:58Z</time>
      </trkpt>
      <trkpt lat="43.75066" lon="3.55127">
        <ele>296.7</ele>
        <time>2014-04-10T09:51:10Z</time>
      </trkpt>
      <trkpt lat="43.75065" lon="3.55124">
        <ele>296.7</ele>
        <time>2014-04-10T09:51:24Z</time>
      </trkpt>
      <trkpt lat="43.75065" lon="3.55124">
        <ele>297.18</ele>
        <time>2014-04-10T09:51:25Z</time>
      </trkpt>
      <trkpt lat="43.75064" lon="3.55119">
        <ele>295.26</ele>
        <time>2014-04-10T09:51:36Z</time>
      </trkpt>
      <trkpt lat="43.75065" lon="3.55114">
        <ele>294.78</ele>
        <time>2014-04-10T09:51:51Z</time>
      </trkpt>
      <trkpt lat="43.75062" lon="3.55115">
        <ele>294.3</ele>
        <time>2014-04-10T09:52:04Z</time>
      </trkpt>
      <trkpt lat="43.75065" lon="3.55115">
        <ele>294.3</ele>
        <time>2014-04-10T09:52:23Z</time>
      </trkpt>
      <trkpt lat="43.75068" lon="3.55114">
        <ele>296.22</ele>
        <time>2014-04-10T09:52:33Z</time>
      </trkpt>
      <trkpt lat="43.75072" lon="3.55113">
        <ele>298.15</ele>
        <time>2014-04-10T09:52:44Z</time>
      </trkpt>
      <trkpt lat="43.75072" lon="3.55113">
        <ele>299.11</ele>
        <time>2014-04-10T09:52:54Z</time>
      </trkpt>
      <trkpt lat="43.75076" lon="3.55108">
        <ele>299.11</ele>
        <time>2014-04-10T09:53:08Z</time>
      </trkpt>
      <trkpt lat="43.75074" lon="3.55111">
        <ele>299.11</ele>
        <time>2014-04-10T09:53:16Z</time>
      </trkpt>
      <trkpt lat="43.75075" lon="3.55112">
        <ele>298.63</ele>
        <time>2014-04-10T09:53:28Z</time>
      </trkpt>
      <trkpt lat="43.75077" lon="3.55113">
        <ele>300.55</ele>
        <time>2014-04-10T09:53:38Z</time>
      </trkpt>
      <trkpt lat="43.75074" lon="3.55115">
        <ele>301.51</ele>
        <time>2014-04-10T09:53:49Z</time>
      </trkpt>
      <trkpt lat="43.75069" lon="3.55112">
        <ele>301.51</ele>
        <time>2014-04-10T09:54:08Z</time>
      </trkpt>
      <trkpt lat="43.75067" lon="3.55113">
        <ele>301.03</ele>
        <time>2014-04-10T09:54:29Z</time>
      </trkpt>
      <trkpt lat="43.75065" lon="3.55113">
        <ele>301.51</ele>
        <time>2014-04-10T09:54:54Z</time>
      </trkpt>
      <trkpt lat="43.75054" lon="3.55116">
        <ele>301.03</ele>
        <time>2014-04-10T09:55:10Z</time>
      </trkpt>
      <trkpt lat="43.75054" lon="3.55116">
        <ele>299.59</ele>
        <time>2014-04-10T09:55:18Z</time>
      </trkpt>
      <trkpt lat="43.75059" lon="3.55116">
        <ele>299.11</ele>
        <time>2014-04-10T09:55:28Z</time>
      </trkpt>
      <trkpt lat="43.75066" lon="3.55114">
        <ele>298.63</ele>
        <time>2014-04-10T09:55:41Z</time>
      </trkpt>
      <trkpt lat="43.7507" lon="3.55111">
        <ele>299.11</ele>
        <time>2014-04-10T09:56:07Z</time>
      </trkpt>
      <trkpt lat="43.75073" lon="3.55111">
        <ele>298.63</ele>
        <time>2014-04-10T09:56:28Z</time>
      </trkpt>
      <trkpt lat="43.75074" lon="3.55114">
        <ele>298.63</ele>
        <time>2014-04-10T09:56:57Z</time>
      </trkpt>
      <trkpt lat="43.75073" lon="3.55115">
        <ele>297.67</ele>
        <time>2014-04-10T09:57:20Z</time>
      </trkpt>
      <trkpt lat="43.7507" lon="3.55112">
        <ele>295.74</ele>
        <time>2014-04-10T09:57:31Z</time>
      </trkpt>
      <trkpt lat="43.75065" lon="3.55113">
        <ele>293.82</ele>
        <time>2014-04-10T09:57:42Z</time>
      </trkpt>
      <trkpt lat="43.75063" lon="3.55113">
        <ele>293.82</ele>
        <time>2014-04-10T09:57:56Z</time>
      </trkpt>
      <trkpt lat="43.75064" lon="3.55114">
        <ele>293.82</ele>
        <time>2014-04-10T09:58:13Z</time>
      </trkpt>
      <trkpt lat="43.75063" lon="3.55113">
        <ele>293.82</ele>
        <time>2014-04-10T09:58:33Z</time>
      </trkpt>
      <trkpt lat="43.75064" lon="3.55113">
        <ele>293.82</ele>
        <time>2014-04-10T09:58:46Z</time>
      </trkpt>
      <trkpt lat="43.75063" lon="3.55114">
        <ele>293.34</ele>
        <time>2014-04-10T09:59:03Z</time>
      </trkpt>
      <trkpt lat="43.75062" lon="3.55115">
        <ele>293.82</ele>
        <time>2014-04-10T09:59:18Z</time>
      </trkpt>
      <trkpt lat="43.75062" lon="3.55116">
        <ele>293.34</ele>
        <time>2014-04-10T09:59:41Z</time>
      </trkpt>
      <trkpt lat="43.75061" lon="3.55114">
        <ele>293.34</ele>
        <time>2014-04-10T10:00:08Z</time>
      </trkpt>
      <trkpt lat="43.7506" lon="3.55114">
        <ele>293.34</ele>
        <time>2014-04-10T10:00:25Z</time>
      </trkpt>
      <trkpt lat="43.75063" lon="3.55114">
        <ele>293.34</ele>
        <time>2014-04-10T10:00:40Z</time>
      </trkpt>
      <trkpt lat="43.75066" lon="3.55113">
        <ele>293.34</ele>
        <time>2014-04-10T10:00:58Z</time>
      </trkpt>
      <trkpt lat="43.75069" lon="3.55112">
        <ele>293.34</ele>
        <time>2014-04-10T10:01:19Z</time>
      </trkpt>
      <trkpt lat="43.75072" lon="3.5511">
        <ele>293.34</ele>
        <time>2014-04-10T10:01:42Z</time>
      </trkpt>
      <trkpt lat="43.75071" lon="3.55108">
        <ele>292.86</ele>
        <time>2014-04-10T10:02:02Z</time>
      </trkpt>
      <trkpt lat="43.7507" lon="3.55109">
        <ele>293.34</ele>
        <time>2014-04-10T10:02:24Z</time>
      </trkpt>
      <trkpt lat="43.75068" lon="3.5511">
        <ele>293.34</ele>
        <time>2014-04-10T10:02:44Z</time>
      </trkpt>
      <trkpt lat="43.75071" lon="3.5511">
        <ele>292.86</ele>
        <time>2014-04-10T10:02:59Z</time>
      </trkpt>
      <trkpt lat="43.75071" lon="3.55104">
        <ele>291.9</ele>
        <time>2014-04-10T10:03:12Z</time>
      </trkpt>
      <trkpt lat="43.75066" lon="3.551">
        <ele>289.97</ele>
        <time>2014-04-10T10:03:22Z</time>
      </trkpt>
      <trkpt lat="43.75059" lon="3.551">
        <ele>289.49</ele>
        <time>2014-04-10T10:03:34Z</time>
      </trkpt>
      <trkpt lat="43.75052" lon="3.55093">
        <ele>289.97</ele>
        <time>2014-04-10T10:03:46Z</time>
      </trkpt>
      <trkpt lat="43.75045" lon="3.55085">
        <ele>289.97</ele>
        <time>2014-04-10T10:03:59Z</time>
      </trkpt>
      <trkpt lat="43.75045" lon="3.55079">
        <ele>289.97</ele>
        <time>2014-04-10T10:04:23Z</time>
      </trkpt>
      <trkpt lat="43.75041" lon="3.55071">
        <ele>290.46</ele>
        <time>2014-04-10T10:04:42Z</time>
      </trkpt>
      <trkpt lat="43.75033" lon="3.55063">
        <ele>287.57</ele>
        <time>2014-04-10T10:04:58Z</time>
      </trkpt>
      <trkpt lat="43.75024" lon="3.55055">
        <ele>288.05</ele>
        <time>2014-04-10T10:05:10Z</time>
      </trkpt>
      <trkpt lat="43.75017" lon="3.55042">
        <ele>287.57</ele>
        <time>2014-04-10T10:05:23Z</time>
      </trkpt>
      <trkpt lat="43.75008" lon="3.55032">
        <ele>286.61</ele>
        <time>2014-04-10T10:05:36Z</time>
      </trkpt>
      <trkpt lat="43.75004" lon="3.55028">
        <ele>286.13</ele>
        <time>2014-04-10T10:05:41Z</time>
      </trkpt>
      <trkpt lat="43.74995" lon="3.55023">
        <ele>284.21</ele>
        <time>2014-04-10T10:05:53Z</time>
      </trkpt>
      <trkpt lat="43.74995" lon="3.55022">
        <ele>284.21</ele>
        <time>2014-04-10T10:05:54Z</time>
      </trkpt>
      <trkpt lat="43.74995" lon="3.55016">
        <ele>283.73</ele>
        <time>2014-04-10T10:06:02Z</time>
      </trkpt>
      <trkpt lat="43.74995" lon="3.55">
        <ele>282.28</ele>
        <time>2014-04-10T10:06:15Z</time>
      </trkpt>
      <trkpt lat="43.75001" lon="3.54996">
        <ele>283.73</ele>
        <time>2014-04-10T10:06:27Z</time>
      </trkpt>
      <trkpt lat="43.75006" lon="3.54993">
        <ele>287.09</ele>
        <time>2014-04-10T10:06:37Z</time>
      </trkpt>
      <trkpt lat="43.75012" lon="3.54993">
        <ele>287.09</ele>
        <time>2014-04-10T10:06:49Z</time>
      </trkpt>
      <trkpt lat="43.75014" lon="3.54992">
        <ele>288.05</ele>
        <time>2014-04-10T10:06:54Z</time>
      </trkpt>
      <trkpt lat="43.75018" lon="3.54989">
        <ele>289.01</ele>
        <time>2014-04-10T10:07:09Z</time>
      </trkpt>
      <trkpt lat="43.75025" lon="3.54993">
        <ele>290.94</ele>
        <time>2014-04-10T10:07:25Z</time>
      </trkpt>
      <trkpt lat="43.75028" lon="3.54998">
        <ele>292.38</ele>
        <time>2014-04-10T10:07:36Z</time>
      </trkpt>
      <trkpt lat="43.75031" lon="3.55002">
        <ele>294.78</ele>
        <time>2014-04-10T10:07:49Z</time>
      </trkpt>
      <trkpt lat="43.75034" lon="3.55003">
        <ele>296.22</ele>
        <time>2014-04-10T10:08:01Z</time>
      </trkpt>
      <trkpt lat="43.75037" lon="3.55003">
        <ele>298.15</ele>
        <time>2014-04-10T10:08:16Z</time>
      </trkpt>
      <trkpt lat="43.75039" lon="3.55003">
        <ele>299.59</ele>
        <time>2014-04-10T10:08:22Z</time>
      </trkpt>
      <trkpt lat="43.75041" lon="3.55001">
        <ele>299.59</ele>
        <time>2014-04-10T10:08:25Z</time>
      </trkpt>
      <trkpt lat="43.75042" lon="3.54999">
        <ele>299.59</ele>
        <time>2014-04-10T10:08:30Z</time>
      </trkpt>
      <trkpt lat="43.75044" lon="3.54994">
        <ele>300.55</ele>
        <time>2014-04-10T10:08:40Z</time>
      </trkpt>
      <trkpt lat="43.75045" lon="3.54993">
        <ele>300.55</ele>
        <time>2014-04-10T10:08:50Z</time>
      </trkpt>
      <trkpt lat="43.75046" lon="3.5499">
        <ele>301.03</ele>
        <time>2014-04-10T10:09:01Z</time>
      </trkpt>
      <trkpt lat="43.75047" lon="3.54991">
        <ele>302.47</ele>
        <time>2014-04-10T10:09:12Z</time>
      </trkpt>
      <trkpt lat="43.75046" lon="3.54991">
        <ele>302.47</ele>
        <time>2014-04-10T10:09:13Z</time>
      </trkpt>
      <trkpt lat="43.75046" lon="3.54987">
        <ele>304.39</ele>
        <time>2014-04-10T10:09:23Z</time>
      </trkpt>
      <trkpt lat="43.75046" lon="3.54984">
        <ele>304.88</ele>
        <time>2014-04-10T10:09:36Z</time>
      </trkpt>
      <trkpt lat="43.75047" lon="3.54985">
        <ele>303.91</ele>
        <time>2014-04-10T10:09:52Z</time>
      </trkpt>
      <trkpt lat="43.7505" lon="3.54984">
        <ele>306.8</ele>
        <time>2014-04-10T10:10:03Z</time>
      </trkpt>
      <trkpt lat="43.7505" lon="3.54983">
        <ele>306.8</ele>
        <time>2014-04-10T10:10:16Z</time>
      </trkpt>
      <trkpt lat="43.75051" lon="3.54991">
        <ele>307.76</ele>
        <time>2014-04-10T10:10:26Z</time>
      </trkpt>
      <trkpt lat="43.75053" lon="3.55">
        <ele>310.64</ele>
        <time>2014-04-10T10:10:38Z</time>
      </trkpt>
      <trkpt lat="43.75054" lon="3.55004">
        <ele>310.64</ele>
        <time>2014-04-10T10:10:42Z</time>
      </trkpt>
      <trkpt lat="43.75057" lon="3.55008">
        <ele>312.09</ele>
        <time>2014-04-10T10:10:47Z</time>
      </trkpt>
      <trkpt lat="43.7506" lon="3.55012">
        <ele>314.01</ele>
        <time>2014-04-10T10:10:58Z</time>
      </trkpt>
      <trkpt lat="43.7506" lon="3.55012">
        <ele>314.49</ele>
        <time>2014-04-10T10:11:07Z</time>
      </trkpt>
      <trkpt lat="43.75063" lon="3.55017">
        <ele>314.97</ele>
        <time>2014-04-10T10:11:13Z</time>
      </trkpt>
      <trkpt lat="43.75068" lon="3.55021">
        <ele>317.85</ele>
        <time>2014-04-10T10:11:23Z</time>
      </trkpt>
      <trkpt lat="43.75072" lon="3.55021">
        <ele>318.33</ele>
        <time>2014-04-10T10:11:34Z</time>
      </trkpt>
      <trkpt lat="43.75073" lon="3.5502">
        <ele>318.33</ele>
        <time>2014-04-10T10:11:47Z</time>
      </trkpt>
      <trkpt lat="43.75079" lon="3.55018">
        <ele>316.89</ele>
        <time>2014-04-10T10:11:59Z</time>
      </trkpt>
      <trkpt lat="43.75084" lon="3.55018">
        <ele>317.85</ele>
        <time>2014-04-10T10:12:14Z</time>
      </trkpt>
      <trkpt lat="43.75086" lon="3.55018">
        <ele>318.81</ele>
        <time>2014-04-10T10:12:19Z</time>
      </trkpt>
      <trkpt lat="43.75092" lon="3.55016">
        <ele>320.74</ele>
        <time>2014-04-10T10:12:28Z</time>
      </trkpt>
      <trkpt lat="43.75096" lon="3.55017">
        <ele>323.14</ele>
        <time>2014-04-10T10:12:39Z</time>
      </trkpt>
      <trkpt lat="43.75096" lon="3.55017">
        <ele>323.62</ele>
        <time>2014-04-10T10:12:49Z</time>
      </trkpt>
      <trkpt lat="43.75098" lon="3.55018">
        <ele>323.62</ele>
        <time>2014-04-10T10:13:12Z</time>
      </trkpt>
      <trkpt lat="43.75102" lon="3.55017">
        <ele>324.58</ele>
        <time>2014-04-10T10:13:21Z</time>
      </trkpt>
      <trkpt lat="43.75109" lon="3.55011">
        <ele>325.54</ele>
        <time>2014-04-10T10:13:32Z</time>
      </trkpt>
      <trkpt lat="43.75113" lon="3.55012">
        <ele>326.99</ele>
        <time>2014-04-10T10:13:42Z</time>
      </trkpt>
      <trkpt lat="43.75115" lon="3.55012">
        <ele>328.43</ele>
        <time>2014-04-10T10:13:56Z</time>
      </trkpt>
      <trkpt lat="43.75116" lon="3.55011">
        <ele>327.47</ele>
        <time>2014-04-10T10:14:28Z</time>
      </trkpt>
      <trkpt lat="43.75121" lon="3.55008">
        <ele>328.43</ele>
        <time>2014-04-10T10:14:42Z</time>
      </trkpt>
      <trkpt lat="43.75124" lon="3.55016">
        <ele>331.31</ele>
        <time>2014-04-10T10:14:56Z</time>
      </trkpt>
      <trkpt lat="43.75123" lon="3.55017">
        <ele>332.27</ele>
        <time>2014-04-10T10:15:08Z</time>
      </trkpt>
      <trkpt lat="43.75122" lon="3.55018">
        <ele>331.79</ele>
        <time>2014-04-10T10:15:10Z</time>
      </trkpt>
      <trkpt lat="43.75119" lon="3.55025">
        <ele>331.31</ele>
        <time>2014-04-10T10:15:21Z</time>
      </trkpt>
      <trkpt lat="43.75123" lon="3.55019">
        <ele>331.31</ele>
        <time>2014-04-10T10:15:34Z</time>
      </trkpt>
      <trkpt lat="43.75127" lon="3.55017">
        <ele>333.23</ele>
        <time>2014-04-10T10:15:47Z</time>
      </trkpt>
      <trkpt lat="43.75133" lon="3.55016">
        <ele>336.12</ele>
        <time>2014-04-10T10:16:02Z</time>
      </trkpt>
      <trkpt lat="43.75132" lon="3.55016">
        <ele>336.12</ele>
        <time>2014-04-10T10:16:10Z</time>
      </trkpt>
      <trkpt lat="43.75135" lon="3.55018">
        <ele>338.04</ele>
        <time>2014-04-10T10:16:20Z</time>
      </trkpt>
      <trkpt lat="43.75137" lon="3.55022">
        <ele>339</ele>
        <time>2014-04-10T10:16:30Z</time>
      </trkpt>
      <trkpt lat="43.75139" lon="3.55024">
        <ele>339</ele>
        <time>2014-04-10T10:16:42Z</time>
      </trkpt>
      <trkpt lat="43.7514" lon="3.55026">
        <ele>340.92</ele>
        <time>2014-04-10T10:16:47Z</time>
      </trkpt>
      <trkpt lat="43.75141" lon="3.55028">
        <ele>342.37</ele>
        <time>2014-04-10T10:16:54Z</time>
      </trkpt>
      <trkpt lat="43.75142" lon="3.55031">
        <ele>343.33</ele>
        <time>2014-04-10T10:17:06Z</time>
      </trkpt>
      <trkpt lat="43.75143" lon="3.55032">
        <ele>343.81</ele>
        <time>2014-04-10T10:17:10Z</time>
      </trkpt>
      <trkpt lat="43.75146" lon="3.5503">
        <ele>344.77</ele>
        <time>2014-04-10T10:17:21Z</time>
      </trkpt>
      <trkpt lat="43.75148" lon="3.55028">
        <ele>347.65</ele>
        <time>2014-04-10T10:17:33Z</time>
      </trkpt>
      <trkpt lat="43.75152" lon="3.55024">
        <ele>349.1</ele>
        <time>2014-04-10T10:17:45Z</time>
      </trkpt>
      <trkpt lat="43.75154" lon="3.5502">
        <ele>350.06</ele>
        <time>2014-04-10T10:17:59Z</time>
      </trkpt>
      <trkpt lat="43.75154" lon="3.5502">
        <ele>350.06</ele>
        <time>2014-04-10T10:18:14Z</time>
      </trkpt>
      <trkpt lat="43.75156" lon="3.55022">
        <ele>350.54</ele>
        <time>2014-04-10T10:18:18Z</time>
      </trkpt>
      <trkpt lat="43.75161" lon="3.55018">
        <ele>352.46</ele>
        <time>2014-04-10T10:18:27Z</time>
      </trkpt>
      <trkpt lat="43.75162" lon="3.55015">
        <ele>352.46</ele>
        <time>2014-04-10T10:18:39Z</time>
      </trkpt>
      <trkpt lat="43.75168" lon="3.5501">
        <ele>353.9</ele>
        <time>2014-04-10T10:18:51Z</time>
      </trkpt>
      <trkpt lat="43.75172" lon="3.55013">
        <ele>354.86</ele>
        <time>2014-04-10T10:19:04Z</time>
      </trkpt>
      <trkpt lat="43.75175" lon="3.5501">
        <ele>354.86</ele>
        <time>2014-04-10T10:19:21Z</time>
      </trkpt>
      <trkpt lat="43.7518" lon="3.55009">
        <ele>355.83</ele>
        <time>2014-04-10T10:19:31Z</time>
      </trkpt>
      <trkpt lat="43.75186" lon="3.55007">
        <ele>356.79</ele>
        <time>2014-04-10T10:19:42Z</time>
      </trkpt>
      <trkpt lat="43.75187" lon="3.55006">
        <ele>356.79</ele>
        <time>2014-04-10T10:20:02Z</time>
      </trkpt>
      <trkpt lat="43.75192" lon="3.54995">
        <ele>358.71</ele>
        <time>2014-04-10T10:20:15Z</time>
      </trkpt>
      <trkpt lat="43.752" lon="3.54987">
        <ele>361.11</ele>
        <time>2014-04-10T10:20:29Z</time>
      </trkpt>
      <trkpt lat="43.75208" lon="3.54985">
        <ele>362.55</ele>
        <time>2014-04-10T10:20:43Z</time>
      </trkpt>
      <trkpt lat="43.75216" lon="3.54984">
        <ele>363.52</ele>
        <time>2014-04-10T10:20:59Z</time>
      </trkpt>
      <trkpt lat="43.75217" lon="3.54985">
        <ele>363.04</ele>
        <time>2014-04-10T10:21:22Z</time>
      </trkpt>
      <trkpt lat="43.75219" lon="3.54983">
        <ele>363.52</ele>
        <time>2014-04-10T10:21:44Z</time>
      </trkpt>
      <trkpt lat="43.7522" lon="3.54976">
        <ele>364.48</ele>
        <time>2014-04-10T10:21:51Z</time>
      </trkpt>
      <trkpt lat="43.75224" lon="3.54969">
        <ele>365.92</ele>
        <time>2014-04-10T10:22:03Z</time>
      </trkpt>
      <trkpt lat="43.75228" lon="3.54963">
        <ele>366.88</ele>
        <time>2014-04-10T10:22:15Z</time>
      </trkpt>
      <trkpt lat="43.75231" lon="3.54958">
        <ele>367.36</ele>
        <time>2014-04-10T10:22:22Z</time>
      </trkpt>
      <trkpt lat="43.75235" lon="3.54959">
        <ele>368.32</ele>
        <time>2014-04-10T10:22:30Z</time>
      </trkpt>
      <trkpt lat="43.75241" lon="3.54958">
        <ele>368.8</ele>
        <time>2014-04-10T10:22:42Z</time>
      </trkpt>
      <trkpt lat="43.75248" lon="3.54953">
        <ele>370.24</ele>
        <time>2014-04-10T10:22:55Z</time>
      </trkpt>
      <trkpt lat="43.75249" lon="3.54953">
        <ele>369.76</ele>
        <time>2014-04-10T10:22:56Z</time>
      </trkpt>
      <trkpt lat="43.75254" lon="3.54947">
        <ele>372.65</ele>
        <time>2014-04-10T10:23:11Z</time>
      </trkpt>
      <trkpt lat="43.75257" lon="3.54949">
        <ele>374.09</ele>
        <time>2014-04-10T10:23:23Z</time>
      </trkpt>
      <trkpt lat="43.75262" lon="3.54944">
        <ele>376.97</ele>
        <time>2014-04-10T10:23:35Z</time>
      </trkpt>
      <trkpt lat="43.75264" lon="3.54943">
        <ele>377.94</ele>
        <time>2014-04-10T10:23:40Z</time>
      </trkpt>
      <trkpt lat="43.75269" lon="3.54937">
        <ele>378.42</ele>
        <time>2014-04-10T10:23:51Z</time>
      </trkpt>
      <trkpt lat="43.75276" lon="3.54933">
        <ele>380.34</ele>
        <time>2014-04-10T10:24:05Z</time>
      </trkpt>
      <trkpt lat="43.75281" lon="3.54933">
        <ele>382.74</ele>
        <time>2014-04-10T10:24:18Z</time>
      </trkpt>
      <trkpt lat="43.75288" lon="3.54931">
        <ele>384.66</ele>
        <time>2014-04-10T10:24:32Z</time>
      </trkpt>
      <trkpt lat="43.75293" lon="3.54929">
        <ele>386.59</ele>
        <time>2014-04-10T10:24:43Z</time>
      </trkpt>
      <trkpt lat="43.75298" lon="3.54927">
        <ele>388.51</ele>
        <time>2014-04-10T10:24:58Z</time>
      </trkpt>
      <trkpt lat="43.75302" lon="3.54926">
        <ele>391.39</ele>
        <time>2014-04-10T10:25:14Z</time>
      </trkpt>
      <trkpt lat="43.75305" lon="3.54925">
        <ele>393.8</ele>
        <time>2014-04-10T10:25:29Z</time>
      </trkpt>
      <trkpt lat="43.75303" lon="3.54929">
        <ele>394.28</ele>
        <time>2014-04-10T10:25:46Z</time>
      </trkpt>
      <trkpt lat="43.75305" lon="3.54928">
        <ele>395.72</ele>
        <time>2014-04-10T10:25:56Z</time>
      </trkpt>
      <trkpt lat="43.75305" lon="3.54923">
        <ele>398.12</ele>
        <time>2014-04-10T10:26:13Z</time>
      </trkpt>
      <trkpt lat="43.75308" lon="3.54919">
        <ele>399.57</ele>
        <time>2014-04-10T10:26:36Z</time>
      </trkpt>
      <trkpt lat="43.75314" lon="3.54914">
        <ele>402.45</ele>
        <time>2014-04-10T10:26:53Z</time>
      </trkpt>
      <trkpt lat="43.75315" lon="3.54913">
        <ele>401.49</ele>
        <time>2014-04-10T10:27:10Z</time>
      </trkpt>
      <trkpt lat="43.7532" lon="3.54911">
        <ele>404.37</ele>
        <time>2014-04-10T10:27:20Z</time>
      </trkpt>
      <trkpt lat="43.75323" lon="3.54904">
        <ele>405.81</ele>
        <time>2014-04-10T10:27:31Z</time>
      </trkpt>
      <trkpt lat="43.75328" lon="3.54902">
        <ele>407.74</ele>
        <time>2014-04-10T10:27:44Z</time>
      </trkpt>
      <trkpt lat="43.75333" lon="3.54899">
        <ele>410.14</ele>
        <time>2014-04-10T10:27:57Z</time>
      </trkpt>
      <trkpt lat="43.75338" lon="3.54898">
        <ele>412.54</ele>
        <time>2014-04-10T10:28:11Z</time>
      </trkpt>
      <trkpt lat="43.75338" lon="3.54899">
        <ele>413.02</ele>
        <time>2014-04-10T10:28:23Z</time>
      </trkpt>
      <trkpt lat="43.75338" lon="3.54895">
        <ele>411.1</ele>
        <time>2014-04-10T10:28:40Z</time>
      </trkpt>
      <trkpt lat="43.75341" lon="3.5489">
        <ele>412.06</ele>
        <time>2014-04-10T10:28:50Z</time>
      </trkpt>
      <trkpt lat="43.75342" lon="3.54889">
        <ele>412.54</ele>
        <time>2014-04-10T10:29:04Z</time>
      </trkpt>
      <trkpt lat="43.75348" lon="3.54887">
        <ele>415.43</ele>
        <time>2014-04-10T10:29:17Z</time>
      </trkpt>
      <trkpt lat="43.75353" lon="3.54888">
        <ele>417.83</ele>
        <time>2014-04-10T10:29:29Z</time>
      </trkpt>
      <trkpt lat="43.75356" lon="3.54887">
        <ele>418.79</ele>
        <time>2014-04-10T10:29:42Z</time>
      </trkpt>
      <trkpt lat="43.75358" lon="3.54888">
        <ele>420.23</ele>
        <time>2014-04-10T10:29:53Z</time>
      </trkpt>
      <trkpt lat="43.75361" lon="3.54888">
        <ele>420.23</ele>
        <time>2014-04-10T10:30:08Z</time>
      </trkpt>
      <trkpt lat="43.75362" lon="3.5489">
        <ele>420.71</ele>
        <time>2014-04-10T10:30:25Z</time>
      </trkpt>
      <trkpt lat="43.75364" lon="3.54892">
        <ele>421.19</ele>
        <time>2014-04-10T10:30:49Z</time>
      </trkpt>
      <trkpt lat="43.75366" lon="3.54894">
        <ele>420.23</ele>
        <time>2014-04-10T10:31:18Z</time>
      </trkpt>
      <trkpt lat="43.75365" lon="3.54892">
        <ele>420.23</ele>
        <time>2014-04-10T10:31:36Z</time>
      </trkpt>
      <trkpt lat="43.75363" lon="3.54888">
        <ele>420.23</ele>
        <time>2014-04-10T10:32:18Z</time>
      </trkpt>
      <trkpt lat="43.75366" lon="3.54886">
        <ele>421.19</ele>
        <time>2014-04-10T10:32:42Z</time>
      </trkpt>
      <trkpt lat="43.75371" lon="3.54886">
        <ele>423.6</ele>
        <time>2014-04-10T10:32:58Z</time>
      </trkpt>
      <trkpt lat="43.75377" lon="3.54882">
        <ele>426</ele>
        <time>2014-04-10T10:33:13Z</time>
      </trkpt>
      <trkpt lat="43.75379" lon="3.54883">
        <ele>429.37</ele>
        <time>2014-04-10T10:33:18Z</time>
      </trkpt>
      <trkpt lat="43.75379" lon="3.54883">
        <ele>426.96</ele>
        <time>2014-04-10T10:33:19Z</time>
      </trkpt>
      <trkpt lat="43.75381" lon="3.54886">
        <ele>427.44</ele>
        <time>2014-04-10T10:33:31Z</time>
      </trkpt>
      <trkpt lat="43.75379" lon="3.54884">
        <ele>426.96</ele>
        <time>2014-04-10T10:33:45Z</time>
      </trkpt>
      <trkpt lat="43.7538" lon="3.5488">
        <ele>426</ele>
        <time>2014-04-10T10:33:53Z</time>
      </trkpt>
      <trkpt lat="43.75384" lon="3.54875">
        <ele>424.56</ele>
        <time>2014-04-10T10:34:05Z</time>
      </trkpt>
      <trkpt lat="43.75387" lon="3.54872">
        <ele>423.6</ele>
        <time>2014-04-10T10:34:17Z</time>
      </trkpt>
      <trkpt lat="43.7539" lon="3.54873">
        <ele>424.56</ele>
        <time>2014-04-10T10:34:32Z</time>
      </trkpt>
      <trkpt lat="43.75392" lon="3.54874">
        <ele>424.08</ele>
        <time>2014-04-10T10:34:52Z</time>
      </trkpt>
      <trkpt lat="43.75393" lon="3.54873">
        <ele>424.56</ele>
        <time>2014-04-10T10:34:53Z</time>
      </trkpt>
      <trkpt lat="43.75395" lon="3.54871">
        <ele>425.04</ele>
        <time>2014-04-10T10:35:06Z</time>
      </trkpt>
      <trkpt lat="43.75394" lon="3.54871">
        <ele>424.56</ele>
        <time>2014-04-10T10:35:28Z</time>
      </trkpt>
      <trkpt lat="43.75396" lon="3.54872">
        <ele>425.04</ele>
        <time>2014-04-10T10:35:43Z</time>
      </trkpt>
      <trkpt lat="43.75397" lon="3.54872">
        <ele>425.04</ele>
        <time>2014-04-10T10:35:55Z</time>
      </trkpt>
      <trkpt lat="43.75395" lon="3.54872">
        <ele>425.04</ele>
        <time>2014-04-10T10:36:13Z</time>
      </trkpt>
      <trkpt lat="43.75392" lon="3.54871">
        <ele>425.04</ele>
        <time>2014-04-10T10:36:29Z</time>
      </trkpt>
      <trkpt lat="43.75391" lon="3.54869">
        <ele>425.04</ele>
        <time>2014-04-10T10:36:54Z</time>
      </trkpt>
      <trkpt lat="43.75397" lon="3.54874">
        <ele>425.52</ele>
        <time>2014-04-10T10:37:15Z</time>
      </trkpt>
      <trkpt lat="43.75399" lon="3.54875">
        <ele>425.52</ele>
        <time>2014-04-10T10:37:36Z</time>
      </trkpt>
      <trkpt lat="43.75401" lon="3.54877">
        <ele>425.52</ele>
        <time>2014-04-10T10:38:14Z</time>
      </trkpt>
      <trkpt lat="43.75401" lon="3.54875">
        <ele>425.04</ele>
        <time>2014-04-10T10:38:40Z</time>
      </trkpt>
      <trkpt lat="43.75402" lon="3.54878">
        <ele>425.04</ele>
        <time>2014-04-10T10:39:08Z</time>
      </trkpt>
      <trkpt lat="43.754" lon="3.54879">
        <ele>425.04</ele>
        <time>2014-04-10T10:39:38Z</time>
      </trkpt>
      <trkpt lat="43.75398" lon="3.54877">
        <ele>424.56</ele>
        <time>2014-04-10T10:39:57Z</time>
      </trkpt>
      <trkpt lat="43.75399" lon="3.54876">
        <ele>424.56</ele>
        <time>2014-04-10T10:40:14Z</time>
      </trkpt>
      <trkpt lat="43.75399" lon="3.54876">
        <ele>425.04</ele>
        <time>2014-04-10T10:40:31Z</time>
      </trkpt>
      <trkpt lat="43.75396" lon="3.54872">
        <ele>424.08</ele>
        <time>2014-04-10T10:40:51Z</time>
      </trkpt>
      <trkpt lat="43.75394" lon="3.5487">
        <ele>424.56</ele>
        <time>2014-04-10T10:41:13Z</time>
      </trkpt>
      <trkpt lat="43.75394" lon="3.54869">
        <ele>424.56</ele>
        <time>2014-04-10T10:41:40Z</time>
      </trkpt>
      <trkpt lat="43.75394" lon="3.54871">
        <ele>424.08</ele>
        <time>2014-04-10T10:42:00Z</time>
      </trkpt>
      <trkpt lat="43.75394" lon="3.54874">
        <ele>424.56</ele>
        <time>2014-04-10T10:42:20Z</time>
      </trkpt>
      <trkpt lat="43.75395" lon="3.54875">
        <ele>426</ele>
        <time>2014-04-10T10:42:37Z</time>
      </trkpt>
      <trkpt lat="43.75393" lon="3.54875">
        <ele>426</ele>
        <time>2014-04-10T10:42:52Z</time>
      </trkpt>
      <trkpt lat="43.75394" lon="3.54877">
        <ele>425.52</ele>
        <time>2014-04-10T10:43:20Z</time>
      </trkpt>
      <trkpt lat="43.75396" lon="3.54875">
        <ele>427.44</ele>
        <time>2014-04-10T10:43:23Z</time>
      </trkpt>
      <trkpt lat="43.75398" lon="3.54875">
        <ele>427.92</ele>
        <time>2014-04-10T10:43:37Z</time>
      </trkpt>
      <trkpt lat="43.754" lon="3.54878">
        <ele>429.37</ele>
        <time>2014-04-10T10:43:50Z</time>
      </trkpt>
      <trkpt lat="43.754" lon="3.54878">
        <ele>428.89</ele>
        <time>2014-04-10T10:44:09Z</time>
      </trkpt>
      <trkpt lat="43.75404" lon="3.54876">
        <ele>429.85</ele>
        <time>2014-04-10T10:44:24Z</time>
      </trkpt>
      <trkpt lat="43.75405" lon="3.54873">
        <ele>430.81</ele>
        <time>2014-04-10T10:44:35Z</time>
      </trkpt>
      <trkpt lat="43.75406" lon="3.54871">
        <ele>433.21</ele>
        <time>2014-04-10T10:44:44Z</time>
      </trkpt>
      <trkpt lat="43.75408" lon="3.54873">
        <ele>435.13</ele>
        <time>2014-04-10T10:44:58Z</time>
      </trkpt>
      <trkpt lat="43.75409" lon="3.54871">
        <ele>434.65</ele>
        <time>2014-04-10T10:45:03Z</time>
      </trkpt>
      <trkpt lat="43.75412" lon="3.54871">
        <ele>435.61</ele>
        <time>2014-04-10T10:45:15Z</time>
      </trkpt>
      <trkpt lat="43.75412" lon="3.54875">
        <ele>436.58</ele>
        <time>2014-04-10T10:45:27Z</time>
      </trkpt>
      <trkpt lat="43.75409" lon="3.54874">
        <ele>438.02</ele>
        <time>2014-04-10T10:45:43Z</time>
      </trkpt>
      <trkpt lat="43.75409" lon="3.54877">
        <ele>439.46</ele>
        <time>2014-04-10T10:45:58Z</time>
      </trkpt>
      <trkpt lat="43.7541" lon="3.54878">
        <ele>440.9</ele>
        <time>2014-04-10T10:46:12Z</time>
      </trkpt>
      <trkpt lat="43.75408" lon="3.54877">
        <ele>440.9</ele>
        <time>2014-04-10T10:46:27Z</time>
      </trkpt>
      <trkpt lat="43.75411" lon="3.54877">
        <ele>441.38</ele>
        <time>2014-04-10T10:46:40Z</time>
      </trkpt>
      <trkpt lat="43.75412" lon="3.54877">
        <ele>441.38</ele>
        <time>2014-04-10T10:46:54Z</time>
      </trkpt>
      <trkpt lat="43.7541" lon="3.54874">
        <ele>442.34</ele>
        <time>2014-04-10T10:47:06Z</time>
      </trkpt>
      <trkpt lat="43.75408" lon="3.54874">
        <ele>442.34</ele>
        <time>2014-04-10T10:47:27Z</time>
      </trkpt>
      <trkpt lat="43.7541" lon="3.54871">
        <ele>441.38</ele>
        <time>2014-04-10T10:47:44Z</time>
      </trkpt>
      <trkpt lat="43.75414" lon="3.54871">
        <ele>442.82</ele>
        <time>2014-04-10T10:47:57Z</time>
      </trkpt>
      <trkpt lat="43.75416" lon="3.54871">
        <ele>443.79</ele>
        <time>2014-04-10T10:48:10Z</time>
      </trkpt>
      <trkpt lat="43.75418" lon="3.54872">
        <ele>444.27</ele>
        <time>2014-04-10T10:48:23Z</time>
      </trkpt>
      <trkpt lat="43.7542" lon="3.54874">
        <ele>445.71</ele>
        <time>2014-04-10T10:48:34Z</time>
      </trkpt>
      <trkpt lat="43.75421" lon="3.54878">
        <ele>447.63</ele>
        <time>2014-04-10T10:48:50Z</time>
      </trkpt>
      <trkpt lat="43.7542" lon="3.54876">
        <ele>448.59</ele>
        <time>2014-04-10T10:49:02Z</time>
      </trkpt>
      <trkpt lat="43.7542" lon="3.54876">
        <ele>450.03</ele>
        <time>2014-04-10T10:49:22Z</time>
      </trkpt>
      <trkpt lat="43.7542" lon="3.54881">
        <ele>451.96</ele>
        <time>2014-04-10T10:49:34Z</time>
      </trkpt>
      <trkpt lat="43.75419" lon="3.54881">
        <ele>453.4</ele>
        <time>2014-04-10T10:49:46Z</time>
      </trkpt>
      <trkpt lat="43.7542" lon="3.54882">
        <ele>453.88</ele>
        <time>2014-04-10T10:50:01Z</time>
      </trkpt>
      <trkpt lat="43.75424" lon="3.5488">
        <ele>452.92</ele>
        <time>2014-04-10T10:50:18Z</time>
      </trkpt>
      <trkpt lat="43.75427" lon="3.54879">
        <ele>452.44</ele>
        <time>2014-04-10T10:50:33Z</time>
      </trkpt>
      <trkpt lat="43.75426" lon="3.54878">
        <ele>451.96</ele>
        <time>2014-04-10T10:50:47Z</time>
      </trkpt>
      <trkpt lat="43.75426" lon="3.54878">
        <ele>451.48</ele>
        <time>2014-04-10T10:50:48Z</time>
      </trkpt>
      <trkpt lat="43.75432" lon="3.54873">
        <ele>452.44</ele>
        <time>2014-04-10T10:50:59Z</time>
      </trkpt>
      <trkpt lat="43.75437" lon="3.54872">
        <ele>454.36</ele>
        <time>2014-04-10T10:51:13Z</time>
      </trkpt>
      <trkpt lat="43.75437" lon="3.54869">
        <ele>453.88</ele>
        <time>2014-04-10T10:51:32Z</time>
      </trkpt>
      <trkpt lat="43.7544" lon="3.54866">
        <ele>453.88</ele>
        <time>2014-04-10T10:51:43Z</time>
      </trkpt>
      <trkpt lat="43.75445" lon="3.54863">
        <ele>453.88</ele>
        <time>2014-04-10T10:51:50Z</time>
      </trkpt>
      <trkpt lat="43.75452" lon="3.54861">
        <ele>454.84</ele>
        <time>2014-04-10T10:52:02Z</time>
      </trkpt>
      <trkpt lat="43.75456" lon="3.54856">
        <ele>452.92</ele>
        <time>2014-04-10T10:52:17Z</time>
      </trkpt>
      <trkpt lat="43.75463" lon="3.54852">
        <ele>453.88</ele>
        <time>2014-04-10T10:52:31Z</time>
      </trkpt>
      <trkpt lat="43.75467" lon="3.54848">
        <ele>452.92</ele>
        <time>2014-04-10T10:52:43Z</time>
      </trkpt>
      <trkpt lat="43.75473" lon="3.54844">
        <ele>451.96</ele>
        <time>2014-04-10T10:52:56Z</time>
      </trkpt>
      <trkpt lat="43.75476" lon="3.54843">
        <ele>451.48</ele>
        <time>2014-04-10T10:53:10Z</time>
      </trkpt>
      <trkpt lat="43.75482" lon="3.54841">
        <ele>450.52</ele>
        <time>2014-04-10T10:53:22Z</time>
      </trkpt>
      <trkpt lat="43.75486" lon="3.54843">
        <ele>450.03</ele>
        <time>2014-04-10T10:53:35Z</time>
      </trkpt>
      <trkpt lat="43.75491" lon="3.54844">
        <ele>451</ele>
        <time>2014-04-10T10:53:48Z</time>
      </trkpt>
      <trkpt lat="43.75492" lon="3.54845">
        <ele>451</ele>
        <time>2014-04-10T10:54:15Z</time>
      </trkpt>
      <trkpt lat="43.75496" lon="3.54843">
        <ele>451.96</ele>
        <time>2014-04-10T10:54:38Z</time>
      </trkpt>
      <trkpt lat="43.75504" lon="3.54845">
        <ele>453.88</ele>
        <time>2014-04-10T10:54:51Z</time>
      </trkpt>
      <trkpt lat="43.75511" lon="3.54845">
        <ele>455.32</ele>
        <time>2014-04-10T10:55:05Z</time>
      </trkpt>
      <trkpt lat="43.75519" lon="3.54843">
        <ele>456.76</ele>
        <time>2014-04-10T10:55:18Z</time>
      </trkpt>
      <trkpt lat="43.75525" lon="3.54843">
        <ele>458.21</ele>
        <time>2014-04-10T10:55:27Z</time>
      </trkpt>
      <trkpt lat="43.7553" lon="3.54841">
        <ele>459.65</ele>
        <time>2014-04-10T10:55:38Z</time>
      </trkpt>
      <trkpt lat="43.75532" lon="3.5484">
        <ele>460.13</ele>
        <time>2014-04-10T10:55:50Z</time>
      </trkpt>
      <trkpt lat="43.75535" lon="3.5484">
        <ele>460.13</ele>
        <time>2014-04-10T10:56:14Z</time>
      </trkpt>
      <trkpt lat="43.75536" lon="3.54843">
        <ele>460.61</ele>
        <time>2014-04-10T10:56:40Z</time>
      </trkpt>
      <trkpt lat="43.75539" lon="3.54839">
        <ele>461.09</ele>
        <time>2014-04-10T10:56:52Z</time>
      </trkpt>
      <trkpt lat="43.75539" lon="3.54838">
        <ele>461.09</ele>
        <time>2014-04-10T10:57:17Z</time>
      </trkpt>
      <trkpt lat="43.75541" lon="3.54843">
        <ele>459.17</ele>
        <time>2014-04-10T10:57:29Z</time>
      </trkpt>
      <trkpt lat="43.75543" lon="3.54842">
        <ele>457.72</ele>
        <time>2014-04-10T10:57:46Z</time>
      </trkpt>
      <trkpt lat="43.75545" lon="3.5484">
        <ele>457.72</ele>
        <time>2014-04-10T10:58:01Z</time>
      </trkpt>
      <trkpt lat="43.75549" lon="3.54837">
        <ele>456.28</ele>
        <time>2014-04-10T10:58:13Z</time>
      </trkpt>
      <trkpt lat="43.75554" lon="3.54839">
        <ele>457.72</ele>
        <time>2014-04-10T10:58:26Z</time>
      </trkpt>
      <trkpt lat="43.75559" lon="3.54843">
        <ele>459.17</ele>
        <time>2014-04-10T10:58:38Z</time>
      </trkpt>
      <trkpt lat="43.75564" lon="3.54842">
        <ele>459.17</ele>
        <time>2014-04-10T10:58:52Z</time>
      </trkpt>
      <trkpt lat="43.75563" lon="3.54845">
        <ele>459.65</ele>
        <time>2014-04-10T10:59:04Z</time>
      </trkpt>
      <trkpt lat="43.75564" lon="3.54845">
        <ele>459.17</ele>
        <time>2014-04-10T10:59:16Z</time>
      </trkpt>
      <trkpt lat="43.75564" lon="3.54843">
        <ele>459.17</ele>
        <time>2014-04-10T10:59:32Z</time>
      </trkpt>
      <trkpt lat="43.75569" lon="3.54842">
        <ele>458.21</ele>
        <time>2014-04-10T10:59:45Z</time>
      </trkpt>
      <trkpt lat="43.75575" lon="3.54838">
        <ele>458.21</ele>
        <time>2014-04-10T10:59:55Z</time>
      </trkpt>
      <trkpt lat="43.75578" lon="3.54834">
        <ele>458.69</ele>
        <time>2014-04-10T11:00:12Z</time>
      </trkpt>
      <trkpt lat="43.75585" lon="3.54836">
        <ele>460.61</ele>
        <time>2014-04-10T11:00:28Z</time>
      </trkpt>
      <trkpt lat="43.75586" lon="3.54837">
        <ele>460.61</ele>
        <time>2014-04-10T11:00:52Z</time>
      </trkpt>
      <trkpt lat="43.75586" lon="3.54836">
        <ele>460.61</ele>
        <time>2014-04-10T11:01:19Z</time>
      </trkpt>
      <trkpt lat="43.75589" lon="3.54835">
        <ele>462.05</ele>
        <time>2014-04-10T11:01:31Z</time>
      </trkpt>
      <trkpt lat="43.75592" lon="3.54832">
        <ele>463.97</ele>
        <time>2014-04-10T11:01:45Z</time>
      </trkpt>
      <trkpt lat="43.75592" lon="3.5483">
        <ele>464.45</ele>
        <time>2014-04-10T11:01:57Z</time>
      </trkpt>
      <trkpt lat="43.75597" lon="3.54835">
        <ele>466.38</ele>
        <time>2014-04-10T11:02:10Z</time>
      </trkpt>
      <trkpt lat="43.756" lon="3.54838">
        <ele>469.26</ele>
        <time>2014-04-10T11:02:24Z</time>
      </trkpt>
      <trkpt lat="43.75602" lon="3.54838">
        <ele>470.22</ele>
        <time>2014-04-10T11:02:41Z</time>
      </trkpt>
      <trkpt lat="43.75605" lon="3.5484">
        <ele>471.18</ele>
        <time>2014-04-10T11:02:55Z</time>
      </trkpt>
      <trkpt lat="43.75604" lon="3.54839">
        <ele>471.18</ele>
        <time>2014-04-10T11:03:19Z</time>
      </trkpt>
      <trkpt lat="43.75605" lon="3.54841">
        <ele>471.66</ele>
        <time>2014-04-10T11:03:44Z</time>
      </trkpt>
      <trkpt lat="43.75609" lon="3.54842">
        <ele>473.11</ele>
        <time>2014-04-10T11:03:56Z</time>
      </trkpt>
      <trkpt lat="43.75614" lon="3.5484">
        <ele>474.55</ele>
        <time>2014-04-10T11:04:09Z</time>
      </trkpt>
      <trkpt lat="43.75617" lon="3.54839">
        <ele>475.03</ele>
        <time>2014-04-10T11:04:26Z</time>
      </trkpt>
      <trkpt lat="43.75618" lon="3.54838">
        <ele>475.03</ele>
        <time>2014-04-10T11:05:00Z</time>
      </trkpt>
      <trkpt lat="43.75621" lon="3.54839">
        <ele>475.03</ele>
        <time>2014-04-10T11:05:17Z</time>
      </trkpt>
      <trkpt lat="43.75625" lon="3.54842">
        <ele>476.95</ele>
        <time>2014-04-10T11:05:30Z</time>
      </trkpt>
      <trkpt lat="43.7563" lon="3.54844">
        <ele>478.87</ele>
        <time>2014-04-10T11:05:44Z</time>
      </trkpt>
      <trkpt lat="43.75632" lon="3.54843">
        <ele>480.8</ele>
        <time>2014-04-10T11:06:00Z</time>
      </trkpt>
      <trkpt lat="43.75636" lon="3.54844">
        <ele>483.2</ele>
        <time>2014-04-10T11:06:13Z</time>
      </trkpt>
      <trkpt lat="43.7564" lon="3.54844">
        <ele>484.64</ele>
        <time>2014-04-10T11:06:29Z</time>
      </trkpt>
      <trkpt lat="43.75642" lon="3.54845">
        <ele>484.64</ele>
        <time>2014-04-10T11:06:47Z</time>
      </trkpt>
      <trkpt lat="43.75645" lon="3.54846">
        <ele>485.12</ele>
        <time>2014-04-10T11:06:58Z</time>
      </trkpt>
      <trkpt lat="43.75649" lon="3.54843">
        <ele>485.12</ele>
        <time>2014-04-10T11:07:10Z</time>
      </trkpt>
      <trkpt lat="43.75651" lon="3.5484">
        <ele>486.56</ele>
        <time>2014-04-10T11:07:25Z</time>
      </trkpt>
      <trkpt lat="43.75655" lon="3.54841">
        <ele>489.45</ele>
        <time>2014-04-10T11:07:38Z</time>
      </trkpt>
      <trkpt lat="43.7566" lon="3.5484">
        <ele>491.37</ele>
        <time>2014-04-10T11:07:57Z</time>
      </trkpt>
      <trkpt lat="43.75663" lon="3.54843">
        <ele>493.29</ele>
        <time>2014-04-10T11:08:09Z</time>
      </trkpt>
      <trkpt lat="43.75665" lon="3.54847">
        <ele>493.29</ele>
        <time>2014-04-10T11:08:36Z</time>
      </trkpt>
      <trkpt lat="43.75667" lon="3.54848">
        <ele>495.22</ele>
        <time>2014-04-10T11:08:49Z</time>
      </trkpt>
      <trkpt lat="43.75672" lon="3.54849">
        <ele>497.62</ele>
        <time>2014-04-10T11:09:02Z</time>
      </trkpt>
      <trkpt lat="43.75676" lon="3.54849">
        <ele>499.54</ele>
        <time>2014-04-10T11:09:12Z</time>
      </trkpt>
      <trkpt lat="43.7568" lon="3.54849">
        <ele>502.43</ele>
        <time>2014-04-10T11:09:26Z</time>
      </trkpt>
      <trkpt lat="43.75683" lon="3.54848">
        <ele>502.43</ele>
        <time>2014-04-10T11:09:45Z</time>
      </trkpt>
      <trkpt lat="43.75686" lon="3.54845">
        <ele>505.31</ele>
        <time>2014-04-10T11:09:57Z</time>
      </trkpt>
      <trkpt lat="43.75687" lon="3.54841">
        <ele>506.75</ele>
        <time>2014-04-10T11:10:08Z</time>
      </trkpt>
      <trkpt lat="43.75688" lon="3.54835">
        <ele>508.67</ele>
        <time>2014-04-10T11:10:19Z</time>
      </trkpt>
      <trkpt lat="43.75685" lon="3.54831">
        <ele>509.16</ele>
        <time>2014-04-10T11:10:30Z</time>
      </trkpt>
      <trkpt lat="43.75684" lon="3.54831">
        <ele>508.67</ele>
        <time>2014-04-10T11:10:46Z</time>
      </trkpt>
      <trkpt lat="43.75682" lon="3.5483">
        <ele>508.67</ele>
        <time>2014-04-10T11:11:07Z</time>
      </trkpt>
      <trkpt lat="43.7568" lon="3.54831">
        <ele>508.67</ele>
        <time>2014-04-10T11:11:36Z</time>
      </trkpt>
      <trkpt lat="43.75682" lon="3.54828">
        <ele>509.16</ele>
        <time>2014-04-10T11:12:06Z</time>
      </trkpt>
      <trkpt lat="43.75683" lon="3.5483">
        <ele>509.16</ele>
        <time>2014-04-10T11:12:34Z</time>
      </trkpt>
      <trkpt lat="43.75682" lon="3.54831">
        <ele>508.67</ele>
        <time>2014-04-10T11:12:50Z</time>
      </trkpt>
      <trkpt lat="43.75686" lon="3.54832">
        <ele>510.6</ele>
        <time>2014-04-10T11:13:06Z</time>
      </trkpt>
      <trkpt lat="43.7569" lon="3.54832">
        <ele>513.48</ele>
        <time>2014-04-10T11:13:20Z</time>
      </trkpt>
      <trkpt lat="43.75694" lon="3.54831">
        <ele>515.88</ele>
        <time>2014-04-10T11:13:34Z</time>
      </trkpt>
      <trkpt lat="43.75697" lon="3.5483">
        <ele>517.33</ele>
        <time>2014-04-10T11:13:47Z</time>
      </trkpt>
      <trkpt lat="43.75702" lon="3.5483">
        <ele>519.25</ele>
        <time>2014-04-10T11:13:59Z</time>
      </trkpt>
      <trkpt lat="43.75703" lon="3.54833">
        <ele>520.69</ele>
        <time>2014-04-10T11:14:17Z</time>
      </trkpt>
      <trkpt lat="43.75703" lon="3.54833">
        <ele>522.13</ele>
        <time>2014-04-10T11:14:31Z</time>
      </trkpt>
      <trkpt lat="43.75706" lon="3.54832">
        <ele>521.65</ele>
        <time>2014-04-10T11:14:44Z</time>
      </trkpt>
      <trkpt lat="43.75707" lon="3.54837">
        <ele>522.61</ele>
        <time>2014-04-10T11:14:59Z</time>
      </trkpt>
      <trkpt lat="43.75709" lon="3.54835">
        <ele>522.61</ele>
        <time>2014-04-10T11:15:15Z</time>
      </trkpt>
      <trkpt lat="43.75713" lon="3.54836">
        <ele>523.09</ele>
        <time>2014-04-10T11:15:29Z</time>
      </trkpt>
      <trkpt lat="43.75712" lon="3.54844">
        <ele>524.54</ele>
        <time>2014-04-10T11:15:40Z</time>
      </trkpt>
      <trkpt lat="43.75712" lon="3.54846">
        <ele>525.5</ele>
        <time>2014-04-10T11:15:54Z</time>
      </trkpt>
      <trkpt lat="43.75715" lon="3.54851">
        <ele>525.02</ele>
        <time>2014-04-10T11:16:06Z</time>
      </trkpt>
      <trkpt lat="43.75722" lon="3.54851">
        <ele>526.94</ele>
        <time>2014-04-10T11:16:20Z</time>
      </trkpt>
      <trkpt lat="43.75732" lon="3.54851">
        <ele>528.38</ele>
        <time>2014-04-10T11:16:32Z</time>
      </trkpt>
      <trkpt lat="43.75735" lon="3.54859">
        <ele>528.86</ele>
        <time>2014-04-10T11:16:46Z</time>
      </trkpt>
      <trkpt lat="43.75737" lon="3.54859">
        <ele>528.86</ele>
        <time>2014-04-10T11:17:00Z</time>
      </trkpt>
      <trkpt lat="43.75739" lon="3.54857">
        <ele>530.3</ele>
        <time>2014-04-10T11:17:13Z</time>
      </trkpt>
      <trkpt lat="43.75741" lon="3.54859">
        <ele>532.23</ele>
        <time>2014-04-10T11:17:26Z</time>
      </trkpt>
      <trkpt lat="43.75744" lon="3.54856">
        <ele>533.67</ele>
        <time>2014-04-10T11:17:37Z</time>
      </trkpt>
      <trkpt lat="43.75746" lon="3.54857">
        <ele>533.19</ele>
        <time>2014-04-10T11:17:49Z</time>
      </trkpt>
      <trkpt lat="43.75745" lon="3.54859">
        <ele>533.67</ele>
        <time>2014-04-10T11:17:59Z</time>
      </trkpt>
      <trkpt lat="43.75745" lon="3.5486">
        <ele>533.67</ele>
        <time>2014-04-10T11:18:14Z</time>
      </trkpt>
      <trkpt lat="43.75744" lon="3.54854">
        <ele>533.19</ele>
        <time>2014-04-10T11:18:29Z</time>
      </trkpt>
      <trkpt lat="43.75742" lon="3.54852">
        <ele>533.19</ele>
        <time>2014-04-10T11:18:45Z</time>
      </trkpt>
      <trkpt lat="43.75741" lon="3.54855">
        <ele>533.67</ele>
        <time>2014-04-10T11:18:57Z</time>
      </trkpt>
      <trkpt lat="43.75745" lon="3.54858">
        <ele>534.15</ele>
        <time>2014-04-10T11:19:10Z</time>
      </trkpt>
      <trkpt lat="43.75744" lon="3.54859">
        <ele>534.15</ele>
        <time>2014-04-10T11:19:27Z</time>
      </trkpt>
      <trkpt lat="43.75745" lon="3.54854">
        <ele>533.67</ele>
        <time>2014-04-10T11:19:40Z</time>
      </trkpt>
      <trkpt lat="43.75747" lon="3.54853">
        <ele>533.67</ele>
        <time>2014-04-10T11:19:53Z</time>
      </trkpt>
      <trkpt lat="43.7575" lon="3.54851">
        <ele>533.19</ele>
        <time>2014-04-10T11:20:17Z</time>
      </trkpt>
      <trkpt lat="43.75752" lon="3.54849">
        <ele>532.23</ele>
        <time>2014-04-10T11:20:34Z</time>
      </trkpt>
      <trkpt lat="43.75756" lon="3.54847">
        <ele>530.79</ele>
        <time>2014-04-10T11:20:47Z</time>
      </trkpt>
      <trkpt lat="43.75761" lon="3.54843">
        <ele>531.75</ele>
        <time>2014-04-10T11:21:00Z</time>
      </trkpt>
      <trkpt lat="43.75767" lon="3.5484">
        <ele>533.67</ele>
        <time>2014-04-10T11:21:13Z</time>
      </trkpt>
      <trkpt lat="43.75773" lon="3.54839">
        <ele>535.59</ele>
        <time>2014-04-10T11:21:26Z</time>
      </trkpt>
      <trkpt lat="43.75776" lon="3.54836">
        <ele>537.99</ele>
        <time>2014-04-10T11:21:38Z</time>
      </trkpt>
      <trkpt lat="43.75781" lon="3.54835">
        <ele>540.4</ele>
        <time>2014-04-10T11:21:53Z</time>
      </trkpt>
      <trkpt lat="43.75783" lon="3.5484">
        <ele>540.88</ele>
        <time>2014-04-10T11:22:09Z</time>
      </trkpt>
      <trkpt lat="43.75783" lon="3.54837">
        <ele>541.84</ele>
        <time>2014-04-10T11:22:28Z</time>
      </trkpt>
      <trkpt lat="43.75785" lon="3.54838">
        <ele>541.84</ele>
        <time>2014-04-10T11:22:42Z</time>
      </trkpt>
      <trkpt lat="43.75786" lon="3.54837">
        <ele>541.84</ele>
        <time>2014-04-10T11:22:58Z</time>
      </trkpt>
      <trkpt lat="43.75784" lon="3.54836">
        <ele>541.84</ele>
        <time>2014-04-10T11:23:20Z</time>
      </trkpt>
      <trkpt lat="43.75781" lon="3.54832">
        <ele>541.36</ele>
        <time>2014-04-10T11:23:35Z</time>
      </trkpt>
      <trkpt lat="43.75782" lon="3.54829">
        <ele>541.36</ele>
        <time>2014-04-10T11:23:47Z</time>
      </trkpt>
      <trkpt lat="43.75784" lon="3.54828">
        <ele>544.24</ele>
        <time>2014-04-10T11:23:57Z</time>
      </trkpt>
      <trkpt lat="43.7579" lon="3.54827">
        <ele>545.69</ele>
        <time>2014-04-10T11:24:11Z</time>
      </trkpt>
      <trkpt lat="43.75795" lon="3.54825">
        <ele>546.17</ele>
        <time>2014-04-10T11:24:33Z</time>
      </trkpt>
      <trkpt lat="43.75797" lon="3.54819">
        <ele>547.61</ele>
        <time>2014-04-10T11:24:46Z</time>
      </trkpt>
      <trkpt lat="43.75801" lon="3.54816">
        <ele>547.13</ele>
        <time>2014-04-10T11:25:00Z</time>
      </trkpt>
      <trkpt lat="43.75803" lon="3.54812">
        <ele>547.13</ele>
        <time>2014-04-10T11:25:14Z</time>
      </trkpt>
      <trkpt lat="43.75804" lon="3.5481">
        <ele>547.13</ele>
        <time>2014-04-10T11:25:40Z</time>
      </trkpt>
      <trkpt lat="43.75806" lon="3.54811">
        <ele>547.61</ele>
        <time>2014-04-10T11:26:02Z</time>
      </trkpt>
      <trkpt lat="43.75805" lon="3.5481">
        <ele>546.65</ele>
        <time>2014-04-10T11:26:17Z</time>
      </trkpt>
      <trkpt lat="43.75804" lon="3.54809">
        <ele>546.65</ele>
        <time>2014-04-10T11:26:36Z</time>
      </trkpt>
      <trkpt lat="43.75802" lon="3.54809">
        <ele>546.65</ele>
        <time>2014-04-10T11:27:01Z</time>
      </trkpt>
      <trkpt lat="43.75801" lon="3.54809">
        <ele>546.65</ele>
        <time>2014-04-10T11:27:31Z</time>
      </trkpt>
      <trkpt lat="43.758" lon="3.54809">
        <ele>547.13</ele>
        <time>2014-04-10T11:28:00Z</time>
      </trkpt>
      <trkpt lat="43.75802" lon="3.54809">
        <ele>547.13</ele>
        <time>2014-04-10T11:28:35Z</time>
      </trkpt>
      <trkpt lat="43.758" lon="3.5481">
        <ele>547.61</ele>
        <time>2014-04-10T11:29:14Z</time>
      </trkpt>
      <trkpt lat="43.75801" lon="3.5481">
        <ele>547.61</ele>
        <time>2014-04-10T11:29:42Z</time>
      </trkpt>
      <trkpt lat="43.75801" lon="3.54809">
        <ele>547.61</ele>
        <time>2014-04-10T11:30:10Z</time>
      </trkpt>
      <trkpt lat="43.75801" lon="3.54808">
        <ele>548.09</ele>
        <time>2014-04-10T11:30:34Z</time>
      </trkpt>
      <trkpt lat="43.75801" lon="3.54808">
        <ele>547.61</ele>
        <time>2014-04-10T11:31:02Z</time>
      </trkpt>
      <trkpt lat="43.75801" lon="3.54809">
        <ele>548.09</ele>
        <time>2014-04-10T11:31:32Z</time>
      </trkpt>
      <trkpt lat="43.75803" lon="3.54809">
        <ele>548.09</ele>
        <time>2014-04-10T11:32:03Z</time>
      </trkpt>
      <trkpt lat="43.75801" lon="3.54808">
        <ele>548.57</ele>
        <time>2014-04-10T11:32:38Z</time>
      </trkpt>
      <trkpt lat="43.758" lon="3.54808">
        <ele>548.57</ele>
        <time>2014-04-10T11:33:14Z</time>
      </trkpt>
      <trkpt lat="43.75799" lon="3.54807">
        <ele>548.57</ele>
        <time>2014-04-10T11:33:41Z</time>
      </trkpt>
      <trkpt lat="43.75798" lon="3.54807">
        <ele>548.57</ele>
        <time>2014-04-10T11:34:16Z</time>
      </trkpt>
      <trkpt lat="43.758" lon="3.54808">
        <ele>549.05</ele>
        <time>2014-04-10T11:34:58Z</time>
      </trkpt>
      <trkpt lat="43.758" lon="3.54808">
        <ele>549.05</ele>
        <time>2014-04-10T11:35:26Z</time>
      </trkpt>
      <trkpt lat="43.75799" lon="3.54806">
        <ele>549.05</ele>
        <time>2014-04-10T11:35:54Z</time>
      </trkpt>
      <trkpt lat="43.75797" lon="3.54804">
        <ele>548.57</ele>
        <time>2014-04-10T11:36:24Z</time>
      </trkpt>
      <trkpt lat="43.75798" lon="3.54806">
        <ele>548.57</ele>
        <time>2014-04-10T11:36:56Z</time>
      </trkpt>
      <trkpt lat="43.75798" lon="3.54808">
        <ele>549.05</ele>
        <time>2014-04-10T11:37:33Z</time>
      </trkpt>
      <trkpt lat="43.75798" lon="3.54807">
        <ele>549.05</ele>
        <time>2014-04-10T11:38:10Z</time>
      </trkpt>
      <trkpt lat="43.75798" lon="3.54806">
        <ele>549.53</ele>
        <time>2014-04-10T11:38:38Z</time>
      </trkpt>
      <trkpt lat="43.75798" lon="3.54807">
        <ele>549.53</ele>
        <time>2014-04-10T11:38:59Z</time>
      </trkpt>
      <trkpt lat="43.75798" lon="3.54808">
        <ele>549.53</ele>
        <time>2014-04-10T11:39:32Z</time>
      </trkpt>
      <trkpt lat="43.758" lon="3.5481">
        <ele>549.53</ele>
        <time>2014-04-10T11:40:00Z</time>
      </trkpt>
      <trkpt lat="43.75799" lon="3.54811">
        <ele>549.53</ele>
        <time>2014-04-10T11:40:22Z</time>
      </trkpt>
      <trkpt lat="43.75798" lon="3.54812">
        <ele>549.53</ele>
        <time>2014-04-10T11:40:49Z</time>
      </trkpt>
      <trkpt lat="43.75799" lon="3.54811">
        <ele>550.01</ele>
        <time>2014-04-10T11:41:21Z</time>
      </trkpt>
      <trkpt lat="43.75799" lon="3.54807">
        <ele>550.49</ele>
        <time>2014-04-10T11:41:49Z</time>
      </trkpt>
      <trkpt lat="43.75797" lon="3.5481">
        <ele>550.01</ele>
        <time>2014-04-10T11:42:17Z</time>
      </trkpt>
      <trkpt lat="43.75799" lon="3.5481">
        <ele>550.01</ele>
        <time>2014-04-10T11:42:46Z</time>
      </trkpt>
      <trkpt lat="43.75799" lon="3.54811">
        <ele>550.01</ele>
        <time>2014-04-10T11:43:13Z</time>
      </trkpt>
      <trkpt lat="43.75798" lon="3.54808">
        <ele>550.49</ele>
        <time>2014-04-10T11:43:46Z</time>
      </trkpt>
      <trkpt lat="43.75799" lon="3.54809">
        <ele>550.49</ele>
        <time>2014-04-10T11:44:12Z</time>
      </trkpt>
      <trkpt lat="43.758" lon="3.54809">
        <ele>550.49</ele>
        <time>2014-04-10T11:44:40Z</time>
      </trkpt>
      <trkpt lat="43.75799" lon="3.5481">
        <ele>550.97</ele>
        <time>2014-04-10T11:45:12Z</time>
      </trkpt>
      <trkpt lat="43.75801" lon="3.54812">
        <ele>550.97</ele>
        <time>2014-04-10T11:45:48Z</time>
      </trkpt>
      <trkpt lat="43.758" lon="3.54813">
        <ele>550.97</ele>
        <time>2014-04-10T11:46:21Z</time>
      </trkpt>
      <trkpt lat="43.758" lon="3.54809">
        <ele>550.97</ele>
        <time>2014-04-10T11:46:49Z</time>
      </trkpt>
      <trkpt lat="43.75799" lon="3.5481">
        <ele>550.97</ele>
        <time>2014-04-10T11:47:19Z</time>
      </trkpt>
      <trkpt lat="43.758" lon="3.54807">
        <ele>551.45</ele>
        <time>2014-04-10T11:47:42Z</time>
      </trkpt>
      <trkpt lat="43.75801" lon="3.54807">
        <ele>551.45</ele>
        <time>2014-04-10T11:48:10Z</time>
      </trkpt>
      <trkpt lat="43.75801" lon="3.54809">
        <ele>551.45</ele>
        <time>2014-04-10T11:48:37Z</time>
      </trkpt>
      <trkpt lat="43.75801" lon="3.54809">
        <ele>551.45</ele>
        <time>2014-04-10T11:49:08Z</time>
      </trkpt>
      <trkpt lat="43.758" lon="3.54807">
        <ele>551.45</ele>
        <time>2014-04-10T11:49:36Z</time>
      </trkpt>
      <trkpt lat="43.758" lon="3.54808">
        <ele>551.45</ele>
        <time>2014-04-10T11:49:58Z</time>
      </trkpt>
      <trkpt lat="43.75799" lon="3.54809">
        <ele>551.93</ele>
        <time>2014-04-10T11:50:25Z</time>
      </trkpt>
      <trkpt lat="43.758" lon="3.5481">
        <ele>551.93</ele>
        <time>2014-04-10T11:50:59Z</time>
      </trkpt>
      <trkpt lat="43.75801" lon="3.54809">
        <ele>551.93</ele>
        <time>2014-04-10T11:51:26Z</time>
      </trkpt>
      <trkpt lat="43.75801" lon="3.5481">
        <ele>551.93</ele>
        <time>2014-04-10T11:51:54Z</time>
      </trkpt>
      <trkpt lat="43.75802" lon="3.54812">
        <ele>551.93</ele>
        <time>2014-04-10T11:52:25Z</time>
      </trkpt>
      <trkpt lat="43.758" lon="3.54811">
        <ele>551.93</ele>
        <time>2014-04-10T11:52:53Z</time>
      </trkpt>
      <trkpt lat="43.75801" lon="3.5481">
        <ele>551.93</ele>
        <time>2014-04-10T11:53:13Z</time>
      </trkpt>
      <trkpt lat="43.75801" lon="3.54808">
        <ele>552.41</ele>
        <time>2014-04-10T11:53:40Z</time>
      </trkpt>
      <trkpt lat="43.75802" lon="3.5481">
        <ele>552.41</ele>
        <time>2014-04-10T11:54:09Z</time>
      </trkpt>
      <trkpt lat="43.758" lon="3.54809">
        <ele>551.93</ele>
        <time>2014-04-10T11:54:33Z</time>
      </trkpt>
      <trkpt lat="43.75799" lon="3.54809">
        <ele>551.93</ele>
        <time>2014-04-10T11:55:08Z</time>
      </trkpt>
      <trkpt lat="43.75801" lon="3.54807">
        <ele>551.93</ele>
        <time>2014-04-10T11:55:35Z</time>
      </trkpt>
      <trkpt lat="43.758" lon="3.54808">
        <ele>551.93</ele>
        <time>2014-04-10T11:55:59Z</time>
      </trkpt>
      <trkpt lat="43.75802" lon="3.5481">
        <ele>551.93</ele>
        <time>2014-04-10T11:56:26Z</time>
      </trkpt>
      <trkpt lat="43.758" lon="3.54811">
        <ele>552.41</ele>
        <time>2014-04-10T11:56:48Z</time>
      </trkpt>
      <trkpt lat="43.75799" lon="3.54812">
        <ele>552.41</ele>
        <time>2014-04-10T11:57:09Z</time>
      </trkpt>
      <trkpt lat="43.758" lon="3.54813">
        <ele>552.41</ele>
        <time>2014-04-10T11:57:30Z</time>
      </trkpt>
      <trkpt lat="43.75803" lon="3.54813">
        <ele>551.93</ele>
        <time>2014-04-10T11:58:10Z</time>
      </trkpt>
      <trkpt lat="43.75803" lon="3.54811">
        <ele>551.93</ele>
        <time>2014-04-10T11:58:38Z</time>
      </trkpt>
      <trkpt lat="43.75803" lon="3.54811">
        <ele>552.41</ele>
        <time>2014-04-10T11:59:03Z</time>
      </trkpt>
      <trkpt lat="43.75806" lon="3.54811">
        <ele>552.41</ele>
        <time>2014-04-10T11:59:21Z</time>
      </trkpt>
      <trkpt lat="43.75809" lon="3.54813">
        <ele>551.93</ele>
        <time>2014-04-10T11:59:57Z</time>
      </trkpt>
      <trkpt lat="43.75808" lon="3.54808">
        <ele>551.93</ele>
        <time>2014-04-10T12:00:28Z</time>
      </trkpt>
      <trkpt lat="43.75808" lon="3.54806">
        <ele>551.93</ele>
        <time>2014-04-10T12:01:00Z</time>
      </trkpt>
      <trkpt lat="43.75809" lon="3.54807">
        <ele>551.93</ele>
        <time>2014-04-10T12:01:28Z</time>
      </trkpt>
      <trkpt lat="43.75809" lon="3.54807">
        <ele>551.93</ele>
        <time>2014-04-10T12:01:56Z</time>
      </trkpt>
      <trkpt lat="43.75809" lon="3.54808">
        <ele>552.41</ele>
        <time>2014-04-10T12:02:26Z</time>
      </trkpt>
      <trkpt lat="43.7581" lon="3.54808">
        <ele>551.93</ele>
        <time>2014-04-10T12:02:43Z</time>
      </trkpt>
      <trkpt lat="43.7581" lon="3.54809">
        <ele>551.93</ele>
        <time>2014-04-10T12:03:10Z</time>
      </trkpt>
      <trkpt lat="43.7581" lon="3.54808">
        <ele>551.93</ele>
        <time>2014-04-10T12:03:39Z</time>
      </trkpt>
      <trkpt lat="43.75809" lon="3.54808">
        <ele>552.41</ele>
        <time>2014-04-10T12:04:01Z</time>
      </trkpt>
      <trkpt lat="43.75806" lon="3.5481">
        <ele>552.41</ele>
        <time>2014-04-10T12:04:43Z</time>
      </trkpt>
      <trkpt lat="43.7581" lon="3.5481">
        <ele>551.93</ele>
        <time>2014-04-10T12:05:02Z</time>
      </trkpt>
      <trkpt lat="43.75811" lon="3.54808">
        <ele>552.41</ele>
        <time>2014-04-10T12:05:23Z</time>
      </trkpt>
      <trkpt lat="43.75812" lon="3.54809">
        <ele>553.86</ele>
        <time>2014-04-10T12:05:37Z</time>
      </trkpt>
      <trkpt lat="43.75818" lon="3.54811">
        <ele>554.82</ele>
        <time>2014-04-10T12:05:54Z</time>
      </trkpt>
      <trkpt lat="43.75822" lon="3.5481">
        <ele>555.78</ele>
        <time>2014-04-10T12:06:09Z</time>
      </trkpt>
      <trkpt lat="43.75826" lon="3.54812">
        <ele>554.82</ele>
        <time>2014-04-10T12:06:23Z</time>
      </trkpt>
      <trkpt lat="43.75828" lon="3.54812">
        <ele>555.78</ele>
        <time>2014-04-10T12:06:37Z</time>
      </trkpt>
      <trkpt lat="43.75829" lon="3.54809">
        <ele>557.22</ele>
        <time>2014-04-10T12:06:49Z</time>
      </trkpt>
      <trkpt lat="43.75832" lon="3.54806">
        <ele>558.18</ele>
        <time>2014-04-10T12:07:02Z</time>
      </trkpt>
      <trkpt lat="43.75833" lon="3.54801">
        <ele>559.62</ele>
        <time>2014-04-10T12:07:17Z</time>
      </trkpt>
      <trkpt lat="43.75835" lon="3.54788">
        <ele>561.07</ele>
        <time>2014-04-10T12:07:32Z</time>
      </trkpt>
      <trkpt lat="43.75838" lon="3.54782">
        <ele>561.55</ele>
        <time>2014-04-10T12:07:52Z</time>
      </trkpt>
      <trkpt lat="43.75838" lon="3.54777">
        <ele>560.59</ele>
        <time>2014-04-10T12:08:08Z</time>
      </trkpt>
      <trkpt lat="43.75848" lon="3.54775">
        <ele>559.14</ele>
        <time>2014-04-10T12:08:22Z</time>
      </trkpt>
      <trkpt lat="43.75856" lon="3.54771">
        <ele>559.62</ele>
        <time>2014-04-10T12:08:37Z</time>
      </trkpt>
      <trkpt lat="43.75855" lon="3.5477">
        <ele>559.14</ele>
        <time>2014-04-10T12:08:48Z</time>
      </trkpt>
      <trkpt lat="43.75855" lon="3.54773">
        <ele>560.59</ele>
        <time>2014-04-10T12:09:00Z</time>
      </trkpt>
      <trkpt lat="43.75857" lon="3.54773">
        <ele>562.03</ele>
        <time>2014-04-10T12:09:11Z</time>
      </trkpt>
      <trkpt lat="43.75861" lon="3.54769">
        <ele>562.03</ele>
        <time>2014-04-10T12:09:30Z</time>
      </trkpt>
      <trkpt lat="43.75865" lon="3.54766">
        <ele>562.51</ele>
        <time>2014-04-10T12:09:43Z</time>
      </trkpt>
      <trkpt lat="43.75867" lon="3.54764">
        <ele>561.07</ele>
        <time>2014-04-10T12:09:58Z</time>
      </trkpt>
      <trkpt lat="43.75866" lon="3.54764">
        <ele>560.59</ele>
        <time>2014-04-10T12:10:17Z</time>
      </trkpt>
      <trkpt lat="43.75866" lon="3.54763">
        <ele>560.11</ele>
        <time>2014-04-10T12:10:32Z</time>
      </trkpt>
      <trkpt lat="43.7587" lon="3.54763">
        <ele>559.62</ele>
        <time>2014-04-10T12:10:52Z</time>
      </trkpt>
      <trkpt lat="43.75878" lon="3.5476">
        <ele>559.62</ele>
        <time>2014-04-10T12:11:09Z</time>
      </trkpt>
      <trkpt lat="43.75883" lon="3.54759">
        <ele>559.14</ele>
        <time>2014-04-10T12:11:16Z</time>
      </trkpt>
      <trkpt lat="43.7589" lon="3.54755">
        <ele>559.62</ele>
        <time>2014-04-10T12:11:29Z</time>
      </trkpt>
      <trkpt lat="43.75888" lon="3.54749">
        <ele>559.14</ele>
        <time>2014-04-10T12:11:43Z</time>
      </trkpt>
      <trkpt lat="43.75896" lon="3.54744">
        <ele>560.11</ele>
        <time>2014-04-10T12:11:54Z</time>
      </trkpt>
      <trkpt lat="43.75898" lon="3.54738">
        <ele>558.66</ele>
        <time>2014-04-10T12:12:06Z</time>
      </trkpt>
      <trkpt lat="43.75897" lon="3.54732">
        <ele>559.14</ele>
        <time>2014-04-10T12:12:20Z</time>
      </trkpt>
      <trkpt lat="43.75901" lon="3.54728">
        <ele>558.18</ele>
        <time>2014-04-10T12:12:32Z</time>
      </trkpt>
      <trkpt lat="43.75903" lon="3.54726">
        <ele>559.14</ele>
        <time>2014-04-10T12:12:38Z</time>
      </trkpt>
      <trkpt lat="43.75905" lon="3.54721">
        <ele>560.11</ele>
        <time>2014-04-10T12:12:52Z</time>
      </trkpt>
      <trkpt lat="43.75906" lon="3.54711">
        <ele>559.14</ele>
        <time>2014-04-10T12:13:07Z</time>
      </trkpt>
      <trkpt lat="43.75914" lon="3.54705">
        <ele>559.14</ele>
        <time>2014-04-10T12:13:20Z</time>
      </trkpt>
      <trkpt lat="43.75911" lon="3.54706">
        <ele>559.14</ele>
        <time>2014-04-10T12:13:33Z</time>
      </trkpt>
      <trkpt lat="43.75912" lon="3.54701">
        <ele>560.11</ele>
        <time>2014-04-10T12:13:45Z</time>
      </trkpt>
      <trkpt lat="43.75914" lon="3.54691">
        <ele>562.03</ele>
        <time>2014-04-10T12:13:59Z</time>
      </trkpt>
      <trkpt lat="43.75916" lon="3.54681">
        <ele>562.99</ele>
        <time>2014-04-10T12:14:16Z</time>
      </trkpt>
      <trkpt lat="43.75919" lon="3.54672">
        <ele>564.91</ele>
        <time>2014-04-10T12:14:30Z</time>
      </trkpt>
      <trkpt lat="43.75913" lon="3.54667">
        <ele>565.87</ele>
        <time>2014-04-10T12:14:45Z</time>
      </trkpt>
      <trkpt lat="43.75912" lon="3.54657">
        <ele>568.28</ele>
        <time>2014-04-10T12:14:57Z</time>
      </trkpt>
      <trkpt lat="43.75915" lon="3.54652">
        <ele>567.8</ele>
        <time>2014-04-10T12:15:16Z</time>
      </trkpt>
      <trkpt lat="43.75914" lon="3.54647">
        <ele>566.35</ele>
        <time>2014-04-10T12:15:29Z</time>
      </trkpt>
      <trkpt lat="43.75911" lon="3.54647">
        <ele>566.35</ele>
        <time>2014-04-10T12:15:52Z</time>
      </trkpt>
      <trkpt lat="43.7591" lon="3.54649">
        <ele>566.83</ele>
        <time>2014-04-10T12:16:05Z</time>
      </trkpt>
      <trkpt lat="43.75908" lon="3.54653">
        <ele>564.91</ele>
        <time>2014-04-10T12:16:20Z</time>
      </trkpt>
      <trkpt lat="43.75907" lon="3.54655">
        <ele>563.47</ele>
        <time>2014-04-10T12:16:31Z</time>
      </trkpt>
      <trkpt lat="43.75904" lon="3.54655">
        <ele>563.95</ele>
        <time>2014-04-10T12:16:44Z</time>
      </trkpt>
      <trkpt lat="43.75897" lon="3.54653">
        <ele>563.95</ele>
        <time>2014-04-10T12:17:01Z</time>
      </trkpt>
      <trkpt lat="43.75891" lon="3.54652">
        <ele>563.95</ele>
        <time>2014-04-10T12:17:14Z</time>
      </trkpt>
      <trkpt lat="43.75888" lon="3.54653">
        <ele>563.95</ele>
        <time>2014-04-10T12:17:26Z</time>
      </trkpt>
      <trkpt lat="43.75884" lon="3.54653">
        <ele>563.47</ele>
        <time>2014-04-10T12:17:40Z</time>
      </trkpt>
      <trkpt lat="43.75883" lon="3.54653">
        <ele>563.95</ele>
        <time>2014-04-10T12:18:04Z</time>
      </trkpt>
      <trkpt lat="43.75883" lon="3.54654">
        <ele>563.95</ele>
        <time>2014-04-10T12:18:18Z</time>
      </trkpt>
      <trkpt lat="43.75883" lon="3.54655">
        <ele>563.47</ele>
        <time>2014-04-10T12:18:49Z</time>
      </trkpt>
      <trkpt lat="43.75882" lon="3.54655">
        <ele>563.95</ele>
        <time>2014-04-10T12:19:11Z</time>
      </trkpt>
      <trkpt lat="43.75882" lon="3.54654">
        <ele>563.95</ele>
        <time>2014-04-10T12:19:28Z</time>
      </trkpt>
      <trkpt lat="43.75884" lon="3.54652">
        <ele>563.95</ele>
        <time>2014-04-10T12:19:47Z</time>
      </trkpt>
      <trkpt lat="43.75886" lon="3.54653">
        <ele>563.47</ele>
        <time>2014-04-10T12:20:02Z</time>
      </trkpt>
      <trkpt lat="43.75887" lon="3.54652">
        <ele>563.47</ele>
        <time>2014-04-10T12:20:19Z</time>
      </trkpt>
      <trkpt lat="43.75888" lon="3.54652">
        <ele>563.47</ele>
        <time>2014-04-10T12:20:34Z</time>
      </trkpt>
      <trkpt lat="43.75888" lon="3.54652">
        <ele>563.47</ele>
        <time>2014-04-10T12:20:58Z</time>
      </trkpt>
      <trkpt lat="43.75888" lon="3.54653">
        <ele>563.47</ele>
        <time>2014-04-10T12:21:13Z</time>
      </trkpt>
      <trkpt lat="43.75887" lon="3.54653">
        <ele>562.99</ele>
        <time>2014-04-10T12:21:32Z</time>
      </trkpt>
      <trkpt lat="43.75887" lon="3.54653">
        <ele>563.47</ele>
        <time>2014-04-10T12:21:56Z</time>
      </trkpt>
      <trkpt lat="43.75884" lon="3.54652">
        <ele>563.47</ele>
        <time>2014-04-10T12:22:13Z</time>
      </trkpt>
      <trkpt lat="43.75883" lon="3.54654">
        <ele>563.47</ele>
        <time>2014-04-10T12:22:42Z</time>
      </trkpt>
      <trkpt lat="43.75885" lon="3.54655">
        <ele>563.47</ele>
        <time>2014-04-10T12:22:58Z</time>
      </trkpt>
      <trkpt lat="43.75887" lon="3.54654">
        <ele>563.47</ele>
        <time>2014-04-10T12:23:19Z</time>
      </trkpt>
      <trkpt lat="43.75888" lon="3.54654">
        <ele>562.99</ele>
        <time>2014-04-10T12:23:50Z</time>
      </trkpt>
      <trkpt lat="43.75885" lon="3.54654">
        <ele>563.47</ele>
        <time>2014-04-10T12:24:02Z</time>
      </trkpt>
      <trkpt lat="43.75885" lon="3.54654">
        <ele>562.99</ele>
        <time>2014-04-10T12:24:19Z</time>
      </trkpt>
      <trkpt lat="43.75886" lon="3.54653">
        <ele>563.47</ele>
        <time>2014-04-10T12:24:32Z</time>
      </trkpt>
      <trkpt lat="43.75886" lon="3.54652">
        <ele>562.99</ele>
        <time>2014-04-10T12:24:48Z</time>
      </trkpt>
      <trkpt lat="43.75886" lon="3.54654">
        <ele>563.47</ele>
        <time>2014-04-10T12:25:12Z</time>
      </trkpt>
      <trkpt lat="43.75879" lon="3.54654">
        <ele>562.99</ele>
        <time>2014-04-10T12:25:34Z</time>
      </trkpt>
      <trkpt lat="43.75887" lon="3.54656">
        <ele>563.47</ele>
        <time>2014-04-10T12:25:53Z</time>
      </trkpt>
      <trkpt lat="43.75886" lon="3.54655">
        <ele>563.95</ele>
        <time>2014-04-10T12:26:07Z</time>
      </trkpt>
      <trkpt lat="43.75885" lon="3.54656">
        <ele>563.95</ele>
        <time>2014-04-10T12:26:19Z</time>
      </trkpt>
      <trkpt lat="43.75884" lon="3.54657">
        <ele>564.43</ele>
        <time>2014-04-10T12:26:35Z</time>
      </trkpt>
      <trkpt lat="43.75884" lon="3.54653">
        <ele>564.43</ele>
        <time>2014-04-10T12:26:47Z</time>
      </trkpt>
      <trkpt lat="43.75885" lon="3.54652">
        <ele>563.95</ele>
        <time>2014-04-10T12:27:02Z</time>
      </trkpt>
      <trkpt lat="43.75884" lon="3.54654">
        <ele>563.95</ele>
        <time>2014-04-10T12:27:27Z</time>
      </trkpt>
      <trkpt lat="43.75885" lon="3.54652">
        <ele>564.43</ele>
        <time>2014-04-10T12:27:47Z</time>
      </trkpt>
      <trkpt lat="43.75886" lon="3.54652">
        <ele>563.47</ele>
        <time>2014-04-10T12:28:02Z</time>
      </trkpt>
      <trkpt lat="43.75883" lon="3.54653">
        <ele>563.95</ele>
        <time>2014-04-10T12:28:29Z</time>
      </trkpt>
      <trkpt lat="43.75883" lon="3.54654">
        <ele>564.43</ele>
        <time>2014-04-10T12:28:50Z</time>
      </trkpt>
      <trkpt lat="43.75883" lon="3.54656">
        <ele>564.43</ele>
        <time>2014-04-10T12:29:15Z</time>
      </trkpt>
      <trkpt lat="43.75883" lon="3.54655">
        <ele>564.43</ele>
        <time>2014-04-10T12:29:33Z</time>
      </trkpt>
      <trkpt lat="43.75884" lon="3.54654">
        <ele>563.95</ele>
        <time>2014-04-10T12:29:56Z</time>
      </trkpt>
      <trkpt lat="43.75884" lon="3.54653">
        <ele>564.43</ele>
        <time>2014-04-10T12:30:23Z</time>
      </trkpt>
      <trkpt lat="43.75884" lon="3.54653">
        <ele>563.95</ele>
        <time>2014-04-10T12:30:42Z</time>
      </trkpt>
      <trkpt lat="43.75884" lon="3.54654">
        <ele>564.43</ele>
        <time>2014-04-10T12:31:01Z</time>
      </trkpt>
      <trkpt lat="43.75885" lon="3.54652">
        <ele>564.91</ele>
        <time>2014-04-10T12:31:14Z</time>
      </trkpt>
      <trkpt lat="43.75886" lon="3.54646">
        <ele>564.43</ele>
        <time>2014-04-10T12:31:35Z</time>
      </trkpt>
      <trkpt lat="43.75889" lon="3.54641">
        <ele>564.43</ele>
        <time>2014-04-10T12:31:42Z</time>
      </trkpt>
      <trkpt lat="43.75892" lon="3.54629">
        <ele>564.91</ele>
        <time>2014-04-10T12:31:55Z</time>
      </trkpt>
      <trkpt lat="43.75891" lon="3.54631">
        <ele>564.91</ele>
        <time>2014-04-10T12:32:09Z</time>
      </trkpt>
      <trkpt lat="43.7589" lon="3.54627">
        <ele>564.91</ele>
        <time>2014-04-10T12:32:24Z</time>
      </trkpt>
      <trkpt lat="43.75892" lon="3.54617">
        <ele>567.8</ele>
        <time>2014-04-10T12:32:38Z</time>
      </trkpt>
      <trkpt lat="43.75892" lon="3.54605">
        <ele>570.2</ele>
        <time>2014-04-10T12:32:51Z</time>
      </trkpt>
      <trkpt lat="43.75895" lon="3.54596">
        <ele>571.64</ele>
        <time>2014-04-10T12:33:02Z</time>
      </trkpt>
      <trkpt lat="43.75898" lon="3.54588">
        <ele>573.56</ele>
        <time>2014-04-10T12:33:19Z</time>
      </trkpt>
      <trkpt lat="43.759" lon="3.54584">
        <ele>575.49</ele>
        <time>2014-04-10T12:33:33Z</time>
      </trkpt>
      <trkpt lat="43.75901" lon="3.54578">
        <ele>576.45</ele>
        <time>2014-04-10T12:33:44Z</time>
      </trkpt>
      <trkpt lat="43.759" lon="3.54572">
        <ele>578.85</ele>
        <time>2014-04-10T12:33:53Z</time>
      </trkpt>
      <trkpt lat="43.75899" lon="3.54568">
        <ele>578.85</ele>
        <time>2014-04-10T12:33:57Z</time>
      </trkpt>
      <trkpt lat="43.75898" lon="3.54559">
        <ele>578.85</ele>
        <time>2014-04-10T12:34:04Z</time>
      </trkpt>
      <trkpt lat="43.75899" lon="3.54546">
        <ele>580.29</ele>
        <time>2014-04-10T12:34:18Z</time>
      </trkpt>
      <trkpt lat="43.75899" lon="3.54545">
        <ele>580.29</ele>
        <time>2014-04-10T12:34:19Z</time>
      </trkpt>
      <trkpt lat="43.75902" lon="3.54541">
        <ele>580.29</ele>
        <time>2014-04-10T12:34:23Z</time>
      </trkpt>
      <trkpt lat="43.75909" lon="3.54537">
        <ele>582.22</ele>
        <time>2014-04-10T12:34:35Z</time>
      </trkpt>
      <trkpt lat="43.75911" lon="3.54532">
        <ele>584.14</ele>
        <time>2014-04-10T12:34:46Z</time>
      </trkpt>
      <trkpt lat="43.75914" lon="3.54528">
        <ele>584.62</ele>
        <time>2014-04-10T12:34:51Z</time>
      </trkpt>
      <trkpt lat="43.75918" lon="3.54526">
        <ele>585.1</ele>
        <time>2014-04-10T12:34:57Z</time>
      </trkpt>
      <trkpt lat="43.7592" lon="3.54526">
        <ele>585.58</ele>
        <time>2014-04-10T12:34:59Z</time>
      </trkpt>
      <trkpt lat="43.75927" lon="3.54522">
        <ele>586.54</ele>
        <time>2014-04-10T12:35:10Z</time>
      </trkpt>
      <trkpt lat="43.75938" lon="3.54517">
        <ele>586.06</ele>
        <time>2014-04-10T12:35:24Z</time>
      </trkpt>
      <trkpt lat="43.75942" lon="3.54514">
        <ele>584.62</ele>
        <time>2014-04-10T12:35:34Z</time>
      </trkpt>
      <trkpt lat="43.75949" lon="3.54504">
        <ele>585.1</ele>
        <time>2014-04-10T12:35:47Z</time>
      </trkpt>
      <trkpt lat="43.75949" lon="3.54503">
        <ele>585.1</ele>
        <time>2014-04-10T12:35:48Z</time>
      </trkpt>
      <trkpt lat="43.75955" lon="3.54493">
        <ele>586.06</ele>
        <time>2014-04-10T12:35:57Z</time>
      </trkpt>
      <trkpt lat="43.75956" lon="3.54481">
        <ele>586.06</ele>
        <time>2014-04-10T12:36:08Z</time>
      </trkpt>
      <trkpt lat="43.75957" lon="3.54468">
        <ele>585.58</ele>
        <time>2014-04-10T12:36:18Z</time>
      </trkpt>
      <trkpt lat="43.75958" lon="3.54456">
        <ele>585.58</ele>
        <time>2014-04-10T12:36:29Z</time>
      </trkpt>
      <trkpt lat="43.7596" lon="3.54448">
        <ele>587.02</ele>
        <time>2014-04-10T12:36:36Z</time>
      </trkpt>
      <trkpt lat="43.75966" lon="3.54438">
        <ele>588.95</ele>
        <time>2014-04-10T12:36:48Z</time>
      </trkpt>
      <trkpt lat="43.75973" lon="3.54431">
        <ele>592.31</ele>
        <time>2014-04-10T12:37:00Z</time>
      </trkpt>
      <trkpt lat="43.75978" lon="3.54418">
        <ele>595.19</ele>
        <time>2014-04-10T12:37:13Z</time>
      </trkpt>
      <trkpt lat="43.75982" lon="3.54416">
        <ele>596.64</ele>
        <time>2014-04-10T12:37:21Z</time>
      </trkpt>
      <trkpt lat="43.7599" lon="3.54406">
        <ele>599.04</ele>
        <time>2014-04-10T12:37:35Z</time>
      </trkpt>
      <trkpt lat="43.75995" lon="3.54401">
        <ele>601.44</ele>
        <time>2014-04-10T12:37:47Z</time>
      </trkpt>
      <trkpt lat="43.76" lon="3.54395">
        <ele>601.44</ele>
        <time>2014-04-10T12:37:52Z</time>
      </trkpt>
      <trkpt lat="43.76008" lon="3.54382">
        <ele>602.88</ele>
        <time>2014-04-10T12:38:05Z</time>
      </trkpt>
      <trkpt lat="43.76014" lon="3.54378">
        <ele>604.81</ele>
        <time>2014-04-10T12:38:20Z</time>
      </trkpt>
      <trkpt lat="43.76021" lon="3.54375">
        <ele>605.29</ele>
        <time>2014-04-10T12:38:35Z</time>
      </trkpt>
      <trkpt lat="43.76021" lon="3.54374">
        <ele>605.29</ele>
        <time>2014-04-10T12:38:50Z</time>
      </trkpt>
      <trkpt lat="43.76019" lon="3.54374">
        <ele>604.33</ele>
        <time>2014-04-10T12:39:16Z</time>
      </trkpt>
      <trkpt lat="43.76026" lon="3.54374">
        <ele>604.33</ele>
        <time>2014-04-10T12:39:32Z</time>
      </trkpt>
      <trkpt lat="43.7603" lon="3.54374">
        <ele>604.33</ele>
        <time>2014-04-10T12:39:52Z</time>
      </trkpt>
      <trkpt lat="43.76032" lon="3.54376">
        <ele>604.81</ele>
        <time>2014-04-10T12:40:12Z</time>
      </trkpt>
      <trkpt lat="43.76024" lon="3.54377">
        <ele>603.85</ele>
        <time>2014-04-10T12:40:37Z</time>
      </trkpt>
      <trkpt lat="43.76019" lon="3.54376">
        <ele>603.85</ele>
        <time>2014-04-10T12:41:03Z</time>
      </trkpt>
      <trkpt lat="43.76019" lon="3.54375">
        <ele>603.85</ele>
        <time>2014-04-10T12:41:18Z</time>
      </trkpt>
      <trkpt lat="43.76019" lon="3.54372">
        <ele>604.33</ele>
        <time>2014-04-10T12:41:42Z</time>
      </trkpt>
      <trkpt lat="43.76019" lon="3.54373">
        <ele>603.85</ele>
        <time>2014-04-10T12:41:58Z</time>
      </trkpt>
      <trkpt lat="43.76018" lon="3.54372">
        <ele>604.33</ele>
        <time>2014-04-10T12:42:13Z</time>
      </trkpt>
      <trkpt lat="43.76018" lon="3.54374">
        <ele>604.81</ele>
        <time>2014-04-10T12:42:31Z</time>
      </trkpt>
      <trkpt lat="43.76017" lon="3.54373">
        <ele>605.29</ele>
        <time>2014-04-10T12:42:46Z</time>
      </trkpt>
      <trkpt lat="43.76021" lon="3.54372">
        <ele>605.29</ele>
        <time>2014-04-10T12:43:02Z</time>
      </trkpt>
      <trkpt lat="43.76028" lon="3.54377">
        <ele>607.21</ele>
        <time>2014-04-10T12:43:13Z</time>
      </trkpt>
      <trkpt lat="43.76033" lon="3.54381">
        <ele>607.69</ele>
        <time>2014-04-10T12:43:21Z</time>
      </trkpt>
      <trkpt lat="43.76044" lon="3.54384">
        <ele>609.61</ele>
        <time>2014-04-10T12:43:35Z</time>
      </trkpt>
      <trkpt lat="43.76054" lon="3.54386">
        <ele>611.06</ele>
        <time>2014-04-10T12:43:48Z</time>
      </trkpt>
      <trkpt lat="43.76054" lon="3.5439">
        <ele>611.06</ele>
        <time>2014-04-10T12:43:58Z</time>
      </trkpt>
      <trkpt lat="43.76056" lon="3.54402">
        <ele>611.54</ele>
        <time>2014-04-10T12:44:10Z</time>
      </trkpt>
      <trkpt lat="43.76064" lon="3.54401">
        <ele>612.02</ele>
        <time>2014-04-10T12:44:21Z</time>
      </trkpt>
      <trkpt lat="43.76073" lon="3.54406">
        <ele>613.46</ele>
        <time>2014-04-10T12:44:34Z</time>
      </trkpt>
      <trkpt lat="43.76076" lon="3.54413">
        <ele>614.42</ele>
        <time>2014-04-10T12:44:45Z</time>
      </trkpt>
      <trkpt lat="43.76078" lon="3.54414">
        <ele>614.42</ele>
        <time>2014-04-10T12:44:51Z</time>
      </trkpt>
      <trkpt lat="43.76082" lon="3.54417">
        <ele>614.42</ele>
        <time>2014-04-10T12:44:56Z</time>
      </trkpt>
      <trkpt lat="43.76092" lon="3.54415">
        <ele>615.38</ele>
        <time>2014-04-10T12:45:09Z</time>
      </trkpt>
      <trkpt lat="43.761" lon="3.54409">
        <ele>615.38</ele>
        <time>2014-04-10T12:45:21Z</time>
      </trkpt>
      <trkpt lat="43.76102" lon="3.54409">
        <ele>615.38</ele>
        <time>2014-04-10T12:45:23Z</time>
      </trkpt>
      <trkpt lat="43.76103" lon="3.54408">
        <ele>615.86</ele>
        <time>2014-04-10T12:45:25Z</time>
      </trkpt>
      <trkpt lat="43.76104" lon="3.54406">
        <ele>615.86</ele>
        <time>2014-04-10T12:45:27Z</time>
      </trkpt>
      <trkpt lat="43.76103" lon="3.54402">
        <ele>615.38</ele>
        <time>2014-04-10T12:45:31Z</time>
      </trkpt>
      <trkpt lat="43.76111" lon="3.544">
        <ele>615.86</ele>
        <time>2014-04-10T12:45:41Z</time>
      </trkpt>
      <trkpt lat="43.76114" lon="3.54402">
        <ele>616.34</ele>
        <time>2014-04-10T12:45:44Z</time>
      </trkpt>
      <trkpt lat="43.76117" lon="3.54401">
        <ele>616.82</ele>
        <time>2014-04-10T12:45:46Z</time>
      </trkpt>
      <trkpt lat="43.76121" lon="3.544">
        <ele>616.34</ele>
        <time>2014-04-10T12:45:51Z</time>
      </trkpt>
      <trkpt lat="43.76129" lon="3.54403">
        <ele>617.3</ele>
        <time>2014-04-10T12:46:03Z</time>
      </trkpt>
      <trkpt lat="43.76132" lon="3.54404">
        <ele>617.78</ele>
        <time>2014-04-10T12:46:13Z</time>
      </trkpt>
      <trkpt lat="43.76133" lon="3.54411">
        <ele>617.78</ele>
        <time>2014-04-10T12:46:22Z</time>
      </trkpt>
      <trkpt lat="43.76137" lon="3.54415">
        <ele>617.78</ele>
        <time>2014-04-10T12:46:27Z</time>
      </trkpt>
      <trkpt lat="43.7614" lon="3.54417">
        <ele>617.78</ele>
        <time>2014-04-10T12:46:31Z</time>
      </trkpt>
      <trkpt lat="43.76145" lon="3.54427">
        <ele>618.75</ele>
        <time>2014-04-10T12:46:42Z</time>
      </trkpt>
      <trkpt lat="43.76146" lon="3.54431">
        <ele>618.75</ele>
        <time>2014-04-10T12:46:47Z</time>
      </trkpt>
      <trkpt lat="43.76146" lon="3.54435">
        <ele>619.23</ele>
        <time>2014-04-10T12:46:50Z</time>
      </trkpt>
      <trkpt lat="43.76151" lon="3.54441">
        <ele>620.19</ele>
        <time>2014-04-10T12:47:02Z</time>
      </trkpt>
      <trkpt lat="43.76151" lon="3.54437">
        <ele>619.23</ele>
        <time>2014-04-10T12:47:13Z</time>
      </trkpt>
      <trkpt lat="43.76151" lon="3.54436">
        <ele>618.75</ele>
        <time>2014-04-10T12:47:26Z</time>
      </trkpt>
      <trkpt lat="43.76152" lon="3.54433">
        <ele>617.78</ele>
        <time>2014-04-10T12:47:41Z</time>
      </trkpt>
      <trkpt lat="43.76156" lon="3.54428">
        <ele>615.86</ele>
        <time>2014-04-10T12:47:56Z</time>
      </trkpt>
      <trkpt lat="43.76155" lon="3.54428">
        <ele>615.86</ele>
        <time>2014-04-10T12:48:01Z</time>
      </trkpt>
      <trkpt lat="43.76159" lon="3.54426">
        <ele>613.46</ele>
        <time>2014-04-10T12:48:11Z</time>
      </trkpt>
      <trkpt lat="43.76162" lon="3.54423">
        <ele>612.5</ele>
        <time>2014-04-10T12:48:16Z</time>
      </trkpt>
      <trkpt lat="43.76169" lon="3.54418">
        <ele>609.61</ele>
        <time>2014-04-10T12:48:29Z</time>
      </trkpt>
      <trkpt lat="43.76173" lon="3.54412">
        <ele>606.73</ele>
        <time>2014-04-10T12:48:44Z</time>
      </trkpt>
      <trkpt lat="43.76176" lon="3.54405">
        <ele>604.33</ele>
        <time>2014-04-10T12:48:56Z</time>
      </trkpt>
      <trkpt lat="43.76176" lon="3.54398">
        <ele>601.44</ele>
        <time>2014-04-10T12:49:09Z</time>
      </trkpt>
      <trkpt lat="43.76181" lon="3.54387">
        <ele>598.08</ele>
        <time>2014-04-10T12:49:23Z</time>
      </trkpt>
      <trkpt lat="43.76182" lon="3.54382">
        <ele>596.15</ele>
        <time>2014-04-10T12:49:34Z</time>
      </trkpt>
      <trkpt lat="43.76183" lon="3.54377">
        <ele>593.27</ele>
        <time>2014-04-10T12:49:48Z</time>
      </trkpt>
      <trkpt lat="43.76185" lon="3.54373">
        <ele>592.31</ele>
        <time>2014-04-10T12:50:02Z</time>
      </trkpt>
      <trkpt lat="43.76187" lon="3.54367">
        <ele>590.39</ele>
        <time>2014-04-10T12:50:15Z</time>
      </trkpt>
      <trkpt lat="43.76194" lon="3.54364">
        <ele>587.98</ele>
        <time>2014-04-10T12:50:31Z</time>
      </trkpt>
      <trkpt lat="43.76198" lon="3.5436">
        <ele>586.54</ele>
        <time>2014-04-10T12:50:44Z</time>
      </trkpt>
      <trkpt lat="43.76199" lon="3.54353">
        <ele>584.14</ele>
        <time>2014-04-10T12:51:00Z</time>
      </trkpt>
      <trkpt lat="43.762" lon="3.54347">
        <ele>581.25</ele>
        <time>2014-04-10T12:51:12Z</time>
      </trkpt>
      <trkpt lat="43.76204" lon="3.54341">
        <ele>579.81</ele>
        <time>2014-04-10T12:51:27Z</time>
      </trkpt>
      <trkpt lat="43.76206" lon="3.54335">
        <ele>577.41</ele>
        <time>2014-04-10T12:51:44Z</time>
      </trkpt>
      <trkpt lat="43.76214" lon="3.54337">
        <ele>577.41</ele>
        <time>2014-04-10T12:52:09Z</time>
      </trkpt>
      <trkpt lat="43.76217" lon="3.54343">
        <ele>577.41</ele>
        <time>2014-04-10T12:52:29Z</time>
      </trkpt>
      <trkpt lat="43.7621" lon="3.54336">
        <ele>577.41</ele>
        <time>2014-04-10T12:52:59Z</time>
      </trkpt>
      <trkpt lat="43.76217" lon="3.54336">
        <ele>577.89</ele>
        <time>2014-04-10T12:53:11Z</time>
      </trkpt>
      <trkpt lat="43.76219" lon="3.54336">
        <ele>577.41</ele>
        <time>2014-04-10T12:53:13Z</time>
      </trkpt>
      <trkpt lat="43.76229" lon="3.54338">
        <ele>578.37</ele>
        <time>2014-04-10T12:53:26Z</time>
      </trkpt>
      <trkpt lat="43.76236" lon="3.54346">
        <ele>578.85</ele>
        <time>2014-04-10T12:53:37Z</time>
      </trkpt>
      <trkpt lat="43.76236" lon="3.5435">
        <ele>578.85</ele>
        <time>2014-04-10T12:53:40Z</time>
      </trkpt>
      <trkpt lat="43.76236" lon="3.54356">
        <ele>579.81</ele>
        <time>2014-04-10T12:53:45Z</time>
      </trkpt>
      <trkpt lat="43.76237" lon="3.54372">
        <ele>580.29</ele>
        <time>2014-04-10T12:53:58Z</time>
      </trkpt>
      <trkpt lat="43.76237" lon="3.54388">
        <ele>580.29</ele>
        <time>2014-04-10T12:54:11Z</time>
      </trkpt>
      <trkpt lat="43.7624" lon="3.544">
        <ele>580.29</ele>
        <time>2014-04-10T12:54:25Z</time>
      </trkpt>
      <trkpt lat="43.76242" lon="3.544">
        <ele>580.29</ele>
        <time>2014-04-10T12:54:27Z</time>
      </trkpt>
      <trkpt lat="43.76256" lon="3.54401">
        <ele>580.77</ele>
        <time>2014-04-10T12:54:41Z</time>
      </trkpt>
      <trkpt lat="43.76268" lon="3.54402">
        <ele>581.25</ele>
        <time>2014-04-10T12:54:54Z</time>
      </trkpt>
      <trkpt lat="43.76274" lon="3.54411">
        <ele>581.73</ele>
        <time>2014-04-10T12:55:04Z</time>
      </trkpt>
      <trkpt lat="43.76281" lon="3.54423">
        <ele>582.22</ele>
        <time>2014-04-10T12:55:15Z</time>
      </trkpt>
      <trkpt lat="43.76287" lon="3.54436">
        <ele>581.73</ele>
        <time>2014-04-10T12:55:26Z</time>
      </trkpt>
      <trkpt lat="43.7629" lon="3.54453">
        <ele>580.77</ele>
        <time>2014-04-10T12:55:40Z</time>
      </trkpt>
      <trkpt lat="43.7629" lon="3.54454">
        <ele>580.77</ele>
        <time>2014-04-10T12:55:41Z</time>
      </trkpt>
      <trkpt lat="43.76288" lon="3.54468">
        <ele>581.25</ele>
        <time>2014-04-10T12:55:51Z</time>
      </trkpt>
      <trkpt lat="43.76284" lon="3.54483">
        <ele>580.77</ele>
        <time>2014-04-10T12:56:04Z</time>
      </trkpt>
      <trkpt lat="43.76283" lon="3.54492">
        <ele>580.77</ele>
        <time>2014-04-10T12:56:10Z</time>
      </trkpt>
      <trkpt lat="43.76281" lon="3.54519">
        <ele>580.77</ele>
        <time>2014-04-10T12:56:27Z</time>
      </trkpt>
      <trkpt lat="43.76276" lon="3.54539">
        <ele>580.77</ele>
        <time>2014-04-10T12:56:43Z</time>
      </trkpt>
      <trkpt lat="43.76273" lon="3.54555">
        <ele>580.77</ele>
        <time>2014-04-10T12:56:56Z</time>
      </trkpt>
      <trkpt lat="43.76273" lon="3.54562">
        <ele>580.77</ele>
        <time>2014-04-10T12:57:01Z</time>
      </trkpt>
      <trkpt lat="43.76271" lon="3.54573">
        <ele>580.77</ele>
        <time>2014-04-10T12:57:07Z</time>
      </trkpt>
      <trkpt lat="43.76272" lon="3.5458">
        <ele>580.77</ele>
        <time>2014-04-10T12:57:12Z</time>
      </trkpt>
      <trkpt lat="43.76272" lon="3.54593">
        <ele>581.25</ele>
        <time>2014-04-10T12:57:21Z</time>
      </trkpt>
      <trkpt lat="43.76276" lon="3.5461">
        <ele>581.73</ele>
        <time>2014-04-10T12:57:33Z</time>
      </trkpt>
      <trkpt lat="43.76279" lon="3.54612">
        <ele>581.73</ele>
        <time>2014-04-10T12:57:35Z</time>
      </trkpt>
      <trkpt lat="43.76302" lon="3.54607">
        <ele>582.7</ele>
        <time>2014-04-10T12:57:51Z</time>
      </trkpt>
      <trkpt lat="43.76324" lon="3.546">
        <ele>583.18</ele>
        <time>2014-04-10T12:58:07Z</time>
      </trkpt>
      <trkpt lat="43.7633" lon="3.54604">
        <ele>583.66</ele>
        <time>2014-04-10T12:58:14Z</time>
      </trkpt>
      <trkpt lat="43.76326" lon="3.54615">
        <ele>583.66</ele>
        <time>2014-04-10T12:58:21Z</time>
      </trkpt>
      <trkpt lat="43.7632" lon="3.54626">
        <ele>583.66</ele>
        <time>2014-04-10T12:58:29Z</time>
      </trkpt>
      <trkpt lat="43.76318" lon="3.54633">
        <ele>584.14</ele>
        <time>2014-04-10T12:58:34Z</time>
      </trkpt>
      <trkpt lat="43.76316" lon="3.54639">
        <ele>584.14</ele>
        <time>2014-04-10T12:58:38Z</time>
      </trkpt>
      <trkpt lat="43.76315" lon="3.5466">
        <ele>584.14</ele>
        <time>2014-04-10T12:58:51Z</time>
      </trkpt>
      <trkpt lat="43.76318" lon="3.54669">
        <ele>583.66</ele>
        <time>2014-04-10T12:58:58Z</time>
      </trkpt>
      <trkpt lat="43.7632" lon="3.54675">
        <ele>583.18</ele>
        <time>2014-04-10T12:59:04Z</time>
      </trkpt>
      <trkpt lat="43.76323" lon="3.54681">
        <ele>583.18</ele>
        <time>2014-04-10T12:59:09Z</time>
      </trkpt>
      <trkpt lat="43.76325" lon="3.54696">
        <ele>582.7</ele>
        <time>2014-04-10T12:59:23Z</time>
      </trkpt>
      <trkpt lat="43.76321" lon="3.54719">
        <ele>582.22</ele>
        <time>2014-04-10T12:59:41Z</time>
      </trkpt>
      <trkpt lat="43.76337" lon="3.54733">
        <ele>582.22</ele>
        <time>2014-04-10T12:59:57Z</time>
      </trkpt>
      <trkpt lat="43.76347" lon="3.54746">
        <ele>582.22</ele>
        <time>2014-04-10T13:00:10Z</time>
      </trkpt>
      <trkpt lat="43.76353" lon="3.54753">
        <ele>582.7</ele>
        <time>2014-04-10T13:00:17Z</time>
      </trkpt>
      <trkpt lat="43.76362" lon="3.54777">
        <ele>582.7</ele>
        <time>2014-04-10T13:00:33Z</time>
      </trkpt>
      <trkpt lat="43.76358" lon="3.54788">
        <ele>582.22</ele>
        <time>2014-04-10T13:00:42Z</time>
      </trkpt>
      <trkpt lat="43.76351" lon="3.54811">
        <ele>580.77</ele>
        <time>2014-04-10T13:00:59Z</time>
      </trkpt>
      <trkpt lat="43.76351" lon="3.54812">
        <ele>580.29</ele>
        <time>2014-04-10T13:01:00Z</time>
      </trkpt>
      <trkpt lat="43.76343" lon="3.54834">
        <ele>578.85</ele>
        <time>2014-04-10T13:01:16Z</time>
      </trkpt>
      <trkpt lat="43.76335" lon="3.54854">
        <ele>577.41</ele>
        <time>2014-04-10T13:01:32Z</time>
      </trkpt>
      <trkpt lat="43.7633" lon="3.54873">
        <ele>576.45</ele>
        <time>2014-04-10T13:01:47Z</time>
      </trkpt>
      <trkpt lat="43.76327" lon="3.54887">
        <ele>575.97</ele>
        <time>2014-04-10T13:01:58Z</time>
      </trkpt>
      <trkpt lat="43.76319" lon="3.54908">
        <ele>575.01</ele>
        <time>2014-04-10T13:02:15Z</time>
      </trkpt>
      <trkpt lat="43.76311" lon="3.54922">
        <ele>574.04</ele>
        <time>2014-04-10T13:02:26Z</time>
      </trkpt>
      <trkpt lat="43.76299" lon="3.54939">
        <ele>573.56</ele>
        <time>2014-04-10T13:02:44Z</time>
      </trkpt>
      <trkpt lat="43.76298" lon="3.5494">
        <ele>573.56</ele>
        <time>2014-04-10T13:02:45Z</time>
      </trkpt>
      <trkpt lat="43.76289" lon="3.54948">
        <ele>573.08</ele>
        <time>2014-04-10T13:02:55Z</time>
      </trkpt>
      <trkpt lat="43.76273" lon="3.54961">
        <ele>572.6</ele>
        <time>2014-04-10T13:03:11Z</time>
      </trkpt>
      <trkpt lat="43.76261" lon="3.54972">
        <ele>572.6</ele>
        <time>2014-04-10T13:03:25Z</time>
      </trkpt>
      <trkpt lat="43.7625" lon="3.54988">
        <ele>573.08</ele>
        <time>2014-04-10T13:03:41Z</time>
      </trkpt>
      <trkpt lat="43.7624" lon="3.55007">
        <ele>574.04</ele>
        <time>2014-04-10T13:03:56Z</time>
      </trkpt>
      <trkpt lat="43.7623" lon="3.55025">
        <ele>574.53</ele>
        <time>2014-04-10T13:04:12Z</time>
      </trkpt>
      <trkpt lat="43.76218" lon="3.55044">
        <ele>575.97</ele>
        <time>2014-04-10T13:04:28Z</time>
      </trkpt>
      <trkpt lat="43.76209" lon="3.55062">
        <ele>577.41</ele>
        <time>2014-04-10T13:04:45Z</time>
      </trkpt>
      <trkpt lat="43.762" lon="3.55072">
        <ele>578.85</ele>
        <time>2014-04-10T13:04:58Z</time>
      </trkpt>
      <trkpt lat="43.76188" lon="3.55077">
        <ele>579.81</ele>
        <time>2014-04-10T13:05:12Z</time>
      </trkpt>
      <trkpt lat="43.76176" lon="3.55084">
        <ele>581.25</ele>
        <time>2014-04-10T13:05:28Z</time>
      </trkpt>
      <trkpt lat="43.76174" lon="3.55095">
        <ele>582.22</ele>
        <time>2014-04-10T13:05:41Z</time>
      </trkpt>
      <trkpt lat="43.76173" lon="3.55105">
        <ele>582.22</ele>
        <time>2014-04-10T13:05:52Z</time>
      </trkpt>
      <trkpt lat="43.76176" lon="3.55115">
        <ele>582.22</ele>
        <time>2014-04-10T13:06:00Z</time>
      </trkpt>
      <trkpt lat="43.76177" lon="3.55121">
        <ele>582.22</ele>
        <time>2014-04-10T13:06:04Z</time>
      </trkpt>
      <trkpt lat="43.76185" lon="3.55133">
        <ele>582.22</ele>
        <time>2014-04-10T13:06:16Z</time>
      </trkpt>
      <trkpt lat="43.76191" lon="3.55144">
        <ele>582.22</ele>
        <time>2014-04-10T13:06:28Z</time>
      </trkpt>
      <trkpt lat="43.76191" lon="3.55145">
        <ele>582.7</ele>
        <time>2014-04-10T13:06:29Z</time>
      </trkpt>
      <trkpt lat="43.76197" lon="3.55158">
        <ele>583.18</ele>
        <time>2014-04-10T13:06:41Z</time>
      </trkpt>
      <trkpt lat="43.76201" lon="3.55177">
        <ele>583.66</ele>
        <time>2014-04-10T13:06:54Z</time>
      </trkpt>
      <trkpt lat="43.76207" lon="3.55192">
        <ele>584.14</ele>
        <time>2014-04-10T13:07:07Z</time>
      </trkpt>
      <trkpt lat="43.76215" lon="3.552">
        <ele>585.1</ele>
        <time>2014-04-10T13:07:20Z</time>
      </trkpt>
      <trkpt lat="43.76216" lon="3.55202">
        <ele>585.58</ele>
        <time>2014-04-10T13:07:32Z</time>
      </trkpt>
      <trkpt lat="43.76215" lon="3.55199">
        <ele>585.1</ele>
        <time>2014-04-10T13:07:49Z</time>
      </trkpt>
      <trkpt lat="43.76215" lon="3.55199">
        <ele>585.58</ele>
        <time>2014-04-10T13:08:14Z</time>
      </trkpt>
      <trkpt lat="43.76215" lon="3.55196">
        <ele>585.58</ele>
        <time>2014-04-10T13:08:31Z</time>
      </trkpt>
      <trkpt lat="43.76215" lon="3.55189">
        <ele>585.58</ele>
        <time>2014-04-10T13:09:00Z</time>
      </trkpt>
      <trkpt lat="43.76216" lon="3.55195">
        <ele>585.1</ele>
        <time>2014-04-10T13:09:17Z</time>
      </trkpt>
      <trkpt lat="43.76215" lon="3.55207">
        <ele>585.1</ele>
        <time>2014-04-10T13:09:29Z</time>
      </trkpt>
      <trkpt lat="43.76214" lon="3.55207">
        <ele>585.1</ele>
        <time>2014-04-10T13:09:30Z</time>
      </trkpt>
      <trkpt lat="43.76206" lon="3.55217">
        <ele>585.1</ele>
        <time>2014-04-10T13:09:42Z</time>
      </trkpt>
      <trkpt lat="43.76201" lon="3.55222">
        <ele>584.14</ele>
        <time>2014-04-10T13:09:56Z</time>
      </trkpt>
      <trkpt lat="43.76198" lon="3.5522">
        <ele>584.14</ele>
        <time>2014-04-10T13:10:01Z</time>
      </trkpt>
      <trkpt lat="43.76191" lon="3.5522">
        <ele>583.66</ele>
        <time>2014-04-10T13:10:16Z</time>
      </trkpt>
      <trkpt lat="43.76189" lon="3.55221">
        <ele>583.66</ele>
        <time>2014-04-10T13:10:29Z</time>
      </trkpt>
      <trkpt lat="43.76188" lon="3.55223">
        <ele>583.66</ele>
        <time>2014-04-10T13:10:39Z</time>
      </trkpt>
      <trkpt lat="43.76188" lon="3.55234">
        <ele>585.1</ele>
        <time>2014-04-10T13:10:52Z</time>
      </trkpt>
      <trkpt lat="43.76191" lon="3.55243">
        <ele>584.62</ele>
        <time>2014-04-10T13:11:06Z</time>
      </trkpt>
      <trkpt lat="43.76196" lon="3.55245">
        <ele>584.14</ele>
        <time>2014-04-10T13:11:17Z</time>
      </trkpt>
      <trkpt lat="43.76198" lon="3.55251">
        <ele>582.7</ele>
        <time>2014-04-10T13:11:30Z</time>
      </trkpt>
      <trkpt lat="43.76196" lon="3.55256">
        <ele>584.14</ele>
        <time>2014-04-10T13:11:42Z</time>
      </trkpt>
      <trkpt lat="43.76198" lon="3.55256">
        <ele>584.14</ele>
        <time>2014-04-10T13:11:59Z</time>
      </trkpt>
      <trkpt lat="43.76198" lon="3.55256">
        <ele>583.66</ele>
        <time>2014-04-10T13:12:20Z</time>
      </trkpt>
      <trkpt lat="43.76199" lon="3.55253">
        <ele>582.7</ele>
        <time>2014-04-10T13:12:36Z</time>
      </trkpt>
      <trkpt lat="43.76199" lon="3.55249">
        <ele>582.22</ele>
        <time>2014-04-10T13:12:40Z</time>
      </trkpt>
      <trkpt lat="43.76198" lon="3.55246">
        <ele>582.7</ele>
        <time>2014-04-10T13:12:43Z</time>
      </trkpt>
      <trkpt lat="43.7619" lon="3.55237">
        <ele>584.62</ele>
        <time>2014-04-10T13:12:55Z</time>
      </trkpt>
      <trkpt lat="43.7619" lon="3.55227">
        <ele>583.66</ele>
        <time>2014-04-10T13:13:07Z</time>
      </trkpt>
      <trkpt lat="43.76186" lon="3.55228">
        <ele>584.14</ele>
        <time>2014-04-10T13:13:14Z</time>
      </trkpt>
      <trkpt lat="43.76176" lon="3.55231">
        <ele>583.66</ele>
        <time>2014-04-10T13:13:26Z</time>
      </trkpt>
      <trkpt lat="43.76164" lon="3.55238">
        <ele>583.18</ele>
        <time>2014-04-10T13:13:41Z</time>
      </trkpt>
      <trkpt lat="43.76158" lon="3.55242">
        <ele>583.18</ele>
        <time>2014-04-10T13:13:56Z</time>
      </trkpt>
      <trkpt lat="43.76159" lon="3.55243">
        <ele>582.7</ele>
        <time>2014-04-10T13:14:14Z</time>
      </trkpt>
      <trkpt lat="43.7615" lon="3.55249">
        <ele>581.73</ele>
        <time>2014-04-10T13:14:26Z</time>
      </trkpt>
      <trkpt lat="43.76149" lon="3.5525">
        <ele>581.25</ele>
        <time>2014-04-10T13:14:28Z</time>
      </trkpt>
      <trkpt lat="43.76145" lon="3.55254">
        <ele>580.77</ele>
        <time>2014-04-10T13:14:33Z</time>
      </trkpt>
      <trkpt lat="43.76139" lon="3.5526">
        <ele>579.81</ele>
        <time>2014-04-10T13:14:44Z</time>
      </trkpt>
      <trkpt lat="43.76136" lon="3.55271">
        <ele>579.81</ele>
        <time>2014-04-10T13:14:57Z</time>
      </trkpt>
      <trkpt lat="43.76133" lon="3.55274">
        <ele>577.89</ele>
        <time>2014-04-10T13:15:10Z</time>
      </trkpt>
      <trkpt lat="43.7613" lon="3.55275">
        <ele>576.45</ele>
        <time>2014-04-10T13:15:20Z</time>
      </trkpt>
      <trkpt lat="43.76129" lon="3.55275">
        <ele>575.49</ele>
        <time>2014-04-10T13:15:33Z</time>
      </trkpt>
      <trkpt lat="43.76126" lon="3.55276">
        <ele>574.53</ele>
        <time>2014-04-10T13:15:40Z</time>
      </trkpt>
      <trkpt lat="43.76125" lon="3.55284">
        <ele>574.53</ele>
        <time>2014-04-10T13:15:52Z</time>
      </trkpt>
      <trkpt lat="43.76126" lon="3.55284">
        <ele>574.53</ele>
        <time>2014-04-10T13:15:57Z</time>
      </trkpt>
      <trkpt lat="43.76125" lon="3.55278">
        <ele>574.04</ele>
        <time>2014-04-10T13:16:10Z</time>
      </trkpt>
      <trkpt lat="43.76121" lon="3.55275">
        <ele>571.64</ele>
        <time>2014-04-10T13:16:23Z</time>
      </trkpt>
      <trkpt lat="43.76118" lon="3.55276">
        <ele>570.68</ele>
        <time>2014-04-10T13:16:33Z</time>
      </trkpt>
      <trkpt lat="43.76117" lon="3.55275">
        <ele>570.2</ele>
        <time>2014-04-10T13:16:46Z</time>
      </trkpt>
      <trkpt lat="43.76116" lon="3.55274">
        <ele>570.68</ele>
        <time>2014-04-10T13:17:06Z</time>
      </trkpt>
      <trkpt lat="43.76116" lon="3.5527">
        <ele>569.24</ele>
        <time>2014-04-10T13:17:21Z</time>
      </trkpt>
      <trkpt lat="43.76112" lon="3.55268">
        <ele>565.87</ele>
        <time>2014-04-10T13:17:34Z</time>
      </trkpt>
      <trkpt lat="43.76106" lon="3.55269">
        <ele>563.95</ele>
        <time>2014-04-10T13:17:45Z</time>
      </trkpt>
      <trkpt lat="43.761" lon="3.55266">
        <ele>561.07</ele>
        <time>2014-04-10T13:18:00Z</time>
      </trkpt>
      <trkpt lat="43.76094" lon="3.55268">
        <ele>560.11</ele>
        <time>2014-04-10T13:18:11Z</time>
      </trkpt>
      <trkpt lat="43.76093" lon="3.5527">
        <ele>560.11</ele>
        <time>2014-04-10T13:18:23Z</time>
      </trkpt>
      <trkpt lat="43.76093" lon="3.55269">
        <ele>560.59</ele>
        <time>2014-04-10T13:18:43Z</time>
      </trkpt>
      <trkpt lat="43.7609" lon="3.55273">
        <ele>559.62</ele>
        <time>2014-04-10T13:18:55Z</time>
      </trkpt>
      <trkpt lat="43.76088" lon="3.55273">
        <ele>559.14</ele>
        <time>2014-04-10T13:19:06Z</time>
      </trkpt>
      <trkpt lat="43.76083" lon="3.5528">
        <ele>558.18</ele>
        <time>2014-04-10T13:19:18Z</time>
      </trkpt>
      <trkpt lat="43.76077" lon="3.55287">
        <ele>558.66</ele>
        <time>2014-04-10T13:19:30Z</time>
      </trkpt>
      <trkpt lat="43.76073" lon="3.5529">
        <ele>556.26</ele>
        <time>2014-04-10T13:19:42Z</time>
      </trkpt>
      <trkpt lat="43.76073" lon="3.55289">
        <ele>556.26</ele>
        <time>2014-04-10T13:19:43Z</time>
      </trkpt>
      <trkpt lat="43.76071" lon="3.55292">
        <ele>555.78</ele>
        <time>2014-04-10T13:19:51Z</time>
      </trkpt>
      <trkpt lat="43.7607" lon="3.55298">
        <ele>555.78</ele>
        <time>2014-04-10T13:20:00Z</time>
      </trkpt>
      <trkpt lat="43.7607" lon="3.55296">
        <ele>555.78</ele>
        <time>2014-04-10T13:20:02Z</time>
      </trkpt>
      <trkpt lat="43.76065" lon="3.55297">
        <ele>554.82</ele>
        <time>2014-04-10T13:20:10Z</time>
      </trkpt>
      <trkpt lat="43.76064" lon="3.55301">
        <ele>554.82</ele>
        <time>2014-04-10T13:20:13Z</time>
      </trkpt>
      <trkpt lat="43.76066" lon="3.55302">
        <ele>554.82</ele>
        <time>2014-04-10T13:20:15Z</time>
      </trkpt>
      <trkpt lat="43.76071" lon="3.55309">
        <ele>554.82</ele>
        <time>2014-04-10T13:20:27Z</time>
      </trkpt>
      <trkpt lat="43.76072" lon="3.55311">
        <ele>552.9</ele>
        <time>2014-04-10T13:20:38Z</time>
      </trkpt>
      <trkpt lat="43.76073" lon="3.55309">
        <ele>550.97</ele>
        <time>2014-04-10T13:20:54Z</time>
      </trkpt>
      <trkpt lat="43.76073" lon="3.55309">
        <ele>550.97</ele>
        <time>2014-04-10T13:20:56Z</time>
      </trkpt>
      <trkpt lat="43.76072" lon="3.5531">
        <ele>549.53</ele>
        <time>2014-04-10T13:20:59Z</time>
      </trkpt>
      <trkpt lat="43.76075" lon="3.55314">
        <ele>548.57</ele>
        <time>2014-04-10T13:21:08Z</time>
      </trkpt>
      <trkpt lat="43.76077" lon="3.55321">
        <ele>548.09</ele>
        <time>2014-04-10T13:21:19Z</time>
      </trkpt>
      <trkpt lat="43.76078" lon="3.5533">
        <ele>548.09</ele>
        <time>2014-04-10T13:21:33Z</time>
      </trkpt>
      <trkpt lat="43.76078" lon="3.5533">
        <ele>547.61</ele>
        <time>2014-04-10T13:21:38Z</time>
      </trkpt>
      <trkpt lat="43.76075" lon="3.55332">
        <ele>547.13</ele>
        <time>2014-04-10T13:21:45Z</time>
      </trkpt>
      <trkpt lat="43.76078" lon="3.55334">
        <ele>548.09</ele>
        <time>2014-04-10T13:21:57Z</time>
      </trkpt>
      <trkpt lat="43.76077" lon="3.55333">
        <ele>548.09</ele>
        <time>2014-04-10T13:22:18Z</time>
      </trkpt>
      <trkpt lat="43.76075" lon="3.55335">
        <ele>548.09</ele>
        <time>2014-04-10T13:22:36Z</time>
      </trkpt>
      <trkpt lat="43.76074" lon="3.55335">
        <ele>547.13</ele>
        <time>2014-04-10T13:22:48Z</time>
      </trkpt>
      <trkpt lat="43.76069" lon="3.55333">
        <ele>545.2</ele>
        <time>2014-04-10T13:23:02Z</time>
      </trkpt>
      <trkpt lat="43.76068" lon="3.55333">
        <ele>544.72</ele>
        <time>2014-04-10T13:23:15Z</time>
      </trkpt>
      <trkpt lat="43.76066" lon="3.55333">
        <ele>543.76</ele>
        <time>2014-04-10T13:23:26Z</time>
      </trkpt>
      <trkpt lat="43.76065" lon="3.55333">
        <ele>543.28</ele>
        <time>2014-04-10T13:23:30Z</time>
      </trkpt>
      <trkpt lat="43.7606" lon="3.55336">
        <ele>542.32</ele>
        <time>2014-04-10T13:23:42Z</time>
      </trkpt>
      <trkpt lat="43.76056" lon="3.5534">
        <ele>540.4</ele>
        <time>2014-04-10T13:23:55Z</time>
      </trkpt>
      <trkpt lat="43.76054" lon="3.55343">
        <ele>539.44</ele>
        <time>2014-04-10T13:24:07Z</time>
      </trkpt>
      <trkpt lat="43.7605" lon="3.55341">
        <ele>537.99</ele>
        <time>2014-04-10T13:24:15Z</time>
      </trkpt>
      <trkpt lat="43.76049" lon="3.55344">
        <ele>537.03</ele>
        <time>2014-04-10T13:24:18Z</time>
      </trkpt>
      <trkpt lat="43.76046" lon="3.55354">
        <ele>536.07</ele>
        <time>2014-04-10T13:24:33Z</time>
      </trkpt>
      <trkpt lat="43.76044" lon="3.55359">
        <ele>534.15</ele>
        <time>2014-04-10T13:24:46Z</time>
      </trkpt>
      <trkpt lat="43.76043" lon="3.55365">
        <ele>532.71</ele>
        <time>2014-04-10T13:25:04Z</time>
      </trkpt>
      <trkpt lat="43.7604" lon="3.55361">
        <ele>532.71</ele>
        <time>2014-04-10T13:25:16Z</time>
      </trkpt>
      <trkpt lat="43.76035" lon="3.55362">
        <ele>532.23</ele>
        <time>2014-04-10T13:25:30Z</time>
      </trkpt>
      <trkpt lat="43.76033" lon="3.55365">
        <ele>531.75</ele>
        <time>2014-04-10T13:25:43Z</time>
      </trkpt>
      <trkpt lat="43.76028" lon="3.55372">
        <ele>531.27</ele>
        <time>2014-04-10T13:25:55Z</time>
      </trkpt>
      <trkpt lat="43.76023" lon="3.55375">
        <ele>530.3</ele>
        <time>2014-04-10T13:26:08Z</time>
      </trkpt>
      <trkpt lat="43.76017" lon="3.55379">
        <ele>528.38</ele>
        <time>2014-04-10T13:26:22Z</time>
      </trkpt>
      <trkpt lat="43.76015" lon="3.55383">
        <ele>526.46</ele>
        <time>2014-04-10T13:26:30Z</time>
      </trkpt>
      <trkpt lat="43.76012" lon="3.55384">
        <ele>525.98</ele>
        <time>2014-04-10T13:26:44Z</time>
      </trkpt>
      <trkpt lat="43.76009" lon="3.55384">
        <ele>522.61</ele>
        <time>2014-04-10T13:26:59Z</time>
      </trkpt>
      <trkpt lat="43.76004" lon="3.55386">
        <ele>521.65</ele>
        <time>2014-04-10T13:27:11Z</time>
      </trkpt>
      <trkpt lat="43.75999" lon="3.55384">
        <ele>520.21</ele>
        <time>2014-04-10T13:27:26Z</time>
      </trkpt>
      <trkpt lat="43.75992" lon="3.55384">
        <ele>517.81</ele>
        <time>2014-04-10T13:27:41Z</time>
      </trkpt>
      <trkpt lat="43.75984" lon="3.55386">
        <ele>515.88</ele>
        <time>2014-04-10T13:27:56Z</time>
      </trkpt>
      <trkpt lat="43.75982" lon="3.55392">
        <ele>514.92</ele>
        <time>2014-04-10T13:28:09Z</time>
      </trkpt>
      <trkpt lat="43.75982" lon="3.55394">
        <ele>514.92</ele>
        <time>2014-04-10T13:28:21Z</time>
      </trkpt>
      <trkpt lat="43.7598" lon="3.55399">
        <ele>513.48</ele>
        <time>2014-04-10T13:28:31Z</time>
      </trkpt>
      <trkpt lat="43.75977" lon="3.55403">
        <ele>512.52</ele>
        <time>2014-04-10T13:28:46Z</time>
      </trkpt>
      <trkpt lat="43.75977" lon="3.5541">
        <ele>513.48</ele>
        <time>2014-04-10T13:28:59Z</time>
      </trkpt>
      <trkpt lat="43.7598" lon="3.55414">
        <ele>512.52</ele>
        <time>2014-04-10T13:29:16Z</time>
      </trkpt>
      <trkpt lat="43.75981" lon="3.55419">
        <ele>512.52</ele>
        <time>2014-04-10T13:29:28Z</time>
      </trkpt>
      <trkpt lat="43.75981" lon="3.55424">
        <ele>513</ele>
        <time>2014-04-10T13:29:35Z</time>
      </trkpt>
      <trkpt lat="43.75982" lon="3.55426">
        <ele>512.52</ele>
        <time>2014-04-10T13:29:44Z</time>
      </trkpt>
      <trkpt lat="43.75982" lon="3.55424">
        <ele>512.52</ele>
        <time>2014-04-10T13:30:04Z</time>
      </trkpt>
      <trkpt lat="43.75984" lon="3.55423">
        <ele>512.52</ele>
        <time>2014-04-10T13:30:28Z</time>
      </trkpt>
      <trkpt lat="43.75983" lon="3.55423">
        <ele>512.04</ele>
        <time>2014-04-10T13:30:44Z</time>
      </trkpt>
      <trkpt lat="43.75983" lon="3.55424">
        <ele>511.56</ele>
        <time>2014-04-10T13:30:58Z</time>
      </trkpt>
      <trkpt lat="43.75984" lon="3.55423">
        <ele>511.56</ele>
        <time>2014-04-10T13:31:15Z</time>
      </trkpt>
      <trkpt lat="43.75985" lon="3.55423">
        <ele>511.56</ele>
        <time>2014-04-10T13:31:31Z</time>
      </trkpt>
      <trkpt lat="43.75984" lon="3.55425">
        <ele>510.6</ele>
        <time>2014-04-10T13:31:47Z</time>
      </trkpt>
      <trkpt lat="43.75984" lon="3.55425">
        <ele>511.56</ele>
        <time>2014-04-10T13:32:06Z</time>
      </trkpt>
      <trkpt lat="43.75983" lon="3.55423">
        <ele>511.08</ele>
        <time>2014-04-10T13:32:30Z</time>
      </trkpt>
      <trkpt lat="43.75981" lon="3.55422">
        <ele>511.08</ele>
        <time>2014-04-10T13:32:53Z</time>
      </trkpt>
      <trkpt lat="43.75981" lon="3.55423">
        <ele>511.08</ele>
        <time>2014-04-10T13:33:10Z</time>
      </trkpt>
      <trkpt lat="43.75983" lon="3.55424">
        <ele>511.08</ele>
        <time>2014-04-10T13:33:28Z</time>
      </trkpt>
      <trkpt lat="43.75983" lon="3.55425">
        <ele>511.08</ele>
        <time>2014-04-10T13:33:51Z</time>
      </trkpt>
      <trkpt lat="43.75984" lon="3.55424">
        <ele>511.08</ele>
        <time>2014-04-10T13:34:07Z</time>
      </trkpt>
      <trkpt lat="43.75985" lon="3.55425">
        <ele>509.64</ele>
        <time>2014-04-10T13:34:23Z</time>
      </trkpt>
      <trkpt lat="43.75984" lon="3.55428">
        <ele>508.19</ele>
        <time>2014-04-10T13:34:40Z</time>
      </trkpt>
      <trkpt lat="43.75984" lon="3.55428">
        <ele>508.19</ele>
        <time>2014-04-10T13:34:54Z</time>
      </trkpt>
      <trkpt lat="43.75983" lon="3.55427">
        <ele>508.67</ele>
        <time>2014-04-10T13:35:11Z</time>
      </trkpt>
      <trkpt lat="43.75982" lon="3.55428">
        <ele>508.19</ele>
        <time>2014-04-10T13:35:38Z</time>
      </trkpt>
      <trkpt lat="43.75981" lon="3.55428">
        <ele>508.19</ele>
        <time>2014-04-10T13:35:55Z</time>
      </trkpt>
      <trkpt lat="43.75981" lon="3.55429">
        <ele>508.67</ele>
        <time>2014-04-10T13:36:22Z</time>
      </trkpt>
      <trkpt lat="43.7598" lon="3.55431">
        <ele>508.19</ele>
        <time>2014-04-10T13:36:47Z</time>
      </trkpt>
      <trkpt lat="43.7598" lon="3.55428">
        <ele>508.19</ele>
        <time>2014-04-10T13:37:06Z</time>
      </trkpt>
      <trkpt lat="43.75982" lon="3.55427">
        <ele>508.19</ele>
        <time>2014-04-10T13:37:23Z</time>
      </trkpt>
      <trkpt lat="43.75983" lon="3.55428">
        <ele>508.19</ele>
        <time>2014-04-10T13:37:42Z</time>
      </trkpt>
      <trkpt lat="43.75984" lon="3.55425">
        <ele>508.67</ele>
        <time>2014-04-10T13:38:09Z</time>
      </trkpt>
      <trkpt lat="43.75984" lon="3.55424">
        <ele>508.19</ele>
        <time>2014-04-10T13:38:34Z</time>
      </trkpt>
      <trkpt lat="43.75985" lon="3.55425">
        <ele>508.67</ele>
        <time>2014-04-10T13:38:57Z</time>
      </trkpt>
      <trkpt lat="43.75985" lon="3.55424">
        <ele>508.19</ele>
        <time>2014-04-10T13:39:14Z</time>
      </trkpt>
      <trkpt lat="43.75985" lon="3.55422">
        <ele>508.67</ele>
        <time>2014-04-10T13:39:35Z</time>
      </trkpt>
      <trkpt lat="43.75984" lon="3.55423">
        <ele>508.19</ele>
        <time>2014-04-10T13:39:57Z</time>
      </trkpt>
      <trkpt lat="43.75984" lon="3.55425">
        <ele>508.67</ele>
        <time>2014-04-10T13:40:19Z</time>
      </trkpt>
      <trkpt lat="43.75985" lon="3.55425">
        <ele>508.67</ele>
        <time>2014-04-10T13:40:38Z</time>
      </trkpt>
      <trkpt lat="43.75985" lon="3.55425">
        <ele>508.19</ele>
        <time>2014-04-10T13:40:58Z</time>
      </trkpt>
      <trkpt lat="43.75985" lon="3.55426">
        <ele>508.19</ele>
        <time>2014-04-10T13:41:18Z</time>
      </trkpt>
      <trkpt lat="43.75984" lon="3.55425">
        <ele>507.71</ele>
        <time>2014-04-10T13:41:38Z</time>
      </trkpt>
      <trkpt lat="43.75984" lon="3.5543">
        <ele>508.19</ele>
        <time>2014-04-10T13:41:58Z</time>
      </trkpt>
      <trkpt lat="43.75983" lon="3.55434">
        <ele>508.19</ele>
        <time>2014-04-10T13:42:23Z</time>
      </trkpt>
      <trkpt lat="43.75984" lon="3.55434">
        <ele>508.19</ele>
        <time>2014-04-10T13:42:47Z</time>
      </trkpt>
      <trkpt lat="43.75984" lon="3.55433">
        <ele>507.71</ele>
        <time>2014-04-10T13:43:09Z</time>
      </trkpt>
      <trkpt lat="43.75982" lon="3.55438">
        <ele>506.75</ele>
        <time>2014-04-10T13:43:25Z</time>
      </trkpt>
      <trkpt lat="43.7598" lon="3.55444">
        <ele>506.27</ele>
        <time>2014-04-10T13:43:37Z</time>
      </trkpt>
      <trkpt lat="43.75978" lon="3.55448">
        <ele>504.83</ele>
        <time>2014-04-10T13:43:48Z</time>
      </trkpt>
      <trkpt lat="43.75974" lon="3.55453">
        <ele>504.83</ele>
        <time>2014-04-10T13:43:57Z</time>
      </trkpt>
      <trkpt lat="43.75973" lon="3.55455">
        <ele>504.83</ele>
        <time>2014-04-10T13:43:58Z</time>
      </trkpt>
      <trkpt lat="43.75967" lon="3.55464">
        <ele>504.83</ele>
        <time>2014-04-10T13:44:10Z</time>
      </trkpt>
      <trkpt lat="43.75963" lon="3.55469">
        <ele>503.39</ele>
        <time>2014-04-10T13:44:21Z</time>
      </trkpt>
      <trkpt lat="43.75958" lon="3.55475">
        <ele>500.98</ele>
        <time>2014-04-10T13:44:33Z</time>
      </trkpt>
      <trkpt lat="43.75955" lon="3.55476">
        <ele>499.06</ele>
        <time>2014-04-10T13:44:47Z</time>
      </trkpt>
      <trkpt lat="43.75955" lon="3.55477">
        <ele>498.58</ele>
        <time>2014-04-10T13:45:00Z</time>
      </trkpt>
      <trkpt lat="43.75954" lon="3.5548">
        <ele>497.62</ele>
        <time>2014-04-10T13:45:16Z</time>
      </trkpt>
      <trkpt lat="43.75956" lon="3.55486">
        <ele>496.18</ele>
        <time>2014-04-10T13:45:31Z</time>
      </trkpt>
      <trkpt lat="43.75958" lon="3.55489">
        <ele>496.66</ele>
        <time>2014-04-10T13:45:50Z</time>
      </trkpt>
      <trkpt lat="43.75959" lon="3.55491">
        <ele>495.7</ele>
        <time>2014-04-10T13:46:11Z</time>
      </trkpt>
      <trkpt lat="43.75956" lon="3.55497">
        <ele>493.77</ele>
        <time>2014-04-10T13:46:25Z</time>
      </trkpt>
      <trkpt lat="43.75951" lon="3.55505">
        <ele>492.33</ele>
        <time>2014-04-10T13:46:40Z</time>
      </trkpt>
      <trkpt lat="43.75943" lon="3.55513">
        <ele>490.89</ele>
        <time>2014-04-10T13:46:54Z</time>
      </trkpt>
      <trkpt lat="43.75938" lon="3.55526">
        <ele>488.97</ele>
        <time>2014-04-10T13:47:11Z</time>
      </trkpt>
      <trkpt lat="43.75938" lon="3.55532">
        <ele>488.97</ele>
        <time>2014-04-10T13:47:28Z</time>
      </trkpt>
      <trkpt lat="43.75935" lon="3.55538">
        <ele>488.01</ele>
        <time>2014-04-10T13:47:42Z</time>
      </trkpt>
      <trkpt lat="43.75933" lon="3.55544">
        <ele>487.53</ele>
        <time>2014-04-10T13:47:54Z</time>
      </trkpt>
      <trkpt lat="43.75935" lon="3.55552">
        <ele>487.05</ele>
        <time>2014-04-10T13:48:06Z</time>
      </trkpt>
      <trkpt lat="43.75938" lon="3.55551">
        <ele>486.08</ele>
        <time>2014-04-10T13:48:18Z</time>
      </trkpt>
      <trkpt lat="43.75938" lon="3.55554">
        <ele>484.64</ele>
        <time>2014-04-10T13:48:29Z</time>
      </trkpt>
      <trkpt lat="43.75938" lon="3.55552">
        <ele>482.72</ele>
        <time>2014-04-10T13:48:44Z</time>
      </trkpt>
      <trkpt lat="43.75938" lon="3.55552">
        <ele>481.76</ele>
        <time>2014-04-10T13:48:58Z</time>
      </trkpt>
      <trkpt lat="43.75938" lon="3.55555">
        <ele>480.32</ele>
        <time>2014-04-10T13:49:15Z</time>
      </trkpt>
      <trkpt lat="43.75937" lon="3.55558">
        <ele>479.35</ele>
        <time>2014-04-10T13:49:31Z</time>
      </trkpt>
      <trkpt lat="43.75934" lon="3.55559">
        <ele>478.39</ele>
        <time>2014-04-10T13:49:46Z</time>
      </trkpt>
      <trkpt lat="43.75931" lon="3.55561">
        <ele>476.47</ele>
        <time>2014-04-10T13:49:59Z</time>
      </trkpt>
      <trkpt lat="43.7593" lon="3.55561">
        <ele>476.47</ele>
        <time>2014-04-10T13:50:22Z</time>
      </trkpt>
      <trkpt lat="43.75927" lon="3.55556">
        <ele>475.03</ele>
        <time>2014-04-10T13:50:41Z</time>
      </trkpt>
      <trkpt lat="43.75923" lon="3.55562">
        <ele>473.59</ele>
        <time>2014-04-10T13:50:55Z</time>
      </trkpt>
      <trkpt lat="43.75919" lon="3.55563">
        <ele>472.63</ele>
        <time>2014-04-10T13:51:09Z</time>
      </trkpt>
      <trkpt lat="43.75915" lon="3.55561">
        <ele>470.7</ele>
        <time>2014-04-10T13:51:21Z</time>
      </trkpt>
      <trkpt lat="43.75914" lon="3.55565">
        <ele>469.26</ele>
        <time>2014-04-10T13:51:37Z</time>
      </trkpt>
      <trkpt lat="43.75912" lon="3.55568">
        <ele>467.82</ele>
        <time>2014-04-10T13:51:50Z</time>
      </trkpt>
      <trkpt lat="43.75911" lon="3.55567">
        <ele>465.9</ele>
        <time>2014-04-10T13:52:01Z</time>
      </trkpt>
      <trkpt lat="43.75909" lon="3.55568">
        <ele>464.45</ele>
        <time>2014-04-10T13:52:14Z</time>
      </trkpt>
      <trkpt lat="43.75908" lon="3.55568">
        <ele>463.49</ele>
        <time>2014-04-10T13:52:23Z</time>
      </trkpt>
      <trkpt lat="43.75906" lon="3.55564">
        <ele>462.05</ele>
        <time>2014-04-10T13:52:33Z</time>
      </trkpt>
      <trkpt lat="43.75907" lon="3.55562">
        <ele>458.69</ele>
        <time>2014-04-10T13:52:52Z</time>
      </trkpt>
      <trkpt lat="43.75903" lon="3.55554">
        <ele>455.32</ele>
        <time>2014-04-10T13:53:06Z</time>
      </trkpt>
      <trkpt lat="43.75902" lon="3.55548">
        <ele>454.84</ele>
        <time>2014-04-10T13:53:20Z</time>
      </trkpt>
      <trkpt lat="43.75902" lon="3.55547">
        <ele>455.32</ele>
        <time>2014-04-10T13:53:33Z</time>
      </trkpt>
      <trkpt lat="43.75902" lon="3.55543">
        <ele>455.32</ele>
        <time>2014-04-10T13:53:45Z</time>
      </trkpt>
      <trkpt lat="43.75901" lon="3.55539">
        <ele>453.88</ele>
        <time>2014-04-10T13:53:55Z</time>
      </trkpt>
      <trkpt lat="43.75899" lon="3.55535">
        <ele>452.44</ele>
        <time>2014-04-10T13:54:05Z</time>
      </trkpt>
      <trkpt lat="43.75898" lon="3.55535">
        <ele>451.48</ele>
        <time>2014-04-10T13:54:11Z</time>
      </trkpt>
      <trkpt lat="43.75897" lon="3.55534">
        <ele>450.52</ele>
        <time>2014-04-10T13:54:21Z</time>
      </trkpt>
      <trkpt lat="43.75894" lon="3.55535">
        <ele>448.59</ele>
        <time>2014-04-10T13:54:33Z</time>
      </trkpt>
      <trkpt lat="43.75892" lon="3.55536">
        <ele>447.63</ele>
        <time>2014-04-10T13:54:47Z</time>
      </trkpt>
      <trkpt lat="43.75891" lon="3.55537">
        <ele>446.19</ele>
        <time>2014-04-10T13:55:03Z</time>
      </trkpt>
      <trkpt lat="43.75889" lon="3.55545">
        <ele>445.23</ele>
        <time>2014-04-10T13:55:13Z</time>
      </trkpt>
      <trkpt lat="43.75887" lon="3.55549">
        <ele>442.82</ele>
        <time>2014-04-10T13:55:22Z</time>
      </trkpt>
      <trkpt lat="43.75885" lon="3.55556">
        <ele>441.38</ele>
        <time>2014-04-10T13:55:34Z</time>
      </trkpt>
      <trkpt lat="43.75879" lon="3.55569">
        <ele>438.02</ele>
        <time>2014-04-10T13:55:50Z</time>
      </trkpt>
      <trkpt lat="43.75878" lon="3.55575">
        <ele>436.1</ele>
        <time>2014-04-10T13:56:04Z</time>
      </trkpt>
      <trkpt lat="43.75873" lon="3.55584">
        <ele>434.17</ele>
        <time>2014-04-10T13:56:16Z</time>
      </trkpt>
      <trkpt lat="43.75871" lon="3.55583">
        <ele>432.25</ele>
        <time>2014-04-10T13:56:29Z</time>
      </trkpt>
      <trkpt lat="43.75867" lon="3.55582">
        <ele>429.37</ele>
        <time>2014-04-10T13:56:43Z</time>
      </trkpt>
      <trkpt lat="43.75864" lon="3.55583">
        <ele>427.92</ele>
        <time>2014-04-10T13:56:59Z</time>
      </trkpt>
      <trkpt lat="43.75862" lon="3.55586">
        <ele>426.48</ele>
        <time>2014-04-10T13:57:14Z</time>
      </trkpt>
      <trkpt lat="43.75858" lon="3.55584">
        <ele>424.56</ele>
        <time>2014-04-10T13:57:25Z</time>
      </trkpt>
      <trkpt lat="43.75857" lon="3.55583">
        <ele>423.6</ele>
        <time>2014-04-10T13:57:41Z</time>
      </trkpt>
      <trkpt lat="43.75853" lon="3.55579">
        <ele>421.19</ele>
        <time>2014-04-10T13:57:53Z</time>
      </trkpt>
      <trkpt lat="43.75848" lon="3.55583">
        <ele>418.31</ele>
        <time>2014-04-10T13:58:03Z</time>
      </trkpt>
      <trkpt lat="43.75843" lon="3.55593">
        <ele>415.91</ele>
        <time>2014-04-10T13:58:16Z</time>
      </trkpt>
      <trkpt lat="43.7584" lon="3.55601">
        <ele>413.5</ele>
        <time>2014-04-10T13:58:29Z</time>
      </trkpt>
      <trkpt lat="43.75832" lon="3.55601">
        <ele>410.14</ele>
        <time>2014-04-10T13:58:47Z</time>
      </trkpt>
      <trkpt lat="43.75828" lon="3.55606">
        <ele>407.26</ele>
        <time>2014-04-10T13:59:00Z</time>
      </trkpt>
      <trkpt lat="43.75822" lon="3.5561">
        <ele>405.33</ele>
        <time>2014-04-10T13:59:15Z</time>
      </trkpt>
      <trkpt lat="43.75819" lon="3.55614">
        <ele>404.37</ele>
        <time>2014-04-10T13:59:21Z</time>
      </trkpt>
      <trkpt lat="43.75812" lon="3.55618">
        <ele>401.01</ele>
        <time>2014-04-10T13:59:36Z</time>
      </trkpt>
      <trkpt lat="43.75806" lon="3.5562">
        <ele>398.12</ele>
        <time>2014-04-10T13:59:52Z</time>
      </trkpt>
      <trkpt lat="43.758" lon="3.55619">
        <ele>395.24</ele>
        <time>2014-04-10T14:00:08Z</time>
      </trkpt>
      <trkpt lat="43.75794" lon="3.55623">
        <ele>393.32</ele>
        <time>2014-04-10T14:00:21Z</time>
      </trkpt>
      <trkpt lat="43.7579" lon="3.55628">
        <ele>390.43</ele>
        <time>2014-04-10T14:00:32Z</time>
      </trkpt>
      <trkpt lat="43.75783" lon="3.55625">
        <ele>388.03</ele>
        <time>2014-04-10T14:00:47Z</time>
      </trkpt>
      <trkpt lat="43.75777" lon="3.55631">
        <ele>386.11</ele>
        <time>2014-04-10T14:01:04Z</time>
      </trkpt>
      <trkpt lat="43.75772" lon="3.55633">
        <ele>383.7</ele>
        <time>2014-04-10T14:01:18Z</time>
      </trkpt>
      <trkpt lat="43.75766" lon="3.5563">
        <ele>382.26</ele>
        <time>2014-04-10T14:01:31Z</time>
      </trkpt>
      <trkpt lat="43.75764" lon="3.55623">
        <ele>380.82</ele>
        <time>2014-04-10T14:01:43Z</time>
      </trkpt>
      <trkpt lat="43.75759" lon="3.55617">
        <ele>377.94</ele>
        <time>2014-04-10T14:01:58Z</time>
      </trkpt>
      <trkpt lat="43.75754" lon="3.55615">
        <ele>374.57</ele>
        <time>2014-04-10T14:02:13Z</time>
      </trkpt>
      <trkpt lat="43.7575" lon="3.55618">
        <ele>372.65</ele>
        <time>2014-04-10T14:02:24Z</time>
      </trkpt>
      <trkpt lat="43.75745" lon="3.55621">
        <ele>371.21</ele>
        <time>2014-04-10T14:02:37Z</time>
      </trkpt>
      <trkpt lat="43.75738" lon="3.5563">
        <ele>369.76</ele>
        <time>2014-04-10T14:02:49Z</time>
      </trkpt>
      <trkpt lat="43.75733" lon="3.55632">
        <ele>366.88</ele>
        <time>2014-04-10T14:03:02Z</time>
      </trkpt>
      <trkpt lat="43.75729" lon="3.5563">
        <ele>364.96</ele>
        <time>2014-04-10T14:03:15Z</time>
      </trkpt>
      <trkpt lat="43.75725" lon="3.55626">
        <ele>363.04</ele>
        <time>2014-04-10T14:03:28Z</time>
      </trkpt>
      <trkpt lat="43.75717" lon="3.55635">
        <ele>361.59</ele>
        <time>2014-04-10T14:03:44Z</time>
      </trkpt>
      <trkpt lat="43.75712" lon="3.55637">
        <ele>359.19</ele>
        <time>2014-04-10T14:03:58Z</time>
      </trkpt>
      <trkpt lat="43.75707" lon="3.55643">
        <ele>357.27</ele>
        <time>2014-04-10T14:04:11Z</time>
      </trkpt>
      <trkpt lat="43.75701" lon="3.55646">
        <ele>355.34</ele>
        <time>2014-04-10T14:04:24Z</time>
      </trkpt>
      <trkpt lat="43.75696" lon="3.55653">
        <ele>354.38</ele>
        <time>2014-04-10T14:04:35Z</time>
      </trkpt>
      <trkpt lat="43.75687" lon="3.55658">
        <ele>352.46</ele>
        <time>2014-04-10T14:04:48Z</time>
      </trkpt>
      <trkpt lat="43.75681" lon="3.55658">
        <ele>351.5</ele>
        <time>2014-04-10T14:05:03Z</time>
      </trkpt>
      <trkpt lat="43.75682" lon="3.55661">
        <ele>351.5</ele>
        <time>2014-04-10T14:05:14Z</time>
      </trkpt>
      <trkpt lat="43.75681" lon="3.55668">
        <ele>351.02</ele>
        <time>2014-04-10T14:05:28Z</time>
      </trkpt>
      <trkpt lat="43.75682" lon="3.55668">
        <ele>351.02</ele>
        <time>2014-04-10T14:05:41Z</time>
      </trkpt>
      <trkpt lat="43.75682" lon="3.55683">
        <ele>350.06</ele>
        <time>2014-04-10T14:05:54Z</time>
      </trkpt>
      <trkpt lat="43.75683" lon="3.5569">
        <ele>350.06</ele>
        <time>2014-04-10T14:05:59Z</time>
      </trkpt>
      <trkpt lat="43.75683" lon="3.55692">
        <ele>350.06</ele>
        <time>2014-04-10T14:06:00Z</time>
      </trkpt>
      <trkpt lat="43.75684" lon="3.55693">
        <ele>350.06</ele>
        <time>2014-04-10T14:06:01Z</time>
      </trkpt>
      <trkpt lat="43.75692" lon="3.5571">
        <ele>350.06</ele>
        <time>2014-04-10T14:06:16Z</time>
      </trkpt>
      <trkpt lat="43.757" lon="3.55731">
        <ele>349.1</ele>
        <time>2014-04-10T14:06:32Z</time>
      </trkpt>
      <trkpt lat="43.75703" lon="3.55746">
        <ele>348.13</ele>
        <time>2014-04-10T14:06:45Z</time>
      </trkpt>
      <trkpt lat="43.75704" lon="3.55767">
        <ele>348.13</ele>
        <time>2014-04-10T14:06:58Z</time>
      </trkpt>
      <trkpt lat="43.75701" lon="3.55785">
        <ele>348.13</ele>
        <time>2014-04-10T14:07:11Z</time>
      </trkpt>
      <trkpt lat="43.75699" lon="3.55792">
        <ele>347.65</ele>
        <time>2014-04-10T14:07:17Z</time>
      </trkpt>
      <trkpt lat="43.757" lon="3.55802">
        <ele>347.65</ele>
        <time>2014-04-10T14:07:25Z</time>
      </trkpt>
      <trkpt lat="43.75701" lon="3.55812">
        <ele>347.17</ele>
        <time>2014-04-10T14:07:33Z</time>
      </trkpt>
      <trkpt lat="43.757" lon="3.55828">
        <ele>346.21</ele>
        <time>2014-04-10T14:07:46Z</time>
      </trkpt>
      <trkpt lat="43.757" lon="3.55846">
        <ele>345.73</ele>
        <time>2014-04-10T14:08:00Z</time>
      </trkpt>
      <trkpt lat="43.75708" lon="3.55862">
        <ele>344.29</ele>
        <time>2014-04-10T14:08:16Z</time>
      </trkpt>
      <trkpt lat="43.75713" lon="3.55877">
        <ele>343.33</ele>
        <time>2014-04-10T14:08:28Z</time>
      </trkpt>
      <trkpt lat="43.75714" lon="3.55879">
        <ele>342.85</ele>
        <time>2014-04-10T14:08:29Z</time>
      </trkpt>
      <trkpt lat="43.75719" lon="3.55892">
        <ele>342.37</ele>
        <time>2014-04-10T14:08:41Z</time>
      </trkpt>
      <trkpt lat="43.75726" lon="3.55909">
        <ele>341.89</ele>
        <time>2014-04-10T14:08:55Z</time>
      </trkpt>
      <trkpt lat="43.75738" lon="3.55928">
        <ele>342.85</ele>
        <time>2014-04-10T14:09:09Z</time>
      </trkpt>
      <trkpt lat="43.75739" lon="3.55931">
        <ele>342.85</ele>
        <time>2014-04-10T14:09:11Z</time>
      </trkpt>
      <trkpt lat="43.75747" lon="3.55948">
        <ele>342.37</ele>
        <time>2014-04-10T14:09:25Z</time>
      </trkpt>
      <trkpt lat="43.75752" lon="3.55956">
        <ele>341.89</ele>
        <time>2014-04-10T14:09:33Z</time>
      </trkpt>
      <trkpt lat="43.75752" lon="3.55958">
        <ele>341.41</ele>
        <time>2014-04-10T14:09:34Z</time>
      </trkpt>
      <trkpt lat="43.75756" lon="3.55966">
        <ele>340.92</ele>
        <time>2014-04-10T14:09:41Z</time>
      </trkpt>
      <trkpt lat="43.75757" lon="3.55968">
        <ele>340.92</ele>
        <time>2014-04-10T14:09:42Z</time>
      </trkpt>
      <trkpt lat="43.75764" lon="3.55983">
        <ele>339.96</ele>
        <time>2014-04-10T14:09:56Z</time>
      </trkpt>
      <trkpt lat="43.75774" lon="3.55994">
        <ele>339.48</ele>
        <time>2014-04-10T14:10:08Z</time>
      </trkpt>
      <trkpt lat="43.75776" lon="3.55998">
        <ele>339</ele>
        <time>2014-04-10T14:10:12Z</time>
      </trkpt>
      <trkpt lat="43.75776" lon="3.56">
        <ele>339</ele>
        <time>2014-04-10T14:10:13Z</time>
      </trkpt>
      <trkpt lat="43.75783" lon="3.56015">
        <ele>338.04</ele>
        <time>2014-04-10T14:10:25Z</time>
      </trkpt>
      <trkpt lat="43.75784" lon="3.56016">
        <ele>338.04</ele>
        <time>2014-04-10T14:10:26Z</time>
      </trkpt>
      <trkpt lat="43.7579" lon="3.56032">
        <ele>338.04</ele>
        <time>2014-04-10T14:10:38Z</time>
      </trkpt>
      <trkpt lat="43.75795" lon="3.56048">
        <ele>338.52</ele>
        <time>2014-04-10T14:10:51Z</time>
      </trkpt>
      <trkpt lat="43.758" lon="3.56066">
        <ele>337.56</ele>
        <time>2014-04-10T14:11:04Z</time>
      </trkpt>
      <trkpt lat="43.75804" lon="3.56081">
        <ele>338.04</ele>
        <time>2014-04-10T14:11:14Z</time>
      </trkpt>
      <trkpt lat="43.75808" lon="3.56098">
        <ele>338.52</ele>
        <time>2014-04-10T14:11:28Z</time>
      </trkpt>
      <trkpt lat="43.75811" lon="3.56112">
        <ele>337.08</ele>
        <time>2014-04-10T14:11:41Z</time>
      </trkpt>
      <trkpt lat="43.75817" lon="3.56129">
        <ele>335.64</ele>
        <time>2014-04-10T14:11:53Z</time>
      </trkpt>
      <trkpt lat="43.75816" lon="3.56138">
        <ele>334.68</ele>
        <time>2014-04-10T14:12:00Z</time>
      </trkpt>
      <trkpt lat="43.7582" lon="3.56159">
        <ele>334.68</ele>
        <time>2014-04-10T14:12:14Z</time>
      </trkpt>
      <trkpt lat="43.7582" lon="3.56177">
        <ele>333.23</ele>
        <time>2014-04-10T14:12:30Z</time>
      </trkpt>
      <trkpt lat="43.7582" lon="3.56191">
        <ele>331.79</ele>
        <time>2014-04-10T14:12:41Z</time>
      </trkpt>
      <trkpt lat="43.7582" lon="3.56211">
        <ele>331.79</ele>
        <time>2014-04-10T14:12:53Z</time>
      </trkpt>
      <trkpt lat="43.75821" lon="3.56215">
        <ele>331.79</ele>
        <time>2014-04-10T14:13:11Z</time>
      </trkpt>
      <trkpt lat="43.75828" lon="3.56205">
        <ele>332.27</ele>
        <time>2014-04-10T14:13:23Z</time>
      </trkpt>
      <trkpt lat="43.75836" lon="3.56192">
        <ele>333.71</ele>
        <time>2014-04-10T14:13:37Z</time>
      </trkpt>
      <trkpt lat="43.75841" lon="3.56178">
        <ele>335.64</ele>
        <time>2014-04-10T14:13:53Z</time>
      </trkpt>
      <trkpt lat="43.75846" lon="3.56176">
        <ele>336.6</ele>
        <time>2014-04-10T14:14:07Z</time>
      </trkpt>
      <trkpt lat="43.75853" lon="3.56188">
        <ele>338.04</ele>
        <time>2014-04-10T14:14:22Z</time>
      </trkpt>
      <trkpt lat="43.75858" lon="3.56193">
        <ele>339</ele>
        <time>2014-04-10T14:14:31Z</time>
      </trkpt>
      <trkpt lat="43.75868" lon="3.56197">
        <ele>339.96</ele>
        <time>2014-04-10T14:14:44Z</time>
      </trkpt>
      <trkpt lat="43.75872" lon="3.56201">
        <ele>340.44</ele>
        <time>2014-04-10T14:14:49Z</time>
      </trkpt>
      <trkpt lat="43.75883" lon="3.56205">
        <ele>341.41</ele>
        <time>2014-04-10T14:15:01Z</time>
      </trkpt>
      <trkpt lat="43.75885" lon="3.56204">
        <ele>341.89</ele>
        <time>2014-04-10T14:15:04Z</time>
      </trkpt>
      <trkpt lat="43.75889" lon="3.56198">
        <ele>342.85</ele>
        <time>2014-04-10T14:15:14Z</time>
      </trkpt>
      <trkpt lat="43.75893" lon="3.56197">
        <ele>343.81</ele>
        <time>2014-04-10T14:15:27Z</time>
      </trkpt>
      <trkpt lat="43.75892" lon="3.56193">
        <ele>343.33</ele>
        <time>2014-04-10T14:15:56Z</time>
      </trkpt>
      <trkpt lat="43.75897" lon="3.56195">
        <ele>343.33</ele>
        <time>2014-04-10T14:16:10Z</time>
      </trkpt>
      <trkpt lat="43.75899" lon="3.56195">
        <ele>343.33</ele>
        <time>2014-04-10T14:16:12Z</time>
      </trkpt>
      <trkpt lat="43.75904" lon="3.56193">
        <ele>343.33</ele>
        <time>2014-04-10T14:16:17Z</time>
      </trkpt>
      <trkpt lat="43.75914" lon="3.56194">
        <ele>342.37</ele>
        <time>2014-04-10T14:16:31Z</time>
      </trkpt>
      <trkpt lat="43.7592" lon="3.56191">
        <ele>340.44</ele>
        <time>2014-04-10T14:16:42Z</time>
      </trkpt>
      <trkpt lat="43.75921" lon="3.56191">
        <ele>340.44</ele>
        <time>2014-04-10T14:16:43Z</time>
      </trkpt>
      <trkpt lat="43.75924" lon="3.56184">
        <ele>338.52</ele>
        <time>2014-04-10T14:16:54Z</time>
      </trkpt>
      <trkpt lat="43.75927" lon="3.56178">
        <ele>336.12</ele>
        <time>2014-04-10T14:17:04Z</time>
      </trkpt>
      <trkpt lat="43.75935" lon="3.56175">
        <ele>333.71</ele>
        <time>2014-04-10T14:17:15Z</time>
      </trkpt>
      <trkpt lat="43.75938" lon="3.56174">
        <ele>333.23</ele>
        <time>2014-04-10T14:17:26Z</time>
      </trkpt>
      <trkpt lat="43.75937" lon="3.56172">
        <ele>332.27</ele>
        <time>2014-04-10T14:17:40Z</time>
      </trkpt>
      <trkpt lat="43.75933" lon="3.56168">
        <ele>332.75</ele>
        <time>2014-04-10T14:18:25Z</time>
      </trkpt>
      <trkpt lat="43.75934" lon="3.56169">
        <ele>332.75</ele>
        <time>2014-04-10T14:19:02Z</time>
      </trkpt>
      <trkpt lat="43.75936" lon="3.56171">
        <ele>332.75</ele>
        <time>2014-04-10T14:19:39Z</time>
      </trkpt>
      <trkpt lat="43.75937" lon="3.56169">
        <ele>332.75</ele>
        <time>2014-04-10T14:20:19Z</time>
      </trkpt>
      <trkpt lat="43.75934" lon="3.56166">
        <ele>333.23</ele>
        <time>2014-04-10T14:21:06Z</time>
      </trkpt>
      <trkpt lat="43.75934" lon="3.56168">
        <ele>333.71</ele>
        <time>2014-04-10T14:21:39Z</time>
      </trkpt>
      <trkpt lat="43.75938" lon="3.56167">
        <ele>333.71</ele>
        <time>2014-04-10T14:22:17Z</time>
      </trkpt>
      <trkpt lat="43.75941" lon="3.56174">
        <ele>333.71</ele>
        <time>2014-04-10T14:23:03Z</time>
      </trkpt>
      <trkpt lat="43.75939" lon="3.56178">
        <ele>333.71</ele>
        <time>2014-04-10T14:23:43Z</time>
      </trkpt>
      <trkpt lat="43.75937" lon="3.56178">
        <ele>333.71</ele>
        <time>2014-04-10T14:24:27Z</time>
      </trkpt>
      <trkpt lat="43.75937" lon="3.56175">
        <ele>333.71</ele>
        <time>2014-04-10T14:25:16Z</time>
      </trkpt>
      <trkpt lat="43.75939" lon="3.56171">
        <ele>333.71</ele>
        <time>2014-04-10T14:26:03Z</time>
      </trkpt>
      <trkpt lat="43.75938" lon="3.56173">
        <ele>334.2</ele>
        <time>2014-04-10T14:26:41Z</time>
      </trkpt>
      <trkpt lat="43.75941" lon="3.56167">
        <ele>334.2</ele>
        <time>2014-04-10T14:27:08Z</time>
      </trkpt>
      <trkpt lat="43.75938" lon="3.56171">
        <ele>334.2</ele>
        <time>2014-04-10T14:27:29Z</time>
      </trkpt>
      <trkpt lat="43.75937" lon="3.5617">
        <ele>333.71</ele>
        <time>2014-04-10T14:27:55Z</time>
      </trkpt>
      <trkpt lat="43.75936" lon="3.56169">
        <ele>334.2</ele>
        <time>2014-04-10T14:28:26Z</time>
      </trkpt>
      <trkpt lat="43.75935" lon="3.56169">
        <ele>333.71</ele>
        <time>2014-04-10T14:28:55Z</time>
      </trkpt>
      <trkpt lat="43.75937" lon="3.56168">
        <ele>333.71</ele>
        <time>2014-04-10T14:29:19Z</time>
      </trkpt>
      <trkpt lat="43.75938" lon="3.56168">
        <ele>333.71</ele>
        <time>2014-04-10T14:29:45Z</time>
      </trkpt>
      <trkpt lat="43.75939" lon="3.56167">
        <ele>333.71</ele>
        <time>2014-04-10T14:30:22Z</time>
      </trkpt>
      <trkpt lat="43.7594" lon="3.56171">
        <ele>333.71</ele>
        <time>2014-04-10T14:31:00Z</time>
      </trkpt>
      <trkpt lat="43.75939" lon="3.56169">
        <ele>333.71</ele>
        <time>2014-04-10T14:31:29Z</time>
      </trkpt>
      <trkpt lat="43.75938" lon="3.56172">
        <ele>334.2</ele>
        <time>2014-04-10T14:31:54Z</time>
      </trkpt>
      <trkpt lat="43.75939" lon="3.56177">
        <ele>334.68</ele>
        <time>2014-04-10T14:32:11Z</time>
      </trkpt>
      <trkpt lat="43.75936" lon="3.56176">
        <ele>335.16</ele>
        <time>2014-04-10T14:32:30Z</time>
      </trkpt>
      <trkpt lat="43.75931" lon="3.56175">
        <ele>336.12</ele>
        <time>2014-04-10T14:32:46Z</time>
      </trkpt>
      <trkpt lat="43.75926" lon="3.56181">
        <ele>338.52</ele>
        <time>2014-04-10T14:33:01Z</time>
      </trkpt>
      <trkpt lat="43.75922" lon="3.56188">
        <ele>340.44</ele>
        <time>2014-04-10T14:33:13Z</time>
      </trkpt>
      <trkpt lat="43.75915" lon="3.56193">
        <ele>342.85</ele>
        <time>2014-04-10T14:33:27Z</time>
      </trkpt>
      <trkpt lat="43.75907" lon="3.56195">
        <ele>344.29</ele>
        <time>2014-04-10T14:33:40Z</time>
      </trkpt>
      <trkpt lat="43.75899" lon="3.56197">
        <ele>343.81</ele>
        <time>2014-04-10T14:33:54Z</time>
      </trkpt>
      <trkpt lat="43.75893" lon="3.56198">
        <ele>343.33</ele>
        <time>2014-04-10T14:34:06Z</time>
      </trkpt>
      <trkpt lat="43.7589" lon="3.56199">
        <ele>343.33</ele>
        <time>2014-04-10T14:34:20Z</time>
      </trkpt>
      <trkpt lat="43.75881" lon="3.56203">
        <ele>341.41</ele>
        <time>2014-04-10T14:34:34Z</time>
      </trkpt>
      <trkpt lat="43.7587" lon="3.56197">
        <ele>340.92</ele>
        <time>2014-04-10T14:34:49Z</time>
      </trkpt>
      <trkpt lat="43.75859" lon="3.56188">
        <ele>338.52</ele>
        <time>2014-04-10T14:35:06Z</time>
      </trkpt>
      <trkpt lat="43.75849" lon="3.56178">
        <ele>337.08</ele>
        <time>2014-04-10T14:35:20Z</time>
      </trkpt>
      <trkpt lat="43.75841" lon="3.56184">
        <ele>335.16</ele>
        <time>2014-04-10T14:35:33Z</time>
      </trkpt>
      <trkpt lat="43.75831" lon="3.56199">
        <ele>332.75</ele>
        <time>2014-04-10T14:35:50Z</time>
      </trkpt>
      <trkpt lat="43.75822" lon="3.5621">
        <ele>331.79</ele>
        <time>2014-04-10T14:36:06Z</time>
      </trkpt>
      <trkpt lat="43.75812" lon="3.56224">
        <ele>330.35</ele>
        <time>2014-04-10T14:36:20Z</time>
      </trkpt>
      <trkpt lat="43.75799" lon="3.56242">
        <ele>327.95</ele>
        <time>2014-04-10T14:36:37Z</time>
      </trkpt>
      <trkpt lat="43.7579" lon="3.56252">
        <ele>326.02</ele>
        <time>2014-04-10T14:36:52Z</time>
      </trkpt>
      <trkpt lat="43.75779" lon="3.56266">
        <ele>324.1</ele>
        <time>2014-04-10T14:37:05Z</time>
      </trkpt>
      <trkpt lat="43.75775" lon="3.5627">
        <ele>324.1</ele>
        <time>2014-04-10T14:37:11Z</time>
      </trkpt>
      <trkpt lat="43.7576" lon="3.56268">
        <ele>323.14</ele>
        <time>2014-04-10T14:37:25Z</time>
      </trkpt>
      <trkpt lat="43.75749" lon="3.56266">
        <ele>320.74</ele>
        <time>2014-04-10T14:37:39Z</time>
      </trkpt>
      <trkpt lat="43.75741" lon="3.56268">
        <ele>319.3</ele>
        <time>2014-04-10T14:37:50Z</time>
      </trkpt>
      <trkpt lat="43.75729" lon="3.56284">
        <ele>317.37</ele>
        <time>2014-04-10T14:38:08Z</time>
      </trkpt>
      <trkpt lat="43.75723" lon="3.56275">
        <ele>315.45</ele>
        <time>2014-04-10T14:38:21Z</time>
      </trkpt>
      <trkpt lat="43.75721" lon="3.56262">
        <ele>314.97</ele>
        <time>2014-04-10T14:38:34Z</time>
      </trkpt>
      <trkpt lat="43.75719" lon="3.56243">
        <ele>314.01</ele>
        <time>2014-04-10T14:38:50Z</time>
      </trkpt>
      <trkpt lat="43.75707" lon="3.56225">
        <ele>313.05</ele>
        <time>2014-04-10T14:39:04Z</time>
      </trkpt>
      <trkpt lat="43.75691" lon="3.56217">
        <ele>312.09</ele>
        <time>2014-04-10T14:39:20Z</time>
      </trkpt>
      <trkpt lat="43.75681" lon="3.56217">
        <ele>310.64</ele>
        <time>2014-04-10T14:39:29Z</time>
      </trkpt>
      <trkpt lat="43.75673" lon="3.56219">
        <ele>310.16</ele>
        <time>2014-04-10T14:39:36Z</time>
      </trkpt>
      <trkpt lat="43.75666" lon="3.56222">
        <ele>309.2</ele>
        <time>2014-04-10T14:39:43Z</time>
      </trkpt>
      <trkpt lat="43.75652" lon="3.56224">
        <ele>307.28</ele>
        <time>2014-04-10T14:39:57Z</time>
      </trkpt>
      <trkpt lat="43.75645" lon="3.56226">
        <ele>305.36</ele>
        <time>2014-04-10T14:40:07Z</time>
      </trkpt>
      <trkpt lat="43.75639" lon="3.56229">
        <ele>304.88</ele>
        <time>2014-04-10T14:40:14Z</time>
      </trkpt>
      <trkpt lat="43.75631" lon="3.56232">
        <ele>302.95</ele>
        <time>2014-04-10T14:40:22Z</time>
      </trkpt>
      <trkpt lat="43.7563" lon="3.56246">
        <ele>301.51</ele>
        <time>2014-04-10T14:40:34Z</time>
      </trkpt>
      <trkpt lat="43.75634" lon="3.56252">
        <ele>301.51</ele>
        <time>2014-04-10T14:40:40Z</time>
      </trkpt>
      <trkpt lat="43.7564" lon="3.56259">
        <ele>300.07</ele>
        <time>2014-04-10T14:40:48Z</time>
      </trkpt>
      <trkpt lat="43.75643" lon="3.56267">
        <ele>299.11</ele>
        <time>2014-04-10T14:40:57Z</time>
      </trkpt>
      <trkpt lat="43.75645" lon="3.5627">
        <ele>298.63</ele>
        <time>2014-04-10T14:41:01Z</time>
      </trkpt>
      <trkpt lat="43.75646" lon="3.56279">
        <ele>297.67</ele>
        <time>2014-04-10T14:41:08Z</time>
      </trkpt>
      <trkpt lat="43.75645" lon="3.56284">
        <ele>297.18</ele>
        <time>2014-04-10T14:41:13Z</time>
      </trkpt>
      <trkpt lat="43.75643" lon="3.56291">
        <ele>296.22</ele>
        <time>2014-04-10T14:41:19Z</time>
      </trkpt>
      <trkpt lat="43.75642" lon="3.56293">
        <ele>296.7</ele>
        <time>2014-04-10T14:41:20Z</time>
      </trkpt>
      <trkpt lat="43.75641" lon="3.56298">
        <ele>295.74</ele>
        <time>2014-04-10T14:41:24Z</time>
      </trkpt>
      <trkpt lat="43.75632" lon="3.56313">
        <ele>295.26</ele>
        <time>2014-04-10T14:41:39Z</time>
      </trkpt>
      <trkpt lat="43.75624" lon="3.56328">
        <ele>295.26</ele>
        <time>2014-04-10T14:41:53Z</time>
      </trkpt>
      <trkpt lat="43.7562" lon="3.56337">
        <ele>294.78</ele>
        <time>2014-04-10T14:41:59Z</time>
      </trkpt>
      <trkpt lat="43.75619" lon="3.56355">
        <ele>293.82</ele>
        <time>2014-04-10T14:42:11Z</time>
      </trkpt>
      <trkpt lat="43.75618" lon="3.56357">
        <ele>293.34</ele>
        <time>2014-04-10T14:42:14Z</time>
      </trkpt>
      <trkpt lat="43.75613" lon="3.56363">
        <ele>292.38</ele>
        <time>2014-04-10T14:42:20Z</time>
      </trkpt>
      <trkpt lat="43.75613" lon="3.56364">
        <ele>291.9</ele>
        <time>2014-04-10T14:42:21Z</time>
      </trkpt>
      <trkpt lat="43.75611" lon="3.56366">
        <ele>291.42</ele>
        <time>2014-04-10T14:42:23Z</time>
      </trkpt>
      <trkpt lat="43.75612" lon="3.56371">
        <ele>290.94</ele>
        <time>2014-04-10T14:42:28Z</time>
      </trkpt>
      <trkpt lat="43.75616" lon="3.56388">
        <ele>289.01</ele>
        <time>2014-04-10T14:42:42Z</time>
      </trkpt>
      <trkpt lat="43.75614" lon="3.56392">
        <ele>288.05</ele>
        <time>2014-04-10T14:42:49Z</time>
      </trkpt>
      <trkpt lat="43.75606" lon="3.56382">
        <ele>286.13</ele>
        <time>2014-04-10T14:43:02Z</time>
      </trkpt>
      <trkpt lat="43.75599" lon="3.56379">
        <ele>283.73</ele>
        <time>2014-04-10T14:43:14Z</time>
      </trkpt>
      <trkpt lat="43.75592" lon="3.56371">
        <ele>281.8</ele>
        <time>2014-04-10T14:43:25Z</time>
      </trkpt>
      <trkpt lat="43.75583" lon="3.56363">
        <ele>278.92</ele>
        <time>2014-04-10T14:43:39Z</time>
      </trkpt>
      <trkpt lat="43.75579" lon="3.56368">
        <ele>277.48</ele>
        <time>2014-04-10T14:43:46Z</time>
      </trkpt>
      <trkpt lat="43.75578" lon="3.5637">
        <ele>277</ele>
        <time>2014-04-10T14:43:47Z</time>
      </trkpt>
      <trkpt lat="43.75576" lon="3.5638">
        <ele>275.07</ele>
        <time>2014-04-10T14:43:57Z</time>
      </trkpt>
      <trkpt lat="43.75572" lon="3.56381">
        <ele>274.59</ele>
        <time>2014-04-10T14:44:03Z</time>
      </trkpt>
      <trkpt lat="43.75564" lon="3.56374">
        <ele>271.71</ele>
        <time>2014-04-10T14:44:16Z</time>
      </trkpt>
      <trkpt lat="43.75564" lon="3.56377">
        <ele>271.23</ele>
        <time>2014-04-10T14:44:19Z</time>
      </trkpt>
      <trkpt lat="43.75564" lon="3.56379">
        <ele>271.23</ele>
        <time>2014-04-10T14:44:20Z</time>
      </trkpt>
      <trkpt lat="43.75567" lon="3.56384">
        <ele>270.27</ele>
        <time>2014-04-10T14:44:26Z</time>
      </trkpt>
      <trkpt lat="43.75569" lon="3.56389">
        <ele>269.31</ele>
        <time>2014-04-10T14:44:31Z</time>
      </trkpt>
      <trkpt lat="43.75573" lon="3.56393">
        <ele>268.83</ele>
        <time>2014-04-10T14:44:36Z</time>
      </trkpt>
      <trkpt lat="43.75574" lon="3.56395">
        <ele>268.35</ele>
        <time>2014-04-10T14:44:37Z</time>
      </trkpt>
      <trkpt lat="43.75575" lon="3.56397">
        <ele>267.86</ele>
        <time>2014-04-10T14:44:39Z</time>
      </trkpt>
      <trkpt lat="43.75576" lon="3.56398">
        <ele>267.86</ele>
        <time>2014-04-10T14:44:40Z</time>
      </trkpt>
      <trkpt lat="43.75579" lon="3.56401">
        <ele>267.86</ele>
        <time>2014-04-10T14:44:44Z</time>
      </trkpt>
      <trkpt lat="43.7558" lon="3.56402">
        <ele>267.38</ele>
        <time>2014-04-10T14:44:45Z</time>
      </trkpt>
      <trkpt lat="43.75581" lon="3.56404">
        <ele>267.38</ele>
        <time>2014-04-10T14:44:46Z</time>
      </trkpt>
      <trkpt lat="43.75589" lon="3.56415">
        <ele>266.42</ele>
        <time>2014-04-10T14:44:57Z</time>
      </trkpt>
      <trkpt lat="43.75595" lon="3.56422">
        <ele>266.42</ele>
        <time>2014-04-10T14:45:04Z</time>
      </trkpt>
      <trkpt lat="43.75595" lon="3.56424">
        <ele>266.42</ele>
        <time>2014-04-10T14:45:05Z</time>
      </trkpt>
      <trkpt lat="43.756" lon="3.56438">
        <ele>265.46</ele>
        <time>2014-04-10T14:45:15Z</time>
      </trkpt>
      <trkpt lat="43.75599" lon="3.56452">
        <ele>263.06</ele>
        <time>2014-04-10T14:45:25Z</time>
      </trkpt>
      <trkpt lat="43.75595" lon="3.56446">
        <ele>262.1</ele>
        <time>2014-04-10T14:45:33Z</time>
      </trkpt>
      <trkpt lat="43.75587" lon="3.56434">
        <ele>260.17</ele>
        <time>2014-04-10T14:45:46Z</time>
      </trkpt>
      <trkpt lat="43.75578" lon="3.56424">
        <ele>258.73</ele>
        <time>2014-04-10T14:45:57Z</time>
      </trkpt>
      <trkpt lat="43.75567" lon="3.56418">
        <ele>257.29</ele>
        <time>2014-04-10T14:46:10Z</time>
      </trkpt>
      <trkpt lat="43.75563" lon="3.5642">
        <ele>255.85</ele>
        <time>2014-04-10T14:46:17Z</time>
      </trkpt>
      <trkpt lat="43.75565" lon="3.56422">
        <ele>255.37</ele>
        <time>2014-04-10T14:46:21Z</time>
      </trkpt>
      <trkpt lat="43.75569" lon="3.56427">
        <ele>254.41</ele>
        <time>2014-04-10T14:46:27Z</time>
      </trkpt>
      <trkpt lat="43.75571" lon="3.56433">
        <ele>253.93</ele>
        <time>2014-04-10T14:46:32Z</time>
      </trkpt>
      <trkpt lat="43.75572" lon="3.56435">
        <ele>253.93</ele>
        <time>2014-04-10T14:46:33Z</time>
      </trkpt>
      <trkpt lat="43.75573" lon="3.56436">
        <ele>253.93</ele>
        <time>2014-04-10T14:46:34Z</time>
      </trkpt>
      <trkpt lat="43.75577" lon="3.56448">
        <ele>252.48</ele>
        <time>2014-04-10T14:46:46Z</time>
      </trkpt>
      <trkpt lat="43.75577" lon="3.5645">
        <ele>252.48</ele>
        <time>2014-04-10T14:46:47Z</time>
      </trkpt>
      <trkpt lat="43.75577" lon="3.56452">
        <ele>252</ele>
        <time>2014-04-10T14:46:48Z</time>
      </trkpt>
      <trkpt lat="43.75577" lon="3.5646">
        <ele>250.08</ele>
        <time>2014-04-10T14:46:57Z</time>
      </trkpt>
      <trkpt lat="43.75575" lon="3.56459">
        <ele>248.64</ele>
        <time>2014-04-10T14:47:04Z</time>
      </trkpt>
      <trkpt lat="43.75575" lon="3.56458">
        <ele>248.16</ele>
        <time>2014-04-10T14:47:05Z</time>
      </trkpt>
      <trkpt lat="43.75573" lon="3.56454">
        <ele>248.16</ele>
        <time>2014-04-10T14:47:09Z</time>
      </trkpt>
      <trkpt lat="43.75572" lon="3.56452">
        <ele>247.68</ele>
        <time>2014-04-10T14:47:11Z</time>
      </trkpt>
      <trkpt lat="43.75569" lon="3.56451">
        <ele>246.72</ele>
        <time>2014-04-10T14:47:16Z</time>
      </trkpt>
      <trkpt lat="43.75568" lon="3.5645">
        <ele>246.72</ele>
        <time>2014-04-10T14:47:17Z</time>
      </trkpt>
      <trkpt lat="43.75563" lon="3.56447">
        <ele>245.75</ele>
        <time>2014-04-10T14:47:23Z</time>
      </trkpt>
      <trkpt lat="43.75562" lon="3.56448">
        <ele>245.75</ele>
        <time>2014-04-10T14:47:24Z</time>
      </trkpt>
      <trkpt lat="43.75562" lon="3.56454">
        <ele>244.79</ele>
        <time>2014-04-10T14:47:29Z</time>
      </trkpt>
      <trkpt lat="43.75567" lon="3.56464">
        <ele>242.39</ele>
        <time>2014-04-10T14:47:43Z</time>
      </trkpt>
      <trkpt lat="43.75565" lon="3.56475">
        <ele>240.47</ele>
        <time>2014-04-10T14:47:52Z</time>
      </trkpt>
      <trkpt lat="43.75562" lon="3.56487">
        <ele>239.51</ele>
        <time>2014-04-10T14:48:03Z</time>
      </trkpt>
      <trkpt lat="43.75561" lon="3.56494">
        <ele>238.54</ele>
        <time>2014-04-10T14:48:10Z</time>
      </trkpt>
      <trkpt lat="43.7556" lon="3.56496">
        <ele>238.06</ele>
        <time>2014-04-10T14:48:11Z</time>
      </trkpt>
      <trkpt lat="43.75557" lon="3.56501">
        <ele>236.62</ele>
        <time>2014-04-10T14:48:21Z</time>
      </trkpt>
      <trkpt lat="43.75558" lon="3.56492">
        <ele>234.7</ele>
        <time>2014-04-10T14:48:33Z</time>
      </trkpt>
      <trkpt lat="43.75557" lon="3.5649">
        <ele>234.7</ele>
        <time>2014-04-10T14:48:34Z</time>
      </trkpt>
      <trkpt lat="43.75556" lon="3.56483">
        <ele>234.7</ele>
        <time>2014-04-10T14:48:40Z</time>
      </trkpt>
      <trkpt lat="43.75556" lon="3.56481">
        <ele>234.22</ele>
        <time>2014-04-10T14:48:41Z</time>
      </trkpt>
      <trkpt lat="43.75553" lon="3.56474">
        <ele>233.26</ele>
        <time>2014-04-10T14:48:48Z</time>
      </trkpt>
      <trkpt lat="43.75544" lon="3.56464">
        <ele>230.85</ele>
        <time>2014-04-10T14:49:04Z</time>
      </trkpt>
      <trkpt lat="43.75542" lon="3.56471">
        <ele>228.93</ele>
        <time>2014-04-10T14:49:15Z</time>
      </trkpt>
      <trkpt lat="43.75542" lon="3.56479">
        <ele>227.01</ele>
        <time>2014-04-10T14:49:25Z</time>
      </trkpt>
      <trkpt lat="43.75541" lon="3.56478">
        <ele>226.53</ele>
        <time>2014-04-10T14:49:26Z</time>
      </trkpt>
      <trkpt lat="43.75537" lon="3.56478">
        <ele>224.61</ele>
        <time>2014-04-10T14:49:38Z</time>
      </trkpt>
      <trkpt lat="43.75538" lon="3.56488">
        <ele>223.16</ele>
        <time>2014-04-10T14:49:46Z</time>
      </trkpt>
      <trkpt lat="43.75537" lon="3.56503">
        <ele>222.2</ele>
        <time>2014-04-10T14:49:57Z</time>
      </trkpt>
      <trkpt lat="43.7554" lon="3.56516">
        <ele>221.72</ele>
        <time>2014-04-10T14:50:08Z</time>
      </trkpt>
      <trkpt lat="43.7554" lon="3.56517">
        <ele>221.72</ele>
        <time>2014-04-10T14:50:09Z</time>
      </trkpt>
      <trkpt lat="43.75541" lon="3.56533">
        <ele>219.32</ele>
        <time>2014-04-10T14:50:22Z</time>
      </trkpt>
      <trkpt lat="43.75542" lon="3.56536">
        <ele>218.84</ele>
        <time>2014-04-10T14:50:24Z</time>
      </trkpt>
      <trkpt lat="43.75544" lon="3.56542">
        <ele>217.88</ele>
        <time>2014-04-10T14:50:31Z</time>
      </trkpt>
      <trkpt lat="43.75542" lon="3.56542">
        <ele>216.91</ele>
        <time>2014-04-10T14:50:37Z</time>
      </trkpt>
      <trkpt lat="43.7554" lon="3.56539">
        <ele>216.43</ele>
        <time>2014-04-10T14:50:40Z</time>
      </trkpt>
      <trkpt lat="43.75534" lon="3.56526">
        <ele>214.51</ele>
        <time>2014-04-10T14:50:52Z</time>
      </trkpt>
      <trkpt lat="43.75527" lon="3.56514">
        <ele>212.59</ele>
        <time>2014-04-10T14:51:05Z</time>
      </trkpt>
      <trkpt lat="43.75518" lon="3.56502">
        <ele>209.7</ele>
        <time>2014-04-10T14:51:21Z</time>
      </trkpt>
      <trkpt lat="43.75508" lon="3.56493">
        <ele>208.74</ele>
        <time>2014-04-10T14:51:33Z</time>
      </trkpt>
      <trkpt lat="43.75499" lon="3.56485">
        <ele>207.78</ele>
        <time>2014-04-10T14:51:43Z</time>
      </trkpt>
      <trkpt lat="43.75492" lon="3.56474">
        <ele>206.34</ele>
        <time>2014-04-10T14:51:52Z</time>
      </trkpt>
      <trkpt lat="43.75484" lon="3.56459">
        <ele>205.38</ele>
        <time>2014-04-10T14:52:03Z</time>
      </trkpt>
      <trkpt lat="43.75481" lon="3.56457">
        <ele>205.38</ele>
        <time>2014-04-10T14:52:09Z</time>
      </trkpt>
      <trkpt lat="43.75474" lon="3.56452">
        <ele>204.9</ele>
        <time>2014-04-10T14:52:17Z</time>
      </trkpt>
      <trkpt lat="43.75461" lon="3.56446">
        <ele>203.46</ele>
        <time>2014-04-10T14:52:30Z</time>
      </trkpt>
      <trkpt lat="43.75459" lon="3.56445">
        <ele>202.98</ele>
        <time>2014-04-10T14:52:32Z</time>
      </trkpt>
      <trkpt lat="43.75452" lon="3.56432">
        <ele>200.57</ele>
        <time>2014-04-10T14:52:45Z</time>
      </trkpt>
      <trkpt lat="43.75448" lon="3.56415">
        <ele>199.61</ele>
        <time>2014-04-10T14:52:58Z</time>
      </trkpt>
      <trkpt lat="43.75437" lon="3.564">
        <ele>198.65</ele>
        <time>2014-04-10T14:53:10Z</time>
      </trkpt>
      <trkpt lat="43.75428" lon="3.56389">
        <ele>198.65</ele>
        <time>2014-04-10T14:53:22Z</time>
      </trkpt>
      <trkpt lat="43.75421" lon="3.56383">
        <ele>199.13</ele>
        <time>2014-04-10T14:53:29Z</time>
      </trkpt>
      <trkpt lat="43.75415" lon="3.56375">
        <ele>200.09</ele>
        <time>2014-04-10T14:53:36Z</time>
      </trkpt>
      <trkpt lat="43.75408" lon="3.5637">
        <ele>200.09</ele>
        <time>2014-04-10T14:53:47Z</time>
      </trkpt>
      <trkpt lat="43.75398" lon="3.56359">
        <ele>197.69</ele>
        <time>2014-04-10T14:53:59Z</time>
      </trkpt>
      <trkpt lat="43.75383" lon="3.56356">
        <ele>196.25</ele>
        <time>2014-04-10T14:54:12Z</time>
      </trkpt>
      <trkpt lat="43.75381" lon="3.56358">
        <ele>195.77</ele>
        <time>2014-04-10T14:54:15Z</time>
      </trkpt>
      <trkpt lat="43.7537" lon="3.56363">
        <ele>195.28</ele>
        <time>2014-04-10T14:54:28Z</time>
      </trkpt>
      <trkpt lat="43.75358" lon="3.56353">
        <ele>194.32</ele>
        <time>2014-04-10T14:54:41Z</time>
      </trkpt>
      <trkpt lat="43.75354" lon="3.56338">
        <ele>195.28</ele>
        <time>2014-04-10T14:54:50Z</time>
      </trkpt>
      <trkpt lat="43.75349" lon="3.56315">
        <ele>195.77</ele>
        <time>2014-04-10T14:55:03Z</time>
      </trkpt>
      <trkpt lat="43.75342" lon="3.56303">
        <ele>195.28</ele>
        <time>2014-04-10T14:55:14Z</time>
      </trkpt>
      <trkpt lat="43.75342" lon="3.56288">
        <ele>192.88</ele>
        <time>2014-04-10T14:55:27Z</time>
      </trkpt>
      <trkpt lat="43.75337" lon="3.5628">
        <ele>192.4</ele>
        <time>2014-04-10T14:55:35Z</time>
      </trkpt>
      <trkpt lat="43.75328" lon="3.56278">
        <ele>190.96</ele>
        <time>2014-04-10T14:55:49Z</time>
      </trkpt>
      <trkpt lat="43.75329" lon="3.5628">
        <ele>190.96</ele>
        <time>2014-04-10T14:56:11Z</time>
      </trkpt>
      <trkpt lat="43.75324" lon="3.56283">
        <ele>189.52</ele>
        <time>2014-04-10T14:56:20Z</time>
      </trkpt>
      <trkpt lat="43.75317" lon="3.56287">
        <ele>187.11</ele>
        <time>2014-04-10T14:56:30Z</time>
      </trkpt>
      <trkpt lat="43.75312" lon="3.5629">
        <ele>186.63</ele>
        <time>2014-04-10T14:56:35Z</time>
      </trkpt>
      <trkpt lat="43.75302" lon="3.5629">
        <ele>184.71</ele>
        <time>2014-04-10T14:56:49Z</time>
      </trkpt>
      <trkpt lat="43.75292" lon="3.56291">
        <ele>182.31</ele>
        <time>2014-04-10T14:57:01Z</time>
      </trkpt>
      <trkpt lat="43.75281" lon="3.56289">
        <ele>179.9</ele>
        <time>2014-04-10T14:57:14Z</time>
      </trkpt>
      <trkpt lat="43.75275" lon="3.56288">
        <ele>178.46</ele>
        <time>2014-04-10T14:57:21Z</time>
      </trkpt>
      <trkpt lat="43.75267" lon="3.56286">
        <ele>177.02</ele>
        <time>2014-04-10T14:57:29Z</time>
      </trkpt>
      <trkpt lat="43.75262" lon="3.56279">
        <ele>175.58</ele>
        <time>2014-04-10T14:57:37Z</time>
      </trkpt>
      <trkpt lat="43.75258" lon="3.56272">
        <ele>173.66</ele>
        <time>2014-04-10T14:57:44Z</time>
      </trkpt>
      <trkpt lat="43.75248" lon="3.56263">
        <ele>171.25</ele>
        <time>2014-04-10T14:57:59Z</time>
      </trkpt>
      <trkpt lat="43.7524" lon="3.56258">
        <ele>169.33</ele>
        <time>2014-04-10T14:58:08Z</time>
      </trkpt>
      <trkpt lat="43.75231" lon="3.5625">
        <ele>167.41</ele>
        <time>2014-04-10T14:58:22Z</time>
      </trkpt>
      <trkpt lat="43.75222" lon="3.56244">
        <ele>165.48</ele>
        <time>2014-04-10T14:58:36Z</time>
      </trkpt>
      <trkpt lat="43.75215" lon="3.56237">
        <ele>164.04</ele>
        <time>2014-04-10T14:58:44Z</time>
      </trkpt>
      <trkpt lat="43.75209" lon="3.56222">
        <ele>161.64</ele>
        <time>2014-04-10T14:58:56Z</time>
      </trkpt>
      <trkpt lat="43.75206" lon="3.56219">
        <ele>161.64</ele>
        <time>2014-04-10T14:59:00Z</time>
      </trkpt>
      <trkpt lat="43.75196" lon="3.56208">
        <ele>159.72</ele>
        <time>2014-04-10T14:59:13Z</time>
      </trkpt>
      <trkpt lat="43.75187" lon="3.56197">
        <ele>156.83</ele>
        <time>2014-04-10T14:59:27Z</time>
      </trkpt>
      <trkpt lat="43.75179" lon="3.56189">
        <ele>153.95</ele>
        <time>2014-04-10T14:59:42Z</time>
      </trkpt>
      <trkpt lat="43.7517" lon="3.5618">
        <ele>151.06</ele>
        <time>2014-04-10T14:59:56Z</time>
      </trkpt>
      <trkpt lat="43.75164" lon="3.56171">
        <ele>150.1</ele>
        <time>2014-04-10T15:00:04Z</time>
      </trkpt>
      <trkpt lat="43.75151" lon="3.56161">
        <ele>148.66</ele>
        <time>2014-04-10T15:00:17Z</time>
      </trkpt>
      <trkpt lat="43.75141" lon="3.56156">
        <ele>148.18</ele>
        <time>2014-04-10T15:00:28Z</time>
      </trkpt>
      <trkpt lat="43.75133" lon="3.56156">
        <ele>148.18</ele>
        <time>2014-04-10T15:00:34Z</time>
      </trkpt>
      <trkpt lat="43.75117" lon="3.56154">
        <ele>146.74</ele>
        <time>2014-04-10T15:00:51Z</time>
      </trkpt>
      <trkpt lat="43.75104" lon="3.56146">
        <ele>144.82</ele>
        <time>2014-04-10T15:01:05Z</time>
      </trkpt>
      <trkpt lat="43.75102" lon="3.56145">
        <ele>144.34</ele>
        <time>2014-04-10T15:01:08Z</time>
      </trkpt>
      <trkpt lat="43.75091" lon="3.56141">
        <ele>142.41</ele>
        <time>2014-04-10T15:01:20Z</time>
      </trkpt>
      <trkpt lat="43.7508" lon="3.56133">
        <ele>140.49</ele>
        <time>2014-04-10T15:01:32Z</time>
      </trkpt>
      <trkpt lat="43.75072" lon="3.5613">
        <ele>139.05</ele>
        <time>2014-04-10T15:01:41Z</time>
      </trkpt>
      <trkpt lat="43.75064" lon="3.56134">
        <ele>137.13</ele>
        <time>2014-04-10T15:01:55Z</time>
      </trkpt>
      <trkpt lat="43.75058" lon="3.56141">
        <ele>136.16</ele>
        <time>2014-04-10T15:02:02Z</time>
      </trkpt>
      <trkpt lat="43.75052" lon="3.56146">
        <ele>134.24</ele>
        <time>2014-04-10T15:02:15Z</time>
      </trkpt>
      <trkpt lat="43.75051" lon="3.56128">
        <ele>131.84</ele>
        <time>2014-04-10T15:02:31Z</time>
      </trkpt>
      <trkpt lat="43.75053" lon="3.56116">
        <ele>129.92</ele>
        <time>2014-04-10T15:02:40Z</time>
      </trkpt>
      <trkpt lat="43.75055" lon="3.56108">
        <ele>127.51</ele>
        <time>2014-04-10T15:02:50Z</time>
      </trkpt>
      <trkpt lat="43.75053" lon="3.56106">
        <ele>126.07</ele>
        <time>2014-04-10T15:02:58Z</time>
      </trkpt>
      <trkpt lat="43.75043" lon="3.56116">
        <ele>124.15</ele>
        <time>2014-04-10T15:03:10Z</time>
      </trkpt>
      <trkpt lat="43.75042" lon="3.56114">
        <ele>123.67</ele>
        <time>2014-04-10T15:03:15Z</time>
      </trkpt>
      <trkpt lat="43.75046" lon="3.56102">
        <ele>122.22</ele>
        <time>2014-04-10T15:03:27Z</time>
      </trkpt>
      <trkpt lat="43.75044" lon="3.56098">
        <ele>120.3</ele>
        <time>2014-04-10T15:03:38Z</time>
      </trkpt>
      <trkpt lat="43.75036" lon="3.56105">
        <ele>117.9</ele>
        <time>2014-04-10T15:03:54Z</time>
      </trkpt>
      <trkpt lat="43.75032" lon="3.56109">
        <ele>115.98</ele>
        <time>2014-04-10T15:04:03Z</time>
      </trkpt>
      <trkpt lat="43.75026" lon="3.56124">
        <ele>114.05</ele>
        <time>2014-04-10T15:04:16Z</time>
      </trkpt>
      <trkpt lat="43.75018" lon="3.56138">
        <ele>113.09</ele>
        <time>2014-04-10T15:04:28Z</time>
      </trkpt>
      <trkpt lat="43.75018" lon="3.56139">
        <ele>112.61</ele>
        <time>2014-04-10T15:04:29Z</time>
      </trkpt>
      <trkpt lat="43.75017" lon="3.56152">
        <ele>112.13</ele>
        <time>2014-04-10T15:04:38Z</time>
      </trkpt>
      <trkpt lat="43.75018" lon="3.56157">
        <ele>111.65</ele>
        <time>2014-04-10T15:04:42Z</time>
      </trkpt>
      <trkpt lat="43.7502" lon="3.56176">
        <ele>110.21</ele>
        <time>2014-04-10T15:04:55Z</time>
      </trkpt>
      <trkpt lat="43.75019" lon="3.56179">
        <ele>109.73</ele>
        <time>2014-04-10T15:04:59Z</time>
      </trkpt>
      <trkpt lat="43.75012" lon="3.5619">
        <ele>107.81</ele>
        <time>2014-04-10T15:05:11Z</time>
      </trkpt>
      <trkpt lat="43.75006" lon="3.56195">
        <ele>106.84</ele>
        <time>2014-04-10T15:05:19Z</time>
      </trkpt>
      <trkpt lat="43.75004" lon="3.56196">
        <ele>106.84</ele>
        <time>2014-04-10T15:05:22Z</time>
      </trkpt>
      <trkpt lat="43.74998" lon="3.56199">
        <ele>106.84</ele>
        <time>2014-04-10T15:05:29Z</time>
      </trkpt>
      <trkpt lat="43.74992" lon="3.56202">
        <ele>106.36</ele>
        <time>2014-04-10T15:05:36Z</time>
      </trkpt>
      <trkpt lat="43.74982" lon="3.56208">
        <ele>106.36</ele>
        <time>2014-04-10T15:05:46Z</time>
      </trkpt>
      <trkpt lat="43.74981" lon="3.56209">
        <ele>106.36</ele>
        <time>2014-04-10T15:05:48Z</time>
      </trkpt>
      <trkpt lat="43.74967" lon="3.56212">
        <ele>105.88</ele>
        <time>2014-04-10T15:06:01Z</time>
      </trkpt>
      <trkpt lat="43.74956" lon="3.56208">
        <ele>103.96</ele>
        <time>2014-04-10T15:06:12Z</time>
      </trkpt>
      <trkpt lat="43.74944" lon="3.562">
        <ele>103</ele>
        <time>2014-04-10T15:06:24Z</time>
      </trkpt>
      <trkpt lat="43.74932" lon="3.56192">
        <ele>102.04</ele>
        <time>2014-04-10T15:06:36Z</time>
      </trkpt>
      <trkpt lat="43.74921" lon="3.56194">
        <ele>102.04</ele>
        <time>2014-04-10T15:06:47Z</time>
      </trkpt>
      <trkpt lat="43.7491" lon="3.56191">
        <ele>101.08</ele>
        <time>2014-04-10T15:06:59Z</time>
      </trkpt>
      <trkpt lat="43.74908" lon="3.56189">
        <ele>100.6</ele>
        <time>2014-04-10T15:07:02Z</time>
      </trkpt>
      <trkpt lat="43.74903" lon="3.56184">
        <ele>100.6</ele>
        <time>2014-04-10T15:07:07Z</time>
      </trkpt>
      <trkpt lat="43.74893" lon="3.5617">
        <ele>99.63</ele>
        <time>2014-04-10T15:07:18Z</time>
      </trkpt>
      <trkpt lat="43.74886" lon="3.56165">
        <ele>99.15</ele>
        <time>2014-04-10T15:07:36Z</time>
      </trkpt>
      <trkpt lat="43.74884" lon="3.56163">
        <ele>99.15</ele>
        <time>2014-04-10T15:07:39Z</time>
      </trkpt>
      <trkpt lat="43.74876" lon="3.5615">
        <ele>98.19</ele>
        <time>2014-04-10T15:07:51Z</time>
      </trkpt>
      <trkpt lat="43.74869" lon="3.56141">
        <ele>97.71</ele>
        <time>2014-04-10T15:08:04Z</time>
      </trkpt>
      <trkpt lat="43.74862" lon="3.56133">
        <ele>96.75</ele>
        <time>2014-04-10T15:08:15Z</time>
      </trkpt>
      <trkpt lat="43.7485" lon="3.5612">
        <ele>95.79</ele>
        <time>2014-04-10T15:08:29Z</time>
      </trkpt>
      <trkpt lat="43.74839" lon="3.56113">
        <ele>95.31</ele>
        <time>2014-04-10T15:08:43Z</time>
      </trkpt>
      <trkpt lat="43.74832" lon="3.56109">
        <ele>95.79</ele>
        <time>2014-04-10T15:08:49Z</time>
      </trkpt>
      <trkpt lat="43.74827" lon="3.56103">
        <ele>94.83</ele>
        <time>2014-04-10T15:08:55Z</time>
      </trkpt>
      <trkpt lat="43.74816" lon="3.56097">
        <ele>94.83</ele>
        <time>2014-04-10T15:09:05Z</time>
      </trkpt>
      <trkpt lat="43.74808" lon="3.56089">
        <ele>93.87</ele>
        <time>2014-04-10T15:09:14Z</time>
      </trkpt>
      <trkpt lat="43.74802" lon="3.56083">
        <ele>93.39</ele>
        <time>2014-04-10T15:09:26Z</time>
      </trkpt>
      <trkpt lat="43.74799" lon="3.56084">
        <ele>93.39</ele>
        <time>2014-04-10T15:09:29Z</time>
      </trkpt>
      <trkpt lat="43.74786" lon="3.5608">
        <ele>92.42</ele>
        <time>2014-04-10T15:09:41Z</time>
      </trkpt>
      <trkpt lat="43.74784" lon="3.56081">
        <ele>92.42</ele>
        <time>2014-04-10T15:09:45Z</time>
      </trkpt>
      <trkpt lat="43.74772" lon="3.56089">
        <ele>92.42</ele>
        <time>2014-04-10T15:09:57Z</time>
      </trkpt>
      <trkpt lat="43.74758" lon="3.56091">
        <ele>91.94</ele>
        <time>2014-04-10T15:10:08Z</time>
      </trkpt>
      <trkpt lat="43.74745" lon="3.56099">
        <ele>92.42</ele>
        <time>2014-04-10T15:10:20Z</time>
      </trkpt>
      <trkpt lat="43.74732" lon="3.56107">
        <ele>92.42</ele>
        <time>2014-04-10T15:10:32Z</time>
      </trkpt>
      <trkpt lat="43.7472" lon="3.5612">
        <ele>92.42</ele>
        <time>2014-04-10T15:10:46Z</time>
      </trkpt>
      <trkpt lat="43.74719" lon="3.56125">
        <ele>92.42</ele>
        <time>2014-04-10T15:10:58Z</time>
      </trkpt>
      <trkpt lat="43.74716" lon="3.56125">
        <ele>92.42</ele>
        <time>2014-04-10T15:11:23Z</time>
      </trkpt>
      <trkpt lat="43.74721" lon="3.56123">
        <ele>92.42</ele>
        <time>2014-04-10T15:11:56Z</time>
      </trkpt>
      <trkpt lat="43.74723" lon="3.56123">
        <ele>91.94</ele>
        <time>2014-04-10T15:12:13Z</time>
      </trkpt>
      <trkpt lat="43.74722" lon="3.56124">
        <ele>91.94</ele>
        <time>2014-04-10T15:12:32Z</time>
      </trkpt>
      <trkpt lat="43.74723" lon="3.56126">
        <ele>92.42</ele>
        <time>2014-04-10T15:12:48Z</time>
      </trkpt>
      <trkpt lat="43.74724" lon="3.56127">
        <ele>90.98</ele>
        <time>2014-04-10T15:13:02Z</time>
      </trkpt>
      <trkpt lat="43.74723" lon="3.56126">
        <ele>92.42</ele>
        <time>2014-04-10T15:13:16Z</time>
      </trkpt>
      <trkpt lat="43.74724" lon="3.56126">
        <ele>92.9</ele>
        <time>2014-04-10T15:13:41Z</time>
      </trkpt>
      <trkpt lat="43.74724" lon="3.56125">
        <ele>92.42</ele>
        <time>2014-04-10T15:13:48Z</time>
      </trkpt>
    </trkseg>
  </trk>
</gpx>